Date StartTime U_cm/s V_cm/s W_cm/s Ustd_cm/s Vstd_cm/s Wstd_cm/s Uvar_(cm/s)^2 Vvar_(cm/s)^2 Wvar_(cm/s)^2 KE_(m/s)^2 TurbulentKE_(m/s)^2 HorizWindSpeed_cm/s FrictionSpeec_cm/s DragCoef SpeedOfSound_m/s SonicTemperature_C Pressure_mb 
02/25/2014  00:00:00     -101.274      -37.938       -9.076       33.744       17.490       12.637     1138.639      305.884      159.683        0.669        0.080      108.146       11.828        0.012      336.361        7.613      860.999
02/25/2014  00:01:00     -136.652      -59.942      -14.737       27.806       15.241       14.128      773.156      232.300      199.600        1.184        0.060      149.221        6.777        0.002      336.209        7.357      861.006
02/25/2014  00:02:00      -86.998      -28.234      -13.732       44.500       20.989       14.477     1980.207      440.545      209.585        0.559        0.132       91.465       20.120        0.048      336.318        7.538      861.018
02/25/2014  00:03:00      -28.788       -3.666        1.405       10.501       15.038        8.478      110.279      226.140       71.876        0.063        0.020       29.020        5.271        0.033      336.935        8.573      861.018
02/25/2014  00:04:00     -111.543      -56.883      -12.984       45.488       22.794       10.214     2069.123      519.554      104.331        0.927        0.135      125.210        7.778        0.004      336.366        7.620      861.021
02/25/2014  00:05:00     -151.993      -52.737      -15.968       35.579       15.906       15.383     1265.875      253.007      236.643        1.395        0.088      160.882       14.810        0.008      336.044        7.082      861.027
02/25/2014  00:06:00      -11.504       17.883       -7.442       24.502       46.779       19.185      600.328     2188.279      368.066        0.183        0.158       21.264       12.503        0.346      336.569        7.958      861.029
02/25/2014  00:07:00       -8.310      -14.917       -7.954       29.681       19.945        8.282      880.966      397.786       68.593        0.085        0.067       17.076        6.384        0.140      336.822        8.381      861.015
02/25/2014  00:08:00     -112.589      -67.927      -11.726       34.469       23.182       18.173     1188.140      537.404      330.243        0.974        0.103      131.492       11.352        0.007      336.185        7.317      861.011
02/25/2014  00:09:00     -121.424      -49.849       -8.444       33.822       31.062       16.819     1143.898      964.857      282.864        0.985        0.120      131.258       18.099        0.019      336.015        7.034      861.026
02/25/2014  00:10:00     -100.622      -41.309      -12.751       21.955       26.354       12.776      482.036      694.547      163.236        0.667        0.067      108.771        8.511        0.006      336.110        7.191      861.028
02/25/2014  00:11:00     -107.652      -38.211       -8.615       25.356       34.027       20.737      642.950     1157.812      430.043        0.768        0.112      114.232       16.108        0.020      336.081        7.142      861.019
02/25/2014  00:12:00      -63.052      -32.463       -7.981       13.026       17.606        7.264      169.669      309.970       52.769        0.281        0.027       70.918        4.869        0.005      336.132        7.229      861.014
02/25/2014  00:13:00      -52.448      -26.043       -6.373       16.550       12.710        7.984      273.917      161.541       63.743        0.198        0.025       58.558        3.902        0.004      336.224        7.382      861.003
02/25/2014  00:14:00      -72.474      -37.758       -3.178       27.233       15.199       14.038      741.620      231.016      197.057        0.393        0.058       81.720       12.421        0.023      336.216        7.370      861.005
02/25/2014  00:15:00      -77.680      -29.903      -10.806       17.940       11.299       12.775      321.860      127.659      163.198        0.383        0.031       83.237       10.271        0.015      336.166        7.285      861.010
02/25/2014  00:16:00      -92.829      -29.582      -10.758        9.863       10.225        7.081       97.280      104.553       50.143        0.493        0.013       97.428        3.990        0.002      336.117        7.204      861.004
02/25/2014  00:17:00      -69.397      -13.265       -3.287       17.514       13.504       11.489      306.757      182.349      131.987        0.281        0.031       70.654        8.126        0.013      336.138        7.238      860.993
02/25/2014  00:18:00      -64.231      -14.819       -8.631       20.017       18.501        7.385      400.697      342.302       54.538        0.261        0.040       65.918        8.427        0.016      336.144        7.250      860.982
02/25/2014  00:19:00     -107.533      -51.868      -11.035       13.063       15.944       10.914      170.645      254.220      119.121        0.746        0.027      119.389        6.206        0.003      336.057        7.104      860.983
02/25/2014  00:20:00      -96.320       -2.108      -10.411       25.563       20.363       16.976      653.485      414.651      288.200        0.537        0.068       96.344       14.979        0.024      336.037        7.067      860.983
02/25/2014  00:21:00      -49.423      -23.305        8.886       30.871       27.862       23.991      952.991      776.314      575.551        0.268        0.115       54.642       18.238        0.111      336.139        7.239      860.979
02/25/2014  00:22:00      -66.378      -22.316       -1.813       25.445       18.689       12.949      647.451      349.273      167.688        0.304        0.058       70.028       10.066        0.021      336.086        7.151      860.980
02/25/2014  00:23:00      -96.116      -25.029       -8.377       24.267       30.200       18.782      588.890      912.033      352.781        0.589        0.093       99.321       15.089        0.023      335.967        6.953      860.980
02/25/2014  00:24:00      -40.552        0.885        1.344       42.979       20.652       19.768     1847.152      426.499      390.793        0.216        0.133       40.562       23.081        0.324      335.921        6.878      860.966
02/25/2014  00:25:00      -84.254        0.465       -7.225       27.667       16.954       16.324      765.478      287.426      266.470        0.424        0.066       84.256       17.251        0.042      335.957        6.936      860.952
02/25/2014  00:26:00      -70.065      -18.753       -8.343       19.294       23.033       14.606      372.270      530.526      213.348        0.322        0.056       72.531       11.332        0.024      335.846        6.753      860.950
02/25/2014  00:27:00      -22.857      -17.950        5.313       24.777       25.374       17.866      613.886      643.852      319.180        0.122        0.079       29.062       17.643        0.369      335.935        6.900      860.936
02/25/2014  00:28:00      -31.304      -24.790       -9.701       20.309       11.270       10.774      412.446      127.010      116.085        0.117        0.033       39.931        6.709        0.028      335.988        6.988      860.928
02/25/2014  00:29:00      -64.862       -4.355       -8.376       18.008       15.130       16.590      324.286      228.917      275.217        0.256        0.041       65.008       12.063        0.034      335.914        6.865      860.924
02/25/2014  00:30:00      -63.704      -31.017       -6.241       15.753       15.585        9.854      248.153      242.884       97.099        0.282        0.029       70.854        5.362        0.006      335.918        6.871      860.923
02/25/2014  00:31:00      -91.682      -35.928      -11.620       28.494       14.707       12.410      811.901      216.302      154.010        0.551        0.059       98.470        6.643        0.005      335.911        6.860      860.917
02/25/2014  00:32:00     -110.957      -35.161      -14.740       16.414       20.538        8.718      269.412      421.795       76.011        0.727        0.038      116.395        8.709        0.006      335.792        6.661      860.912
02/25/2014  00:33:00      -78.102      -17.330      -12.509       18.445       17.966       12.585      340.214      322.773      158.380        0.369        0.041       80.002        9.815        0.015      335.812        6.695      860.909
02/25/2014  00:34:00     -100.326      -14.739       -6.972       27.495       19.610       14.781      755.963      384.563      218.489        0.584        0.068      101.403       12.947        0.016      335.780        6.642      860.907
02/25/2014  00:35:00      -67.781      -25.708       -3.369       65.381       27.745       20.850     4274.719      769.763      434.737        0.537        0.274       72.493       30.213        0.174      335.732        6.563      860.899
02/25/2014  00:36:00        3.293      -18.949       -0.093       19.173       14.944       11.760      367.597      223.318      138.299        0.055        0.036       19.233        9.372        0.237      335.755        6.601      860.873
02/25/2014  00:37:00      -75.450      -37.820       -9.534       22.065       17.292       13.340      486.862      299.001      177.963        0.409        0.048       84.398        8.365        0.010      335.777        6.638      860.875
02/25/2014  00:38:00      -59.183      -29.746       -2.712       43.176       21.532       15.728     1864.207      463.621      247.358        0.348        0.129       66.238       18.345        0.077      335.753        6.597      860.869
02/25/2014  00:39:00      -68.246       -7.372       -8.851       29.012       14.613       15.987      841.683      213.532      255.592        0.305        0.066       68.643       18.130        0.070      335.702        6.513      860.859
02/25/2014  00:40:00      -49.309      -13.523      -12.810       14.458       16.251       10.889      209.031      264.084      118.560        0.168        0.030       51.130        8.212        0.026      335.764        6.616      860.852
02/25/2014  00:41:00      -65.422      -13.109      -10.677       19.378       27.679       16.027      375.493      766.113      256.876        0.298        0.070       66.722       12.397        0.035      335.891        6.827      860.855
02/25/2014  00:42:00     -109.780      -24.476      -14.383       14.290       14.363       13.849      204.198      206.306      191.796        0.673        0.030      112.476        3.146        0.001      335.732        6.562      860.852
02/25/2014  00:43:00      -84.915      -24.156      -12.250       12.779       13.288        9.977      163.298      176.563       99.548        0.419        0.022       88.284        3.699        0.002      335.784        6.650      860.859
02/25/2014  00:44:00      -61.925      -11.485      -12.831       12.776       11.060        7.705      163.222      122.324       59.366        0.224        0.017       62.981        4.243        0.005      335.736        6.568      860.857
02/25/2014  00:45:00      -40.580      -12.190       -7.362        7.568        7.492        6.003       57.269       56.123       36.040        0.100        0.007       42.371        3.992        0.009      335.829        6.724      860.841
02/25/2014  00:46:00      -68.073       -1.921      -10.302       17.833       12.680       10.933      318.001      160.779      119.541        0.267        0.030       68.100        9.312        0.019      335.810        6.691      860.848
02/25/2014  00:47:00      -65.104      -13.857      -10.035       17.022       17.938       12.042      289.760      321.787      145.003        0.264        0.038       66.563        9.062        0.019      335.714        6.532      860.856
02/25/2014  00:48:00      -41.427       -0.057       -7.247       13.920       15.883        9.857      193.758      252.257       97.157        0.116        0.027       41.427        7.644        0.034      335.785        6.651      860.851
02/25/2014  00:49:00        7.967       11.819        2.037       15.590        9.136        8.027      243.037       83.464       64.426        0.030        0.020       14.254        7.524        0.279      336.194        7.329      860.840
02/25/2014  00:50:00        6.355        3.736        9.111       10.471       10.462        7.720      109.638      109.443       59.593        0.021        0.014        7.372        6.484        0.774      335.954        6.931      860.839
02/25/2014  00:51:00      -16.306      -12.777       -4.908       15.145        7.079        6.197      229.377       50.117       38.398        0.039        0.016       20.715        8.331        0.162      336.069        7.125      860.850
02/25/2014  00:52:00      -42.795       -8.129      -11.196        8.336       10.270        9.783       69.497      105.464       95.715        0.115        0.014       43.560        6.526        0.022      335.664        6.448      860.842
02/25/2014  00:53:00      -28.846      -16.307       -9.932       11.892        9.532        8.334      141.416       90.859       69.453        0.075        0.015       33.136        5.987        0.033      335.717        6.537      860.835
02/25/2014  00:54:00      -55.187      -13.711      -10.537       10.151        9.051        7.116      103.050       81.929       50.635        0.179        0.012       56.865        4.972        0.008      335.570        6.293      860.825
02/25/2014  00:55:00      -55.104      -15.940      -14.893       12.228        9.529        6.676      149.520       90.803       44.570        0.190        0.014       57.363        5.353        0.009      335.629        6.390      860.812
02/25/2014  00:56:00      -20.454      -15.234       -6.905       23.245       11.270        6.865      540.348      127.008       47.122        0.071        0.036       25.504        8.494        0.111      335.856        6.767      860.812
02/25/2014  00:57:00      -19.701       -2.923       -5.928       19.712       10.120        6.588      388.580      102.423       43.396        0.048        0.027       19.917        6.934        0.121      335.977        6.970      860.809
02/25/2014  00:58:00      -46.360      -11.640      -10.172       11.598        6.881        6.383      134.503       47.354       40.737        0.131        0.011       47.799        5.540        0.013      335.617        6.371      860.813
02/25/2014  00:59:00      -48.843      -10.669       -5.848        9.701        8.204        7.968       94.103       67.299       63.491        0.138        0.011       49.994        6.642        0.018      335.580        6.309      860.805
02/25/2014  01:00:00      -35.987       -8.675       -3.553       12.192        8.007        6.711      148.634       64.110       45.036        0.082        0.013       37.018        7.147        0.037      335.863        6.780      860.800
02/25/2014  01:01:00      -31.230       -9.084      -13.455       17.620       15.765        8.119      310.475      248.534       65.918        0.093        0.031       32.525        7.685        0.056      335.814        6.701      860.803
02/25/2014  01:02:00      -46.228       -9.599      -16.509       13.414        8.721        7.175      179.937       76.059       51.476        0.140        0.015       47.214        4.993        0.011      335.521        6.211      860.808
02/25/2014  01:03:00      -25.932      -15.591       -8.772       14.492       10.467        8.596      210.020      109.567       73.900        0.069        0.020       30.258        4.272        0.020      335.682        6.478      860.818
02/25/2014  01:04:00       -0.849      -10.121        1.585        6.693        7.594        6.660       44.798       57.669       44.350        0.013        0.007       10.157        2.374        0.055      335.866        6.784      860.828
02/25/2014  01:05:00      -56.060      -19.294       -9.266       13.961       11.216        8.270      194.909      125.790       68.385        0.199        0.019       59.287        6.114        0.011      335.491        6.159      860.833
02/25/2014  01:06:00      -63.341      -12.830      -13.436        6.616        8.111        6.815       43.770       65.789       46.438        0.226        0.008       64.627        3.136        0.002      335.482        6.146      860.847
02/25/2014  01:07:00      -42.927      -14.986       -3.655       11.945        8.984        6.242      142.675       80.706       38.966        0.117        0.013       45.468        4.302        0.009      335.588        6.322      860.857
02/25/2014  01:08:00      -22.183      -16.087       -7.674        8.036        7.067        5.756       64.585       49.940       33.132        0.048        0.007       27.402        3.341        0.015      335.832        6.728      860.858
02/25/2014  01:09:00      -57.006      -19.307       -9.471       18.205        6.551        6.464      331.423       42.914       41.784        0.206        0.021       60.187        5.185        0.007      335.715        6.535      860.872
02/25/2014  01:10:00      -75.815      -23.106      -14.852        9.604       12.068        7.935       92.231      145.627       62.958        0.340        0.015       79.258        2.787        0.001      335.563        6.280      860.883
02/25/2014  01:11:00      -61.060       -8.103      -10.495       14.833        6.760        8.522      220.023       45.700       72.618        0.212        0.017       61.595        7.964        0.017      335.567        6.287      860.881
02/25/2014  01:12:00      -55.965        0.002       -8.875        7.535        5.962        7.613       56.772       35.544       57.964        0.168        0.008       55.965        4.186        0.006      335.649        6.425      860.893
02/25/2014  01:13:00      -43.576       -3.877       -8.594        7.597        9.798        5.556       57.720       96.008       30.870        0.109        0.009       43.749        4.844        0.012      335.765        6.619      860.898
02/25/2014  01:14:00      -50.024      -19.422       -9.502        6.396        8.876        6.693       40.909       78.776       44.791        0.157        0.008       53.662        4.891        0.008      335.795        6.669      860.909
02/25/2014  01:15:00      -76.242      -31.839      -10.409       16.148       10.454        7.813      260.749      109.289       61.038        0.368        0.022       82.623        6.187        0.006      335.647        6.420      860.929
02/25/2014  01:16:00      -94.010      -20.286       -7.203       13.162       13.176        8.665      173.242      173.607       75.077        0.486        0.021       96.174        4.754        0.002      335.616        6.369      860.939
02/25/2014  01:17:00      -81.993       -4.689       -6.744       10.226        6.688        7.217      104.566       44.727       52.090        0.350        0.010       82.127        3.202        0.002      335.676        6.469      860.935
02/25/2014  01:18:00      -53.955      -12.184       -1.313       24.245       12.953        8.737      587.799      167.778       76.339        0.195        0.042       55.314       10.449        0.036      335.705        6.517      860.929
02/25/2014  01:19:00      -86.450      -21.082       -4.742       21.061       23.349       14.172      443.566      545.175      200.852        0.456        0.059       88.983       12.922        0.021      335.589        6.324      860.935
02/25/2014  01:20:00      -98.170       -8.767      -12.596       24.984       14.503       13.880      624.205      210.335      192.664        0.545        0.051       98.560       10.009        0.010      335.442        6.078      860.933
02/25/2014  01:21:00      -73.408      -11.676      -12.484       14.156       20.241        9.913      200.387      409.716       98.264        0.319        0.035       74.331        5.017        0.005      335.467        6.120      860.931
02/25/2014  01:22:00      -62.974      -14.834       -7.586       22.222       15.147       12.067      493.824      229.439      145.621        0.256        0.043       64.698        9.537        0.022      335.468        6.120      860.943
02/25/2014  01:23:00      -88.696      -11.483       -7.912       15.643       15.498       10.477      244.714      240.182      109.767        0.433        0.030       89.436        9.408        0.011      335.397        6.004      860.943
02/25/2014  01:24:00      -81.678       -8.406       -7.072       18.051       11.798        9.293      325.856      139.189       86.363        0.367        0.028       82.110        9.155        0.012      335.442        6.079      860.938
02/25/2014  01:25:00     -120.589       -6.735      -12.273       15.772        9.164        9.717      248.743       83.988       94.428        0.758        0.021      120.777        9.202        0.006      335.603        6.348      860.948
02/25/2014  01:26:00     -108.094       -9.987      -12.303       22.460       12.499       12.161      504.442      156.237      147.880        0.637        0.040      108.554        9.771        0.008      335.575        6.301      860.954
02/25/2014  01:27:00      -84.738      -11.998       -6.085       24.763       10.636       10.947      613.187      113.129      119.835        0.410        0.042       85.583       10.846        0.016      335.635        6.401      860.951
02/25/2014  01:28:00      -74.681      -14.007       -6.108       17.638       12.463        9.977      311.084      155.329       99.536        0.319        0.028       75.983        9.833        0.017      335.677        6.469      860.947
02/25/2014  01:29:00      -85.420      -22.015       -3.965       20.454       20.267       12.443      418.385      410.764      154.838        0.439        0.049       88.212        9.158        0.011      335.556        6.268      860.947
02/25/2014  01:30:00     -102.317      -21.643      -10.763       17.758       15.151       12.836      315.343      229.552      164.757        0.588        0.035      104.581        8.455        0.007      335.399        6.006      860.949
02/25/2014  01:31:00      -86.934       -5.036       -8.078       30.619       17.248       15.403      937.507      297.503      237.253        0.456        0.074       87.080       10.065        0.013      335.415        6.033      860.933
02/25/2014  01:32:00      -92.303        0.305       -8.462       23.130       12.260       11.195      534.976      150.314      125.322        0.470        0.041       92.303        8.951        0.009      335.515        6.201      860.927
02/25/2014  01:33:00     -104.321        4.858      -11.025       14.935       15.329       11.543      223.049      234.987      133.235        0.581        0.030      104.434        7.018        0.005      335.455        6.099      860.917
02/25/2014  01:34:00     -107.657      -18.940      -15.877       18.367       22.896       14.013      337.344      524.237      196.364        0.663        0.053      109.311       11.171        0.010      335.226        5.719      860.916
02/25/2014  01:35:00      -49.341       -1.748       -5.710       32.934       26.013       17.651     1084.677      676.666      311.556        0.227        0.104       49.372       15.689        0.101      335.114        5.535      860.918
02/25/2014  01:36:00      -55.385        0.303      -11.473       16.813       18.949        9.787      282.671      359.078       95.781        0.197        0.037       55.386        8.332        0.023      335.245        5.751      860.922
02/25/2014  01:37:00      -54.627      -27.135      -13.382       15.711       14.032        9.209      246.843      196.910       84.804        0.221        0.026       60.996        7.605        0.016      335.273        5.794      860.915
02/25/2014  01:38:00      -80.265      -21.386      -10.929       15.357       19.407       11.880      235.824      376.616      141.125        0.389        0.038       83.065       10.096        0.015      335.191        5.662      860.907
02/25/2014  01:39:00      -53.060      -45.850       -7.811       26.795       22.284       17.609      717.956      496.570      310.074        0.325        0.076       70.126       11.295        0.026      335.210        5.693      860.909
02/25/2014  01:40:00      -81.401      -12.781      -12.163       25.731       23.050        9.187      662.084      531.292       84.408        0.411        0.064       82.398        7.462        0.008      335.279        5.806      860.910
02/25/2014  01:41:00      -71.703      -16.027      -14.006       22.089       27.566       12.554      487.920      759.911      157.602        0.350        0.070       73.473        6.837        0.009      335.319        5.872      860.896
02/25/2014  01:42:00      -92.124      -18.184      -10.699       18.072       17.894       16.810      326.612      320.196      282.570        0.493        0.046       93.901       10.605        0.013      335.283        5.813      860.885
02/25/2014  01:43:00     -123.004      -17.196      -16.921       28.870       24.089       16.940      833.478      580.286      286.975        0.871        0.085      124.200       14.134        0.013      335.177        5.639      860.889
02/25/2014  01:44:00     -103.475      -19.608       -8.936       27.720       22.209       20.051      768.389      493.262      402.043        0.642        0.083      105.316       16.387        0.024      335.066        5.454      860.882
02/25/2014  01:45:00     -107.610      -16.336       -8.772       33.900       26.445       19.523     1149.210      699.342      381.132        0.708        0.111      108.843       18.523        0.029      335.009        5.360      860.879
02/25/2014  01:46:00     -102.188      -13.394      -12.228       36.004       32.048       18.165     1296.291     1027.058      329.963        0.671        0.133      103.063       13.033        0.016      335.088        5.490      860.887
02/25/2014  01:47:00      -49.834      -11.626       -0.047       47.183       39.582       21.684     2226.273     1566.710      470.213        0.344        0.213       51.172       24.594        0.231      335.170        5.626      860.879
02/25/2014  01:48:00      -87.493        9.137      -10.736       48.325       40.238       29.988     2335.325     1619.081      899.278        0.635        0.243       87.969       22.316        0.064      335.175        5.634      860.878
02/25/2014  01:49:00     -105.310       -5.170      -11.340       47.834       41.630       19.846     2288.062     1733.059      393.866        0.783        0.221      105.437       20.085        0.036      335.091        5.496      860.882
02/25/2014  01:50:00      -99.737       -3.238       -1.862       41.206       33.857       25.209     1697.949     1146.263      635.490        0.672        0.174       99.790       23.886        0.057      335.128        5.557      860.880
02/25/2014  01:51:00     -139.247        3.136       -7.642       40.973       37.557       28.341     1678.792     1410.527      803.228        1.167        0.195      139.283       24.166        0.030      335.081        5.479      860.878
02/25/2014  01:52:00     -166.867        3.872      -13.216       28.333       28.135       20.586      802.786      791.565      423.777        1.503        0.101      166.912       11.110        0.004      335.144        5.583      860.882
02/25/2014  01:53:00     -154.947      -19.703      -12.533       40.788       31.488       23.832     1663.644      991.504      567.961        1.389        0.161      156.195       22.289        0.020      335.191        5.659      860.884
02/25/2014  01:54:00     -145.099      -38.622      -16.768       22.341       30.189       14.230      499.139      911.399      202.479        1.222        0.081      150.151        9.591        0.004      335.300        5.841      860.879
02/25/2014  01:55:00     -116.293      -49.517       -1.423       26.514       33.295       17.500      703.008     1108.526      306.250        0.905        0.106      126.396       15.853        0.016      335.371        5.958      860.896
02/25/2014  01:56:00     -140.764      -56.998      -15.793       16.207       16.382       12.246      262.653      268.373      149.960        1.200        0.034      151.866        6.187        0.002      335.491        6.160      860.901
02/25/2014  01:57:00     -145.128      -50.437       -9.229       20.831       17.792       15.770      433.911      316.562      248.695        1.234        0.050      153.642       12.679        0.007      335.524        6.216      860.907
02/25/2014  01:58:00     -135.406      -33.362       -3.567       28.643       20.859       16.667      820.448      435.104      277.785        1.050        0.077      139.455       12.850        0.008      335.553        6.263      860.919
02/25/2014  01:59:00     -114.292      -22.639       -1.727       25.907       22.757       17.748      671.162      517.866      314.981        0.754        0.075      116.512       14.408        0.015      335.629        6.390      860.910
02/25/2014  02:00:00     -133.694      -29.379      -13.014       15.805       15.968       14.618      249.794      254.985      213.684        0.981        0.036      136.884        9.799        0.005      335.643        6.415      860.903
02/25/2014  02:01:00     -133.134      -26.383       -8.828       21.811       20.053       13.181      475.702      402.125      173.738        0.977        0.053      135.723       11.295        0.007      335.527        6.219      860.920
02/25/2014  02:02:00     -115.679      -14.590       -7.378       34.898       21.621       18.331     1217.864      467.487      336.024        0.783        0.101      116.595       18.320        0.025      335.461        6.109      860.918
02/25/2014  02:03:00     -136.453      -13.380       -9.799       35.434       25.490       17.072     1255.603      649.746      291.467        1.055        0.110      137.107       16.198        0.014      335.381        5.976      860.915
02/25/2014  02:04:00     -113.929      -31.678       -0.167       41.683       27.120       22.035     1737.463      735.506      485.544        0.847        0.148      118.251       24.261        0.042      335.337        5.904      860.928
02/25/2014  02:05:00     -100.098      -22.233       -4.740       44.328       26.073       20.472     1964.972      679.784      419.106        0.680        0.153      102.537       18.592        0.033      335.296        5.833      860.922
02/25/2014  02:06:00     -119.605      -21.292       -2.495       47.810       33.264       23.419     2285.810     1106.472      548.456        0.935        0.197      121.486       26.742        0.048      335.304        5.848      860.919
02/25/2014  02:07:00     -116.724      -61.990       -5.766       23.611       28.618       17.207      557.468      818.983      296.081        0.959        0.084      132.163       12.579        0.009      335.318        5.871      860.937
02/25/2014  02:08:00     -136.026      -61.736       -3.414       30.898       22.361       15.641      954.667      500.000      244.646        1.201        0.085      149.380       14.333        0.009      335.314        5.865      860.940
02/25/2014  02:09:00     -124.626      -27.126        1.377       49.730       37.988       26.432     2473.042     1443.070      698.641        1.044        0.231      127.544       29.257        0.053      335.292        5.828      860.937
02/25/2014  02:10:00      -97.729      -13.088       -0.998       43.617       32.339       21.004     1902.405     1045.821      441.161        0.656        0.169       98.602       19.428        0.039      335.252        5.762      860.939
02/25/2014  02:11:00     -122.484      -34.572        5.888       35.730       26.028       19.326     1276.603      677.445      373.482        0.928        0.116      127.269       16.572        0.017      335.347        5.921      860.952
02/25/2014  02:12:00      -82.422      -33.858        0.969       39.541       24.767       17.011     1563.490      613.390      289.379        0.520        0.123       89.105       14.688        0.027      335.353        5.927      860.954
02/25/2014  02:13:00      -38.799      -29.553        4.331       37.533       30.545       17.496     1408.712      932.980      306.099        0.252        0.132       48.773       18.915        0.150      335.229        5.723      860.956
02/25/2014  02:14:00      -63.585      -62.888       -0.504       48.095       34.349       24.031     2313.139     1179.840      577.487        0.603        0.204       89.431       20.175        0.051      335.286        5.817      860.961
02/25/2014  02:15:00     -102.273      -51.630        0.724       35.401       24.903       18.636     1253.224      620.147      347.288        0.767        0.111      114.567       18.497        0.026      335.226        5.717      860.958
02/25/2014  02:16:00     -120.094      -48.308       -2.809       24.977       26.419       16.952      623.831      697.940      287.381        0.919        0.080      129.446       15.592        0.015      335.197        5.671      860.945
02/25/2014  02:17:00      -83.626      -46.889        6.678       46.584       28.561       20.550     2170.043      815.709      422.287        0.632        0.170       95.874       20.843        0.047      335.326        5.885      860.947
02/25/2014  02:18:00      -64.650      -52.203        7.869       51.024       29.085       21.844     2603.499      845.959      477.182        0.545        0.196       83.095       23.421        0.079      335.355        5.934      860.940
02/25/2014  02:19:00      -87.655      -49.257        3.421       38.727       22.468       19.459     1499.819      504.797      378.645        0.625        0.119      100.546       20.390        0.041      335.324        5.880      860.930
02/25/2014  02:20:00      -84.163      -33.671       -5.936       30.256       18.592       16.321      915.448      345.673      266.385        0.489        0.076       90.649       16.078        0.031      335.397        6.003      860.922
02/25/2014  02:21:00      -82.140      -29.128        5.540       38.492       22.843       22.855     1481.597      521.783      522.333        0.508        0.126       87.152       24.204        0.077      335.337        5.903      860.917
02/25/2014  02:22:00      -80.500      -46.122        4.803       39.200       25.560       18.886     1536.634      653.290      356.697        0.559        0.127       92.776       13.283        0.020      335.231        5.725      860.915
02/25/2014  02:23:00     -108.638      -29.448       -3.971       33.876       17.838       17.372     1147.613      318.178      301.776        0.723        0.088      112.558       19.108        0.029      335.155        5.602      860.915
02/25/2014  02:24:00      -84.671      -33.451        2.410       36.029       20.402       17.348     1298.092      416.236      300.969        0.515        0.101       91.039       18.712        0.042      335.142        5.578      860.906
02/25/2014  02:25:00      -91.857      -58.706        4.595       42.509       34.386       20.266     1807.001     1182.424      410.702        0.765        0.170      109.014       17.388        0.025      335.338        5.904      860.900
02/25/2014  02:26:00      -91.772      -46.720        7.026       32.425       33.005       18.905     1051.411     1089.313      357.390        0.658        0.125      102.980       17.144        0.028      335.355        5.932      860.888
02/25/2014  02:27:00     -112.821      -49.696       -3.116       24.815       18.224       14.216      615.784      332.119      202.098        0.818        0.058      123.282       13.279        0.012      335.276        5.801      860.872
02/25/2014  02:28:00      -94.327      -40.096        7.592       42.475       36.026       22.377     1804.163     1297.888      500.721        0.708        0.180      102.496       21.789        0.045      335.274        5.798      860.868
02/25/2014  02:29:00      -71.630      -44.544        8.250       52.959       32.449       19.241     2804.603     1052.927      370.222        0.570        0.211       84.351       25.595        0.092      335.296        5.834      860.861
02/25/2014  02:30:00      -98.404      -38.908        1.727       43.125       29.973       21.221     1859.764      898.387      450.313        0.720        0.160      105.817       21.567        0.042      335.253        5.763      860.866
02/25/2014  02:31:00     -108.820      -53.721       -0.054       39.671       27.416       17.516     1573.808      751.652      306.803        0.868        0.132      121.358       16.948        0.020      335.269        5.789      860.877
02/25/2014  02:32:00     -107.918      -48.081        0.487       26.842       20.467       16.275      720.482      418.886      264.883        0.768        0.070      118.144       15.657        0.018      335.254        5.764      860.877
02/25/2014  02:33:00     -112.101      -46.850       -0.448       29.114       19.487       13.836      847.635      379.746      191.446        0.809        0.071      121.497       12.582        0.011      335.142        5.580      860.874
02/25/2014  02:34:00     -122.939      -44.369       -1.944       22.711       18.518       16.333      515.787      342.901      266.772        0.911        0.056      130.700       12.734        0.009      335.194        5.664      860.877
02/25/2014  02:35:00     -109.340      -42.972       -6.458       24.042       21.905       13.125      578.035      479.809      172.272        0.754        0.062      117.481       13.598        0.013      335.164        5.616      860.880
02/25/2014  02:36:00      -80.808      -51.864        1.023       37.419       25.156       19.439     1400.147      632.848      377.878        0.582        0.121       96.020       19.883        0.043      335.167        5.621      860.871
02/25/2014  02:37:00      -30.503      -43.804        1.470       24.055       19.479       15.020      578.633      379.442      225.597        0.202        0.059       53.378       13.239        0.062      335.223        5.714      860.866
02/25/2014  02:38:00      -61.619      -57.246       -4.336       23.541       16.517       12.119      554.176      272.823      146.870        0.403        0.049       84.107        6.536        0.006      335.343        5.913      860.856
02/25/2014  02:39:00      -65.360      -58.612        1.352       27.760       28.122       18.004      770.613      790.842      324.160        0.480        0.094       87.791       18.486        0.044      335.331        5.893      860.851
02/25/2014  02:40:00      -36.009      -22.890        9.227       27.501       20.394       16.088      756.297      415.912      258.832        0.167        0.072       42.668       15.604        0.134      335.080        5.476      860.853
02/25/2014  02:41:00      -56.705      -44.370       -1.719       29.211       23.836       17.067      853.281      568.153      291.295        0.345        0.086       72.001       13.224        0.034      335.133        5.564      860.863
02/25/2014  02:42:00      -34.637      -41.209        2.013       27.006       26.938       14.513      729.309      725.643      210.621        0.228        0.083       53.833       12.775        0.056      335.040        5.410      860.848
02/25/2014  02:43:00      -55.815      -79.387        9.220       29.745       38.546       21.585      884.752     1485.789      465.893        0.617        0.142       97.044       18.334        0.036      335.184        5.650      860.834
02/25/2014  02:44:00      -40.632      -64.697       10.269       43.800       37.938       23.417     1918.461     1439.259      548.336        0.492        0.195       76.398       25.051        0.108      335.192        5.662      860.823
02/25/2014  02:45:00      -54.855      -55.696        1.828       30.897       39.260       21.539      954.643     1541.360      463.917        0.454        0.148       78.174       20.547        0.069      335.102        5.512      860.809
02/25/2014  02:46:00      -97.787      -62.546       -7.422       32.308       35.559       19.059     1043.834     1264.468      363.241        0.810        0.134      116.079       11.146        0.009      335.159        5.607      860.792
02/25/2014  02:47:00      -55.088      -48.565        4.077       34.679       26.943       17.692     1202.613      725.898      313.000        0.383        0.112       73.439       15.420        0.044      335.109        5.524      860.787
02/25/2014  02:48:00      -57.252      -35.402        3.315       36.098       23.640       13.082     1303.035      558.855      171.136        0.329        0.102       67.313       16.623        0.061      335.088        5.491      860.786
02/25/2014  02:49:00      -75.196      -31.254       -0.725       28.046       14.995       12.893      786.592      224.847      166.241        0.390        0.059       81.432        4.401        0.003      334.996        5.337      860.778
02/25/2014  02:50:00      -68.531      -42.289       -0.219       32.335       21.678       13.123     1045.575      469.931      172.215        0.409        0.084       80.528        7.598        0.009      334.933        5.232      860.770
02/25/2014  02:51:00      -60.618      -48.998        0.964       28.733       22.380       18.630      825.597      500.887      347.079        0.387        0.084       77.944       11.027        0.020      334.916        5.205      860.770
02/25/2014  02:52:00      -63.380      -48.837        1.426       35.721       22.206       19.597     1275.987      493.100      384.051        0.428        0.108       80.013       18.646        0.054      334.853        5.100      860.768
02/25/2014  02:53:00      -68.326      -36.169        4.315       37.069       19.826       15.760     1374.093      393.088      248.372        0.401        0.101       77.309       17.795        0.053      334.895        5.170      860.756
02/25/2014  02:54:00      -80.864      -54.858       -2.864       20.861       10.762       13.118      435.162      115.814      172.071        0.514        0.036       97.716        7.933        0.007      334.954        5.268      860.736
02/25/2014  02:55:00      -63.557      -32.216        1.076       28.202       18.780       12.143      795.346      352.703      147.455        0.319        0.065       71.256       12.665        0.032      334.930        5.227      860.727
02/25/2014  02:56:00      -83.983      -18.818       -3.772       17.267       26.022       13.212      298.135      677.132      174.547        0.429        0.057       86.066        9.818        0.013      334.861        5.114      860.719
02/25/2014  02:57:00      -92.583       -4.942       -0.893       33.815       18.992       18.119     1143.482      360.708      328.312        0.521        0.092       92.715       18.412        0.039      334.762        4.948      860.715
02/25/2014  02:58:00      -96.533       -7.219       -4.531       25.885       20.952       15.837      670.042      439.004      250.826        0.538        0.068       96.802       11.442        0.014      334.739        4.910      860.717
02/25/2014  02:59:00      -98.316       -2.864      -10.978       27.208       18.935       15.997      740.271      358.520      255.893        0.557        0.068       98.358       13.943        0.020      334.595        4.670      860.720
02/25/2014  03:00:00      -84.021       -3.664       -5.018       36.804       21.372       19.279     1354.517      456.761      371.688        0.464        0.109       84.101       18.955        0.051      334.563        4.618      860.725
02/25/2014  03:01:00      -76.978       -1.716       -1.942       35.354       24.399       17.417     1249.888      595.303      303.336        0.404        0.107       76.997       17.099        0.049      334.548        4.591      860.728
02/25/2014  03:02:00      -97.869        1.072        0.919       31.671       18.765       16.796     1003.062      352.117      282.110        0.561        0.082       97.875       17.837        0.033      334.573        4.634      860.744
02/25/2014  03:03:00      -77.865      -25.311       -0.846       25.650       18.799       14.769      657.902      353.398      218.130        0.397        0.061       81.876       13.776        0.028      334.454        4.437      860.744
02/25/2014  03:04:00      -59.755      -14.329       -5.113       24.199       22.922       15.822      585.583      525.436      250.322        0.258        0.068       61.449       11.428        0.035      334.509        4.528      860.738
02/25/2014  03:05:00      -58.700      -25.289       -2.731       22.202       21.330       14.156      492.937      454.985      200.383        0.262        0.057       63.915       10.610        0.028      334.516        4.541      860.734
02/25/2014  03:06:00      -70.240      -18.901        1.967       28.284       32.719       21.572      800.008     1070.506      465.365        0.381        0.117       72.739       21.810        0.090      334.482        4.484      860.731
02/25/2014  03:07:00      -92.603      -30.294       -7.098       23.698       24.144       19.375      561.576      582.930      375.388        0.553        0.076       97.433       14.368        0.022      334.392        4.334      860.738
02/25/2014  03:08:00      -67.473      -16.226       -1.913       23.974       26.709       14.910      574.761      713.368      222.297        0.316        0.076       69.397       12.090        0.030      334.396        4.341      860.738
02/25/2014  03:09:00      -79.685      -25.436      -13.196       22.379       17.226       15.076      500.812      296.724      227.271        0.410        0.051       83.647        7.875        0.009      334.397        4.344      860.730
02/25/2014  03:10:00      -51.376      -24.407      -13.254       25.314       19.295       18.695      640.794      372.308      349.505        0.239        0.068       56.878       17.673        0.097      334.375        4.306      860.721
02/25/2014  03:11:00      -27.814      -31.519       -8.048       22.403       17.639       16.551      501.905      311.134      273.948        0.146        0.054       42.037       10.449        0.062      334.375        4.307      860.726
02/25/2014  03:12:00      -35.873      -10.066       -5.538       12.134       10.761       10.967      147.243      115.799      120.267        0.090        0.019       37.259        4.740        0.016      334.282        4.153      860.729
02/25/2014  03:13:00      -28.943      -12.295       -2.695       12.224        8.621        7.096      149.435       74.329       50.357        0.064        0.014       31.447        6.096        0.038      334.455        4.441      860.732
02/25/2014  03:14:00      -16.973       -3.315        1.274       15.382        7.149        9.102      236.594       51.112       82.845        0.034        0.019       17.294       10.763        0.387      334.676        4.806      860.739
02/25/2014  03:15:00       -4.388        1.288        5.319        8.312        6.139        6.674       69.085       37.687       44.543        0.010        0.008        4.573        5.820        1.619      334.538        4.577      860.742
02/25/2014  03:16:00      -18.293      -13.407        0.931        8.916       10.295       10.271       79.500      105.982      105.498        0.040        0.015       22.680        3.747        0.027      334.680        4.812      860.735
02/25/2014  03:17:00      -37.499       -7.143       -2.565       15.591        9.993        9.925      243.071       99.862       98.510        0.095        0.022       38.173        3.907        0.010      334.467        4.458      860.735
02/25/2014  03:18:00      -60.926       -4.705       -7.316        7.312        7.665        7.980       53.459       58.749       63.687        0.198        0.009       61.107        3.791        0.004      334.328        4.228      860.731
02/25/2014  03:19:00      -66.244       -6.997      -10.136       11.220        8.619        7.525      125.886       74.283       56.629        0.240        0.013       66.612        3.380        0.003      334.368        4.294      860.736
02/25/2014  03:20:00      -69.847      -11.262      -12.853       10.253       12.257       10.118      105.126      150.236      102.381        0.276        0.018       70.749        5.652        0.006      334.365        4.290      860.731
02/25/2014  03:21:00      -71.144      -14.824      -10.707       17.095       14.473       10.800      292.247      209.473      116.630        0.301        0.031       72.672        6.239        0.007      334.282        4.153      860.723
02/25/2014  03:22:00      -77.563       -3.859       -7.137       24.331       13.828       12.391      592.009      191.203      153.543        0.351        0.047       77.659        7.719        0.010      334.302        4.184      860.718
02/25/2014  03:23:00      -82.401       -6.617       -8.778       13.683       13.290       10.753      187.223      176.616      115.618        0.369        0.024       82.666        6.730        0.007      334.249        4.097      860.716
02/25/2014  03:24:00      -58.952      -27.198       -5.088       23.266       12.373        7.517      541.298      153.094       56.510        0.250        0.038       64.923        3.710        0.003      334.264        4.123      860.721
02/25/2014  03:25:00      -46.616      -27.646       -5.069       15.570       12.188        8.164      242.414      148.543       66.654        0.171        0.023       54.197        6.716        0.015      334.397        4.344      860.731
02/25/2014  03:26:00      -84.623      -42.162       -5.307       16.372       14.326        9.265      268.052      205.242       85.834        0.476        0.028       94.544        5.673        0.004      334.402        4.352      860.734
02/25/2014  03:27:00      -73.490      -33.038        5.412       27.476       18.907       15.567      754.905      357.487      242.347        0.394        0.068       80.575       13.725        0.029      334.365        4.288      860.745
02/25/2014  03:28:00      -52.048      -34.436        3.850       30.136       15.536       13.359      908.183      241.372      178.464        0.262        0.066       62.408       11.931        0.037      334.326        4.225      860.753
02/25/2014  03:29:00      -46.075      -28.421        1.938       27.103       19.945       16.024      734.571      397.813      256.765        0.216        0.069       54.135       11.832        0.048      334.436        4.407      860.772
02/25/2014  03:30:00      -51.384      -28.225        3.020       36.971       20.425       17.657     1366.849      417.174      311.773        0.277        0.105       58.626       18.106        0.095      334.405        4.355      860.781
02/25/2014  03:31:00      -78.483      -72.856        2.844       55.835       47.533       27.818     3117.545     2259.374      773.863        0.881        0.308      107.086       29.481        0.076      334.654        4.770      860.781
02/25/2014  03:32:00      -97.111      -54.687       -0.296       44.008       39.661       23.302     1936.684     1573.005      542.979        0.824        0.203      111.451       22.998        0.043      334.526        4.557      860.777
02/25/2014  03:33:00      -95.099      -50.185        3.909       30.920       25.457       19.295      956.064      648.039      372.285        0.678        0.099      107.528       16.482        0.023      334.462        4.450      860.772
02/25/2014  03:34:00      -89.767      -29.781        0.684       39.817       22.299       17.180     1585.407      497.265      295.167        0.566        0.119       94.579       16.459        0.030      334.474        4.470      860.768
02/25/2014  03:35:00      -86.900       -0.662        6.309       30.313       23.888       18.889      918.902      570.641      356.778        0.472        0.092       86.902       19.202        0.049      334.323        4.221      860.771
02/25/2014  03:36:00      -97.405      -33.541        1.481       25.352       21.761       19.334      642.740      473.525      373.787        0.605        0.075      103.018       15.034        0.021      334.255        4.108      860.773
02/25/2014  03:37:00     -108.670      -14.751       -3.209       46.022       28.996       25.042     2118.028      840.746      627.082        0.781        0.179      109.667       25.865        0.056      334.184        3.989      860.755
02/25/2014  03:38:00     -114.723      -20.467       -1.281       46.173       25.831       24.960     2131.951      667.236      623.010        0.850        0.171      116.535       27.270        0.055      334.206        4.026      860.738
02/25/2014  03:39:00      -89.720      -14.105       -1.228       43.144       30.138       19.576     1861.383      908.272      383.206        0.570        0.158       90.822       14.571        0.026      334.241        4.084      860.733
02/25/2014  03:40:00     -103.787      -30.965       -2.483       37.382       27.844       18.474     1397.394      775.294      341.280        0.712        0.126      108.308       14.882        0.019      334.239        4.082      860.723
02/25/2014  03:41:00      -95.216      -27.041       -4.900       39.462       46.110       20.457     1557.273     2126.177      418.478        0.696        0.205       98.982       15.751        0.025      334.253        4.105      860.706
02/25/2014  03:42:00      -73.972      -27.248       -4.099       36.398       32.066       20.442     1324.824     1028.232      417.867        0.450        0.139       78.831       17.489        0.049      334.182        3.986      860.701
02/25/2014  03:43:00      -92.043        4.326       -7.504       59.979       43.041       20.605     3597.438     1852.489      424.550        0.721        0.294       92.145       16.993        0.034      334.224        4.056      860.701
02/25/2014  03:44:00      -96.902      -35.464       -4.896       40.101       33.587       28.163     1608.107     1128.092      793.134        0.710        0.176      103.187       23.047        0.050      334.198        4.012      860.715
02/25/2014  03:45:00      -99.481      -25.025        0.498       39.153       32.985       24.500     1532.982     1088.012      600.227        0.687        0.161      102.580       19.151        0.035      334.205        4.024      860.733
02/25/2014  03:46:00      -47.320      -15.546      -10.329       53.822       46.832       27.728     2896.817     2193.213      768.838        0.422        0.293       49.808       24.942        0.251      334.219        4.047      860.729
02/25/2014  03:47:00      -49.834       -1.051      -15.596       31.123       15.809       13.412      968.644      249.923      179.878        0.206        0.070       49.845       11.515        0.053      334.162        3.952      860.726
02/25/2014  03:48:00      -66.656      -27.375      -11.648       24.339       18.408       17.570      592.396      338.845      308.715        0.328        0.062       72.058        9.878        0.019      334.153        3.937      860.714
02/25/2014  03:49:00      -53.937      -57.272       -7.914       47.487       36.661       16.677     2255.011     1344.049      278.107        0.506        0.194       78.672       15.247        0.038      334.192        4.001      860.717
02/25/2014  03:50:00      -65.476      -35.281        0.007       41.608       22.006       18.971     1731.236      484.271      359.914        0.405        0.129       74.376       12.914        0.030      334.051        3.769      860.723
02/25/2014  03:51:00      -56.246      -36.374       -0.717       58.458       22.155       21.510     3417.362      490.827      462.693        0.443        0.219       66.983       18.766        0.078      334.147        3.929      860.715
02/25/2014  03:52:00     -108.824      -64.508      -16.014       24.272       33.474       18.661      589.120     1120.514      348.247        0.916        0.103      126.507        9.218        0.005      334.043        3.755      860.721
02/25/2014  03:53:00     -118.585      -45.118      -11.631       21.597       19.602       12.198      466.415      384.227      148.797        0.862        0.050      126.878        9.493        0.006      334.043        3.756      860.722
02/25/2014  03:54:00      -90.015      -24.821       -5.797       30.185       16.950       13.535      911.121      287.297      183.187        0.507        0.069       93.375       15.006        0.026      334.080        3.817      860.734
02/25/2014  03:55:00      -95.147      -30.296       -1.922       29.580       21.461       12.609      874.967      460.594      158.997        0.573        0.075       99.854       14.839        0.022      334.098        3.848      860.737
02/25/2014  03:56:00      -92.439      -15.703       -5.272       17.321       21.633       11.263      300.011      467.984      126.866        0.486        0.045       93.764        7.303        0.006      334.196        4.010      860.732
02/25/2014  03:57:00      -92.419       -6.040       -7.592       22.481       26.313       12.776      505.394      692.370      163.228        0.500        0.068       92.616        7.560        0.007      334.283        4.154      860.732
02/25/2014  03:58:00      -98.297      -23.475       -7.978       19.062       16.490       10.879      363.348      271.906      118.359        0.552        0.038      101.061        8.998        0.008      334.344        4.255      860.731
02/25/2014  03:59:00     -121.087        0.407       -7.166       32.413       27.375       14.266     1050.613      749.403      203.528        0.836        0.100      121.088       12.571        0.011      334.419        4.380      860.716
02/25/2014  04:00:00     -148.983       -3.414      -14.016       26.538       26.630       18.029      704.249      709.147      325.027        1.207        0.087      149.022       14.777        0.010      334.419        4.380      860.709
02/25/2014  04:01:00     -129.627      -10.386      -11.488       29.120       23.485       18.681      848.001      551.548      348.984        0.940        0.087      130.043       17.644        0.018      334.383        4.320      860.709
02/25/2014  04:02:00     -111.737      -22.349       -9.435       54.627       22.367       20.141     2984.131      500.271      405.679        0.848        0.195      113.950       20.617        0.033      334.398        4.344      860.700
02/25/2014  04:03:00     -114.543      -27.782       -5.852       39.089       30.839       20.461     1527.929      951.058      418.654        0.841        0.145      117.864       20.331        0.030      334.343        4.252      860.705
02/25/2014  04:04:00      -92.556      -29.654       -0.885       36.772       32.558       22.254     1352.144     1060.027      495.237        0.618        0.145       97.190       19.062        0.038      334.341        4.251      860.719
02/25/2014  04:05:00     -114.564      -25.599       -6.104       42.666       32.293       20.770     1820.345     1042.828      431.400        0.856        0.165      117.389       20.712        0.031      334.299        4.181      860.724
02/25/2014  04:06:00     -101.319       -6.533       -2.560       38.742       31.804       18.882     1500.946     1011.524      356.524        0.659        0.143      101.529       17.549        0.030      334.219        4.048      860.734
02/25/2014  04:07:00      -94.852      -20.109       -2.709       41.703       29.660       21.517     1739.133      879.692      462.978        0.624        0.154       96.960       15.423        0.025      334.256        4.109      860.746
02/25/2014  04:08:00      -88.975       -9.072        3.588       45.131       22.834       20.681     2036.772      521.370      427.702        0.550        0.149       89.437       20.157        0.051      334.258        4.111      860.761
02/25/2014  04:09:00     -124.524      -39.062       -7.201       25.440       19.065       12.366      647.217      363.486      152.907        0.912        0.058      130.507       10.957        0.007      334.193        4.004      860.773
02/25/2014  04:10:00      -90.044      -41.582        4.994       37.305       24.680       17.971     1391.688      609.123      322.941        0.609        0.116       99.182       16.376        0.027      334.308        4.196      860.774
02/25/2014  04:11:00      -75.197      -51.917        2.634       53.544       34.336       22.893     2867.010     1178.971      524.087        0.646        0.229       91.378       23.541        0.066      334.327        4.226      860.762
02/25/2014  04:12:00      -69.601      -57.250        5.183       36.185       31.353       21.689     1309.356      982.996      470.403        0.546        0.138       90.121       19.987        0.049      334.328        4.230      860.755
02/25/2014  04:13:00      -76.520      -52.986        0.455       44.309       29.700       23.302     1963.253      882.070      542.970        0.603        0.169       93.075       22.705        0.060      334.326        4.227      860.755
02/25/2014  04:14:00      -68.058      -34.918        0.896       35.065       21.690       14.835     1229.534      470.444      220.063        0.389        0.096       76.493       15.199        0.039      334.145        3.925      860.754
02/25/2014  04:15:00     -100.953      -56.414       -6.864       14.730       15.401        8.598      216.984      237.178       73.925        0.697        0.026      115.646        7.729        0.004      334.240        4.083      860.754
02/25/2014  04:16:00     -101.208      -51.832       -7.495       15.755       17.781        9.963      248.219      316.179       99.271        0.682        0.033      113.708        4.931        0.002      334.224        4.057      860.748
02/25/2014  04:17:00      -77.392      -26.566       -0.846       24.470       21.418       13.194      598.802      458.739      174.079        0.396        0.062       81.825        9.777        0.014      334.290        4.166      860.743
02/25/2014  04:18:00      -82.597      -21.125        0.916       22.649       20.455       12.919      512.959      418.420      166.898        0.418        0.055       85.256        7.460        0.008      334.280        4.148      860.745
02/25/2014  04:19:00      -86.944      -18.225       -1.721       28.188       19.731       15.021      794.573      389.329      225.635        0.465        0.070       88.834       14.033        0.025      334.217        4.044      860.749
02/25/2014  04:20:00      -89.028      -32.231        6.387       29.266       15.978       14.876      856.516      255.284      221.288        0.517        0.067       94.683       16.357        0.030      334.261        4.117      860.754
02/25/2014  04:21:00      -61.886      -49.722        8.659       43.889       20.252       19.850     1926.282      410.132      394.023        0.455        0.137       79.386       24.423        0.095      334.346        4.258      860.760
02/25/2014  04:22:00      -75.581      -36.391        0.436       32.601       22.345       12.860     1062.841      499.320      165.373        0.438        0.086       83.886        8.453        0.010      334.433        4.402      860.769
02/25/2014  04:23:00      -38.736      -28.212        1.477       30.906       20.893       14.404      955.209      436.509      207.464        0.195        0.080       47.921       17.116        0.128      334.415        4.375      860.768
02/25/2014  04:24:00      -52.436      -21.585        0.411       32.565       16.735       13.417     1060.511      280.055      180.010        0.237        0.076       56.704       16.398        0.084      334.450        4.432      860.776
02/25/2014  04:25:00      -73.629      -21.044      -10.705       10.520       14.093        9.193      110.678      198.619       84.518        0.319        0.020       76.578        4.199        0.003      334.414        4.370      860.774
02/25/2014  04:26:00      -74.136      -19.247       -4.838       16.619       14.336       10.478      276.179      205.520      109.789        0.324        0.030       76.594        8.545        0.012      334.394        4.337      860.766
02/25/2014  04:27:00      -46.684      -14.161       -0.333       19.327       14.177       11.725      373.524      200.974      137.477        0.155        0.036       48.784       11.004        0.051      334.276        4.142      860.762
02/25/2014  04:28:00      -67.230      -23.580       -0.065       25.018       18.887       13.696      625.895      356.705      187.567        0.312        0.059       71.245       11.462        0.026      334.277        4.144      860.752
02/25/2014  04:29:00     -107.221      -32.925       -4.041       22.515       14.447       12.662      506.919      208.706      160.321        0.674        0.044      112.162       12.020        0.011      334.294        4.172      860.745
02/25/2014  04:30:00     -109.727      -40.965        5.124       25.658       20.434       14.966      658.313      417.535      223.990        0.752        0.065      117.125       15.550        0.018      334.257        4.111      860.737
02/25/2014  04:31:00     -118.309      -43.403       -8.174       14.687       19.393       14.382      215.695      376.085      206.846        0.837        0.040      126.019        8.480        0.005      334.244        4.089      860.738
02/25/2014  04:32:00     -115.607      -41.123       -9.375       18.485       20.497       10.031      341.695      420.144      100.622        0.800        0.043      122.703        5.526        0.002      334.134        3.907      860.739
02/25/2014  04:33:00     -132.492      -34.147      -20.087       23.239       16.953       14.344      540.037      287.404      205.737        1.008        0.052      136.822       11.518        0.007      334.014        3.708      860.749
02/25/2014  04:34:00      -89.879      -39.808       -0.217       31.865       31.754       18.051     1015.349     1008.345      325.843        0.601        0.117       98.300       15.911        0.026      333.980        3.650      860.772
02/25/2014  04:35:00      -96.382      -29.152       -8.959       43.817       26.033       15.168     1919.899      677.734      230.072        0.652        0.141      100.694       10.140        0.010      333.966        3.627      860.785
02/25/2014  04:36:00      -87.729      -25.094       -3.565       41.839       22.539       18.862     1750.472      508.011      355.767        0.548        0.131       91.248       17.052        0.035      333.981        3.652      860.798
02/25/2014  04:37:00      -82.852       -5.840       -5.362       32.387       27.255       18.542     1048.934      742.820      343.813        0.453        0.107       83.057       19.718        0.056      333.884        3.493      860.808
02/25/2014  04:38:00      -94.929       -4.064       -2.842       38.043       29.831       19.205     1447.241      889.874      368.816        0.587        0.135       95.016       16.794        0.031      333.902        3.521      860.813
02/25/2014  04:39:00      -80.454      -18.786       -6.710       33.392       28.362       16.624     1115.003      804.419      276.353        0.453        0.110       82.618       17.710        0.046      333.924        3.560      860.815
02/25/2014  04:40:00      -98.542      -12.120      -10.418       19.887       15.391       12.351      395.498      236.876      152.540        0.538        0.039       99.285       10.091        0.010      333.896        3.512      860.813
02/25/2014  04:41:00      -93.639      -24.123       -8.242       13.553       15.338       10.834      183.686      235.250      117.370        0.498        0.027       96.696        8.411        0.008      333.941        3.586      860.809
02/25/2014  04:42:00      -83.218      -36.001      -10.941       14.678       15.289       11.286      215.454      233.768      127.378        0.446        0.029       90.672        6.289        0.005      333.979        3.650      860.795
02/25/2014  04:43:00      -84.125      -47.574      -12.991       12.231       17.818       12.585      149.589      317.470      158.386        0.507        0.031       96.645        7.167        0.005      334.025        3.726      860.786
02/25/2014  04:44:00     -109.101      -38.819      -10.199       18.194       16.962       10.247      331.011      287.715      105.004        0.712        0.036      115.801        9.904        0.007      333.981        3.653      860.782
02/25/2014  04:45:00      -97.857      -35.227      -12.711       10.925       14.291        9.778      119.366      204.233       95.614        0.570        0.021      104.005        6.557        0.004      333.964        3.625      860.782
02/25/2014  04:46:00     -101.582      -45.302      -19.613       11.545       12.234        9.041      133.294      149.683       81.740        0.656        0.018      111.225        7.530        0.005      333.894        3.509      860.774
02/25/2014  04:47:00     -109.968      -49.280       -8.362       17.995       20.930       11.906      323.828      438.077      141.756        0.775        0.045      120.505        6.209        0.003      333.888        3.498      860.767
02/25/2014  04:48:00     -111.500      -34.971        2.324       28.063       25.016       13.405      787.539      625.819      179.701        0.763        0.080      116.856       12.571        0.012      333.842        3.423      860.760
02/25/2014  04:49:00     -103.763      -42.771        0.830       27.451       23.973       15.439      753.578      574.721      238.353        0.708        0.078      112.232        7.562        0.005      333.892        3.504      860.769
02/25/2014  04:50:00      -60.741      -41.108        9.823       36.956       22.504       19.665     1365.725      506.410      386.726        0.387        0.113       73.344       21.623        0.087      333.968        3.633      860.780
02/25/2014  04:51:00      -47.948      -39.780        7.598       49.949       26.882       16.911     2494.854      722.651      285.989        0.372        0.175       62.301       21.975        0.124      334.008        3.696      860.788
02/25/2014  04:52:00      -86.804      -51.699       -2.215       29.900       25.569       18.810      894.009      653.783      353.806        0.606        0.095      101.033        9.222        0.008      333.990        3.667      860.797
02/25/2014  04:53:00      -66.866      -49.556        0.673       38.038       21.017       20.490     1446.866      441.708      419.824        0.462        0.115       83.228       16.932        0.041      334.072        3.804      860.813
02/25/2014  04:54:00      -42.025      -38.399       11.293       43.561       26.349       21.259     1897.591      694.285      451.956        0.321        0.152       56.926       23.027        0.164      334.109        3.866      860.817
02/25/2014  04:55:00      -73.583      -31.377       -5.302       38.174       20.917       16.391     1457.270      437.533      268.649        0.429        0.108       79.993       15.353        0.037      334.010        3.701      860.823
02/25/2014  04:56:00     -106.465      -16.714       -3.368       23.297       20.858       15.102      542.772      435.036      228.076        0.642        0.060      107.769       13.650        0.016      333.900        3.519      860.823
02/25/2014  04:57:00      -98.985      -15.750       -3.728       27.614       16.922       14.938      762.537      286.358      223.140        0.567        0.064      100.230       13.704        0.019      333.843        3.426      860.811
02/25/2014  04:58:00      -95.901      -23.939        3.930       34.344       25.556       17.683     1179.537      653.106      312.689        0.597        0.107       98.844       21.012        0.045      333.799        3.351      860.812
02/25/2014  04:59:00      -71.879      -22.559        2.458       20.695       25.338       13.742      428.272      642.033      188.844        0.347        0.063       75.336       11.464        0.023      333.807        3.363      860.814
02/25/2014  05:00:00      -77.413      -23.084       -1.952       24.527       15.864       12.334      601.582      251.673      152.117        0.377        0.050       80.781       11.986        0.022      333.835        3.411      860.820
02/25/2014  05:01:00      -59.688      -23.982        1.047       22.179       19.787       11.628      491.919      391.532      135.212        0.258        0.051       64.325       11.201        0.030      333.879        3.485      860.823
02/25/2014  05:02:00      -70.583      -17.763       -1.355       21.848       23.320       14.831      477.345      543.806      219.953        0.327        0.062       72.784       11.336        0.024      333.890        3.503      860.828
02/25/2014  05:03:00      -78.750      -28.781        0.139       21.223       14.421       14.399      450.432      207.973      207.345        0.395        0.043       83.844       13.300        0.025      333.896        3.512      860.831
02/25/2014  05:04:00      -71.656      -27.385       -1.868       42.253       22.404       17.276     1785.355      501.925      298.455        0.424        0.129       76.710       19.139        0.062      333.979        3.650      860.824
02/25/2014  05:05:00      -75.411      -37.998        0.232       30.375       18.247       17.266      922.631      332.946      298.119        0.434        0.078       84.444       14.509        0.030      334.006        3.694      860.824
02/25/2014  05:06:00      -80.869      -43.956       -3.023       28.100       24.164       18.660      789.597      583.907      348.193        0.510        0.086       92.043       18.034        0.038      333.924        3.560      860.820
02/25/2014  05:07:00      -62.627      -66.096        2.857       30.694       22.999       17.261      942.133      528.974      297.940        0.503        0.088       91.054       14.887        0.027      334.008        3.698      860.808
02/25/2014  05:08:00      -69.663      -53.748        1.470       39.264       30.790       17.625     1541.683      948.014      310.627        0.527        0.140       87.987       19.625        0.050      334.010        3.700      860.800
02/25/2014  05:09:00      -53.975      -27.719        1.951       25.140       18.196       12.573      631.996      331.081      158.087        0.240        0.056       60.677        7.940        0.017      333.974        3.642      860.787
02/25/2014  05:10:00      -64.932      -34.836       -1.516       24.636       16.907       14.103      606.925      285.831      198.887        0.326        0.055       73.686       12.183        0.027      333.907        3.532      860.774
02/25/2014  05:11:00      -66.181      -19.463       -6.040       10.885       14.521       10.834      118.492      210.860      117.380        0.262        0.022       68.984        6.272        0.008      333.943        3.590      860.766
02/25/2014  05:12:00      -51.576      -31.957        2.835       19.625       17.116       13.208      385.155      292.954      174.438        0.227        0.043       60.674       12.619        0.043      333.982        3.654      860.768
02/25/2014  05:13:00      -29.322      -26.571        9.498       35.188       18.382       17.089     1238.199      337.900      292.018        0.176        0.093       39.570       17.066        0.186      333.935        3.576      860.777
02/25/2014  05:14:00      -33.222      -33.714        4.731       32.418       23.458       16.829     1050.908      550.257      283.200        0.207        0.094       47.333        9.731        0.042      333.917        3.547      860.782
02/25/2014  05:15:00      -43.139      -30.875        1.688       35.983       21.577       16.488     1294.765      465.575      271.848        0.242        0.102       53.049       18.949        0.128      333.891        3.504      860.783
02/25/2014  05:16:00      -49.286      -46.817        6.139       24.756       17.448       14.371      612.878      304.419      206.536        0.289        0.056       67.977       13.646        0.040      333.944        3.593      860.799
02/25/2014  05:17:00      -43.363      -31.297        7.119       28.457       20.301       17.443      809.819      412.118      304.241        0.222        0.076       53.478       14.561        0.074      333.913        3.540      860.816
02/25/2014  05:18:00     -130.319      -64.497       -3.844       34.384       37.824       21.247     1182.228     1430.651      451.450        1.211        0.153      145.406       19.797        0.019      333.914        3.541      860.819
02/25/2014  05:19:00      -54.128      -29.328        2.369       34.107       32.601       16.931     1163.313     1062.834      286.668        0.315        0.126       61.563       15.738        0.065      333.923        3.557      860.802
02/25/2014  05:20:00      -45.865      -22.987       -2.242       21.251       14.687       10.644      451.598      215.704      113.294        0.171        0.039       51.303        6.444        0.016      333.916        3.544      860.813
02/25/2014  05:21:00      -67.501      -39.099       -4.019       12.974       15.124        9.499      168.331      228.750       90.240        0.329        0.024       78.007        7.472        0.009      333.922        3.555      860.826
02/25/2014  05:22:00      -96.592      -43.836       -1.271       24.365       20.841       15.298      593.639      434.353      234.022        0.626        0.063      106.073       14.621        0.019      333.872        3.472      860.832
02/25/2014  05:23:00      -76.565      -39.479        1.996       32.234       19.672       16.494     1039.054      387.007      272.059        0.456        0.085       86.144       15.398        0.032      333.877        3.480      860.841
02/25/2014  05:24:00      -70.224      -38.609       -3.717       26.217       16.550       15.840      687.321      273.914      250.891        0.382        0.061       80.138       14.489        0.033      333.801        3.354      860.864
02/25/2014  05:25:00      -55.683      -37.850        5.819       36.455       20.731       19.498     1329.002      429.776      380.181        0.335        0.107       67.329       20.396        0.092      333.798        3.350      860.871
02/25/2014  05:26:00      -41.260      -44.649        7.638       30.928       24.114       20.557      956.517      581.497      422.585        0.286        0.098       60.794       16.604        0.075      333.865        3.461      860.884
02/25/2014  05:27:00      -62.714      -29.309       -3.809       54.701       24.052       13.988     2992.239      578.503      195.670        0.429        0.188       69.225       20.753        0.090      333.937        3.579      860.873
02/25/2014  05:28:00     -118.156      -15.195       -3.023       32.903       19.314       17.338     1082.602      373.041      300.597        0.798        0.088      119.129       15.681        0.017      333.855        3.443      860.852
02/25/2014  05:29:00      -86.143      -21.673       -1.397       21.517       16.655       13.272      462.992      277.382      176.156        0.440        0.046       88.828       12.280        0.019      333.731        3.239      860.854
02/25/2014  05:30:00      -68.942      -43.181       -0.339       12.733       13.641       10.446      162.121      186.083      109.115        0.354        0.023       81.349        2.763        0.001      333.791        3.336      860.862
02/25/2014  05:31:00      -93.170      -34.747       -7.285       26.933       19.738       16.806      725.380      389.579      282.454        0.567        0.070       99.439       15.098        0.023      333.918        3.550      860.860
02/25/2014  05:32:00     -121.730        8.212       -9.674       18.009       15.845       12.079      324.307      251.052      145.907        0.785        0.036      122.006       10.279        0.007      333.831        3.404      860.849
02/25/2014  05:33:00     -109.954       -9.460       -2.157       30.538       21.017       18.094      932.551      441.732      327.393        0.694        0.085      110.361       17.683        0.026      333.755        3.278      860.846
02/25/2014  05:34:00      -77.761      -18.851        4.605       33.243       23.151       16.617     1105.098      535.977      276.133        0.417        0.096       80.014       17.042        0.045      333.780        3.318      860.866
02/25/2014  05:35:00      -63.238      -44.452        3.234       38.586       23.230       15.334     1488.884      539.639      235.126        0.412        0.113       77.298       17.096        0.049      333.875        3.477      860.876
02/25/2014  05:36:00      -84.635      -30.775       -3.072       27.145       20.886       15.253      736.848      436.243      232.648        0.476        0.070       90.057       12.194        0.018      333.810        3.369      860.878
02/25/2014  05:37:00      -94.875      -19.215       -6.612       12.210       17.262        8.602      149.077      297.980       73.988        0.497        0.026       96.801        6.255        0.004      333.708        3.200      860.874
02/25/2014  05:38:00      -77.314        3.738       -2.653       17.617       12.194       10.269      310.364      148.696      105.458        0.328        0.028       77.405        6.567        0.007      333.657        3.114      860.876
02/25/2014  05:39:00      -11.512      -16.897       -6.329       21.924       21.630        8.787      480.667      467.875       77.214        0.074        0.051       20.446        6.808        0.111      333.731        3.239      860.883
02/25/2014  05:40:00      -23.973      -30.078       -5.490       13.191       11.025       12.771      173.993      121.554      163.099        0.098        0.023       38.463        8.954        0.054      333.740        3.252      860.879
02/25/2014  05:41:00       -9.208      -24.596       14.370       17.872       15.749       13.706      319.400      248.020      187.843        0.083        0.038       26.263       10.981        0.175      333.792        3.340      860.875
02/25/2014  05:42:00      -83.602      -29.171       -6.183       20.625       25.557       11.056      425.407      653.135      122.241        0.454        0.060       88.545       11.232        0.016      333.621        3.055      860.872
02/25/2014  05:43:00      -86.854      -26.656       -7.766       14.787       17.503       13.479      218.652      306.338      181.674        0.451        0.035       90.853        8.734        0.009      333.639        3.087      860.859
02/25/2014  05:44:00      -82.779      -32.101      -12.101       15.550       18.516       14.924      241.801      342.851      222.714        0.442        0.040       88.785        7.367        0.007      333.646        3.097      860.857
02/25/2014  05:45:00      -78.940      -21.015       -2.469       17.842       18.891       12.679      318.344      356.853      160.746        0.376        0.042       81.690        5.776        0.005      333.583        2.992      860.858
02/25/2014  05:46:00     -105.320      -24.842       -7.703       16.660       22.391       13.447      277.563      501.353      180.815        0.636        0.048      108.210       11.091        0.011      333.564        2.959      860.852
02/25/2014  05:47:00      -62.627      -10.771       -1.972       35.677       17.905       18.135     1272.879      320.580      328.894        0.298        0.096       63.547       20.258        0.102      333.537        2.916      860.856
02/25/2014  05:48:00      -67.710        3.745       -2.995       28.136       12.128       14.385      791.619      147.094      206.928        0.288        0.057       67.814       17.125        0.064      333.437        2.750      860.863
02/25/2014  05:49:00      -54.778       -6.166       -3.801       13.871       10.661        9.488      192.400      113.661       90.016        0.172        0.020       55.124        7.393        0.018      333.475        2.813      860.872
02/25/2014  05:50:00      -29.941      -20.693       -8.097       22.252       13.266        6.537      495.159      175.988       42.730        0.105        0.036       36.396        7.462        0.042      333.627        3.066      860.874
02/25/2014  05:51:00      -16.551      -22.088       -7.016       24.710        9.862       13.729      610.560       97.259      188.496        0.085        0.045       27.601       12.078        0.191      333.665        3.127      860.891
02/25/2014  05:52:00      -26.938       -7.017        5.891       16.781       11.683       10.109      281.605      136.502      102.186        0.066        0.026       27.837       10.666        0.147      333.599        3.021      860.903
02/25/2014  05:53:00      -29.564        9.622       -2.197       12.464       10.366       11.013      155.353      107.447      121.279        0.068        0.019       31.091        7.892        0.064      333.558        2.951      860.905
02/25/2014  05:54:00      -36.851       18.070      -10.104        4.767        6.506        4.969       22.727       42.332       24.689        0.094        0.004       41.043        2.236        0.003      333.494        2.844      860.901
02/25/2014  05:55:00      -43.570        4.050      -10.148       14.615       11.125        6.900      213.597      123.755       47.605        0.120        0.019       43.758        5.884        0.018      333.529        2.902      860.895
02/25/2014  05:56:00      -53.081      -13.067       -1.126       18.037       14.937       12.064      325.348      223.113      145.535        0.184        0.035       54.666       10.499        0.037      333.623        3.058      860.912
02/25/2014  05:57:00        4.623      -21.927        9.697       14.072       14.279       11.532      198.028      203.904      132.995        0.057        0.027       22.409        7.985        0.127      333.687        3.167      860.930
02/25/2014  05:58:00      -30.529       -8.756        0.816       20.250       11.617        8.734      410.069      134.952       76.289        0.082        0.031       31.759       10.783        0.115      333.520        2.890      860.940
02/25/2014  05:59:00      -40.130       -1.848        2.397       16.490       15.494        6.756      271.922      240.061       45.649        0.109        0.028       40.172        6.671        0.028      333.553        2.944      860.940
02/25/2014  06:00:00      -18.617       -3.749       -2.960       12.155        9.881        7.143      147.737       97.641       51.019        0.033        0.015       18.991        6.311        0.110      333.562        2.957      860.936
02/25/2014  06:01:00      -21.959        8.933        0.290       10.693       10.144        7.746      114.337      102.903       59.996        0.042        0.014       23.706        6.610        0.078      333.649        3.102      860.940
02/25/2014  06:02:00      -31.647       10.701       -0.771        8.694        8.747        8.218       75.582       76.517       67.536        0.067        0.011       33.407        5.064        0.023      333.722        3.223      860.944
02/25/2014  06:03:00      -32.197        4.012       -2.322        9.669        9.849        5.838       93.497       96.994       34.077        0.064        0.011       32.447        2.675        0.007      333.815        3.379      860.938
02/25/2014  06:04:00      -33.232        1.178      -10.842        7.979        6.516        5.853       63.658       42.459       34.261        0.068        0.007       33.253        4.688        0.020      333.918        3.549      860.940
02/25/2014  06:05:00      -35.670        7.425      -11.255        8.411        6.250        6.100       70.749       39.063       37.206        0.080        0.007       36.434        3.145        0.007      333.979        3.650      860.942
02/25/2014  06:06:00      -31.382        0.323       -2.872       11.328        4.955        4.153      128.326       24.554       17.247        0.058        0.009       31.384        1.122        0.001      334.003        3.690      860.936
02/25/2014  06:07:00      -43.605      -19.847       -9.594       10.272        8.382        6.209      105.511       70.251       38.558        0.130        0.011       47.909        3.816        0.006      333.815        3.377      860.929
02/25/2014  06:08:00      -45.107      -17.322       -2.933        9.526       10.568        6.940       90.746      111.691       48.169        0.130        0.013       48.318        5.470        0.013      333.707        3.199      860.923
02/25/2014  06:09:00      -19.750       -4.434       -1.772        9.303        8.898        5.192       86.553       79.167       26.958        0.030        0.010       20.242        5.097        0.063      333.624        3.063      860.923
02/25/2014  06:10:00       -3.299        0.445       -2.770        6.555        3.608        4.019       42.966       13.020       16.155        0.005        0.004        3.329        2.945        0.782      333.645        3.095      860.925
02/25/2014  06:11:00      -19.146        5.491      -12.126       12.700        5.347        6.959      161.291       28.590       48.421        0.039        0.012       19.918        6.523        0.107      333.817        3.380      860.920
02/25/2014  06:12:00      -36.873       -7.596       -1.715       17.048        5.505        6.108      290.636       30.310       37.305        0.089        0.018       37.647        4.201        0.012      333.686        3.163      860.919
02/25/2014  06:13:00      -77.175      -31.555       -0.870       17.653       14.257       10.079      311.627      203.258      101.588        0.378        0.031       83.376        6.894        0.007      333.454        2.778      860.916
02/25/2014  06:14:00      -73.757      -17.751       -2.492       30.254       20.861       15.343      915.277      435.182      235.414        0.367        0.079       75.863       16.118        0.045      333.266        2.467      860.921
02/25/2014  06:15:00      -71.997      -12.627       -8.071       27.326       22.628       14.347      746.722      512.032      205.835        0.344        0.073       73.096       11.757        0.026      333.203        2.364      860.923
02/25/2014  06:16:00      -51.613      -12.067       -2.312       31.768       21.665       15.700     1009.178      469.392      246.500        0.227        0.086       53.005       14.628        0.076      333.221        2.394      860.923
02/25/2014  06:17:00      -63.681       -6.358        4.377       24.741       17.902       11.942      612.109      320.487      142.610        0.259        0.054       63.997       12.112        0.036      333.243        2.429      860.921
02/25/2014  06:18:00      -21.277      -15.741        3.846       14.365       14.343       12.242      206.366      205.712      149.866        0.064        0.028       26.466        6.721        0.064      333.326        2.568      860.909
02/25/2014  06:19:00        2.016       -1.317        6.752        8.080        7.535        6.845       65.291       56.773       46.851        0.011        0.008        2.408        3.968        2.715      333.357        2.618      860.908
02/25/2014  06:20:00       -8.213       -4.968       -3.772        8.691        9.072        7.682       75.541       82.298       59.011        0.016        0.011        9.598        5.653        0.347      333.443        2.761      860.908
02/25/2014  06:21:00      -50.577       -8.742      -10.896       13.735       10.001        7.784      188.637      100.023       60.596        0.155        0.017       51.327        6.515        0.016      333.393        2.677      860.900
02/25/2014  06:22:00      -61.201       -4.362       -9.547       13.881       14.052        8.833      192.694      197.450       78.021        0.216        0.023       61.357        6.091        0.010      333.268        2.470      860.892
02/25/2014  06:23:00      -64.638       -9.596       -8.929       18.697       14.914       10.211      349.579      222.425      104.268        0.251        0.034       65.347        6.773        0.011      333.247        2.436      860.890
02/25/2014  06:24:00      -47.337       -5.588       -5.116       14.518       13.374       11.756      210.769      178.871      138.214        0.141        0.026       47.666        7.093        0.022      333.186        2.337      860.883
02/25/2014  06:25:00      -37.799       -9.356       -5.610       12.697       11.983        8.141      161.219      143.599       66.269        0.096        0.019       38.940        6.502        0.028      333.138        2.255      860.887
02/25/2014  06:26:00      -60.070      -11.639       -6.747       14.892       12.531        8.472      221.758      157.019       71.768        0.212        0.023       61.187        5.533        0.008      333.150        2.277      860.886
02/25/2014  06:27:00      -60.744      -23.595      -10.491       20.120       15.907       13.086      404.800      253.041      171.244        0.259        0.041       65.165       11.775        0.033      333.121        2.229      860.894
02/25/2014  06:28:00      -82.557      -38.218      -10.645       25.294       15.394       12.426      639.791      236.989      154.414        0.471        0.052       90.974       11.598        0.016      333.127        2.238      860.895
02/25/2014  06:29:00      -99.020      -26.666       -4.332       27.327       21.526       14.990      746.768      463.364      224.707        0.598        0.072      102.547        7.099        0.005      333.046        2.104      860.903
02/25/2014  06:30:00     -122.470      -15.989       -9.555       25.338       20.719       14.964      642.034      429.287      223.916        0.832        0.065      123.509       11.021        0.008      333.118        2.223      860.905
02/25/2014  06:31:00     -104.059      -31.304      -10.616       14.652       11.389       11.155      214.693      129.715      124.434        0.619        0.023      108.665        5.108        0.002      333.140        2.258      860.905
02/25/2014  06:32:00      -76.738      -30.349       -0.766       23.322       15.426        9.386      543.898      237.974       88.089        0.384        0.043       82.522       10.830        0.017      333.223        2.396      860.911
02/25/2014  06:33:00      -76.898      -21.889       -0.263       17.099       16.221       13.628      292.379      263.116      185.715        0.357        0.037       79.952        9.634        0.015      333.313        2.545      860.913
02/25/2014  06:34:00      -77.069      -11.687       -1.367       18.921       16.696       13.626      357.994      278.746      185.667        0.345        0.041       77.950       11.462        0.022      333.317        2.553      860.913
02/25/2014  06:35:00      -62.300      -16.766        3.178       23.782       15.056       10.614      565.566      226.691      112.661        0.254        0.045       64.516        6.085        0.009      333.359        2.621      860.918
02/25/2014  06:36:00      -62.829      -22.019        2.901       19.347       15.630        8.898      374.308      244.295       79.173        0.257        0.035       66.576        5.794        0.008      333.447        2.767      860.922
02/25/2014  06:37:00      -33.767      -14.406        6.010       29.402       16.765       13.860      864.463      281.074      192.091        0.136        0.067       36.712       17.110        0.217      333.458        2.784      860.932
02/25/2014  06:38:00      -56.760       -9.683       -5.910       11.110        8.963        7.016      123.437       80.337       49.229        0.180        0.013       57.580        3.569        0.004      333.406        2.698      860.940
02/25/2014  06:39:00      -36.231       -7.028       -2.243       22.706       13.175       11.431      515.544      173.574      130.658        0.109        0.041       36.906       10.549        0.082      333.380        2.658      860.935
02/25/2014  06:40:00      -40.074      -19.009        3.019       17.530       15.465       11.671      307.300      239.176      136.207        0.133        0.034       44.354        7.813        0.031      333.396        2.684      860.935
02/25/2014  06:41:00      -33.647      -15.153        4.063       17.843       18.422        8.673      318.380      339.368       75.217        0.106        0.037       36.901        5.874        0.025      333.333        2.578      860.936
02/25/2014  06:42:00      -32.660      -18.151       -1.909       17.865       20.529        9.101      319.145      421.457       82.834        0.111        0.041       37.365        6.684        0.032      333.354        2.613      860.946
02/25/2014  06:43:00      -36.966      -18.599       -2.898        9.483       10.839        8.845       89.926      117.492       78.228        0.100        0.014       41.381        2.571        0.004      333.352        2.609      860.958
02/25/2014  06:44:00      -42.292      -10.742       -8.662       15.390       14.366       10.834      236.856      206.369      117.367        0.127        0.028       43.635        6.672        0.023      333.343        2.595      860.975
02/25/2014  06:45:00      -60.106       -4.164       -7.860       14.765       12.269        9.864      218.000      150.529       97.292        0.208        0.023       60.250        7.260        0.015      333.314        2.547      860.984
02/25/2014  06:46:00      -85.857       -7.697      -12.878        9.712       13.303        8.460       94.316      176.963       71.569        0.397        0.017       86.202        5.943        0.005      333.263        2.462      860.980
02/25/2014  06:47:00      -91.849      -23.480      -13.427       14.844       13.379       10.999      220.332      179.006      120.980        0.484        0.026       94.803        5.249        0.003      333.155        2.285      860.984
02/25/2014  06:48:00      -99.532      -12.786       -7.226       37.179       21.194       17.940     1382.287      449.198      321.851        0.614        0.108      100.350       18.683        0.035      333.066        2.137      860.991
02/25/2014  06:49:00      -90.637       -4.892       -7.236       34.937       25.886       16.900     1220.617      670.062      285.619        0.523        0.109       90.769       13.594        0.022      333.029        2.079      860.998
02/25/2014  06:50:00      -29.817       -2.117        2.929       35.052       29.292       21.861     1228.648      858.008      477.898        0.173        0.128       29.892       17.383        0.338      333.086        2.172      860.996
02/25/2014  06:51:00       -4.192        4.885       -3.964       12.752       18.839       11.367      162.612      354.907      129.215        0.035        0.032        6.438        3.949        0.376      333.112        2.213      860.992
02/25/2014  06:52:00      -41.994      -16.427       -6.352       17.559       13.581       15.113      308.325      184.440      228.414        0.140        0.036       45.092       12.254        0.074      333.167        2.303      860.982
02/25/2014  06:53:00      -66.855      -19.427      -13.815       17.327       14.151        9.108      300.230      200.245       82.963        0.281        0.029       69.620        5.139        0.005      333.243        2.430      860.971
02/25/2014  06:54:00      -70.262      -13.655      -18.697       14.242       15.124       11.453      202.827      228.730      131.178        0.302        0.028       71.577        5.643        0.006      333.204        2.364      860.967
02/25/2014  06:55:00      -46.423      -14.822      -14.921       12.563       13.324       10.315      157.836      177.537      106.402        0.152        0.022       48.731        7.090        0.021      333.406        2.699      860.971
02/25/2014  06:56:00      -59.538      -15.637      -12.630       15.822       18.674        8.278      250.321      348.714       68.533        0.231        0.033       61.558        6.627        0.012      333.349        2.605      860.983
02/25/2014  06:57:00      -59.397       -0.247      -12.351       15.412       11.824       12.621      237.532      139.812      159.295        0.211        0.027       59.398        7.539        0.016      333.301        2.526      860.989
02/25/2014  06:58:00      -51.431       -8.285       -8.446       15.822       12.840        7.994      250.347      164.858       63.909        0.163        0.024       52.094        2.098        0.002      333.309        2.539      861.000
02/25/2014  06:59:00      -56.162      -15.445       -8.154       15.406       17.278       12.316      237.348      298.517      151.684        0.207        0.034       58.247        8.441        0.021      333.364        2.630      861.009
02/25/2014  07:00:00      -53.908       -9.086       -9.272       11.719       14.123       11.627      137.325      199.459      135.195        0.177        0.024       54.668        9.861        0.033      333.395        2.682      861.013
02/25/2014  07:01:00      -55.813       -5.363      -11.471        9.069        7.217        6.372       82.252       52.078       40.604        0.173        0.009       56.070        4.186        0.006      333.433        2.743      861.014
02/25/2014  07:02:00      -34.824       -7.484       -2.804       11.553        9.683        7.079      133.480       93.754       50.108        0.078        0.014       35.619        4.408        0.015      333.461        2.790      861.017
02/25/2014  07:03:00      -49.504       -6.033       -9.497       14.101       12.319        9.323      198.846      151.747       86.922        0.151        0.022       49.871        5.862        0.014      333.583        2.993      861.023
02/25/2014  07:04:00      -34.534        9.662       -6.858        8.749        6.681        6.997       76.542       44.630       48.960        0.075        0.009       35.860        6.354        0.031      333.823        3.392      861.029
02/25/2014  07:05:00      -16.954       10.238        0.346       10.662        6.262        7.823      113.672       39.217       61.202        0.030        0.011       19.806        7.512        0.144      333.937        3.579      861.034
02/25/2014  07:06:00       -6.205        2.111       11.477        8.281        4.372        4.762       68.569       19.111       22.678        0.014        0.006        6.555        3.459        0.278      334.052        3.771      861.038
02/25/2014  07:07:00       11.193       14.789        8.084        6.394        8.587        6.888       40.888       73.731       47.447        0.029        0.008       18.547        5.916        0.102      334.000        3.686      861.038
02/25/2014  07:08:00        8.441       10.901       12.070        6.842        5.628        4.623       46.813       31.678       21.375        0.022        0.005       13.787        3.670        0.071      334.080        3.817      861.034
02/25/2014  07:09:00        5.565       10.606        8.080        7.949        7.867        5.870       63.194       61.889       34.453        0.018        0.008       11.977        6.266        0.274      334.064        3.790      861.038
02/25/2014  07:10:00      -12.677       -9.194        8.020        9.907       10.807        6.892       98.154      116.800       47.500        0.029        0.013       15.660        2.681        0.029      333.965        3.625      861.034
02/25/2014  07:11:00      -23.965      -10.146       -1.398       10.303       10.159        7.418      106.150      103.204       55.024        0.047        0.013       26.025        4.708        0.033      333.833        3.409      861.030
02/25/2014  07:12:00      -47.645       -8.654       -8.338        9.109        9.580        8.211       82.972       91.778       67.427        0.133        0.012       48.425        3.559        0.005      333.568        2.969      861.034
02/25/2014  07:13:00      -49.920       -9.029      -10.227       17.008       13.827       10.552      289.283      191.178      111.353        0.163        0.030       50.730        4.695        0.009      333.553        2.941      861.029
02/25/2014  07:14:00      -52.381       -5.093       -5.576       11.733       11.388        6.675      137.668      129.691       44.558        0.156        0.016       52.628        5.750        0.012      333.527        2.901      861.043
02/25/2014  07:15:00      -45.249      -15.223       -6.344       12.698       10.951        9.962      161.233      119.932       99.245        0.135        0.019       47.741        3.754        0.006      333.618        3.049      861.048
02/25/2014  07:16:00      -68.684      -11.364      -10.015       11.883       13.069        7.282      141.203      170.809       53.023        0.266        0.018       69.618        5.126        0.005      333.583        2.992      861.053
02/25/2014  07:17:00      -70.355      -19.131       -1.430       13.134       17.638        9.598      172.496      311.091       92.123        0.295        0.029       72.910        3.949        0.003      333.624        3.060      861.063
02/25/2014  07:18:00      -89.598      -36.805       -8.081       13.406       19.358       10.131      179.719      374.734      102.636        0.505        0.033       96.863        3.717        0.001      333.565        2.963      861.072
02/25/2014  07:19:00      -82.891      -43.575        0.570       24.203       19.937       13.336      585.801      397.474      177.858        0.497        0.058       93.647       10.611        0.013      333.615        3.045      861.081
02/25/2014  07:20:00      -98.916      -25.596       -4.519       22.581       22.855       10.457      509.883      522.330      109.350        0.580        0.057      102.174        7.996        0.006      333.645        3.095      861.096
02/25/2014  07:21:00      -54.213      -21.575        8.585       27.441       23.927       13.079      753.002      572.505      171.057        0.249        0.075       58.348       12.053        0.043      333.717        3.215      861.102
02/25/2014  07:22:00      -86.986      -51.478        3.500       44.554       31.535       19.670     1985.064      994.451      386.913        0.680        0.168      101.077       21.171        0.044      333.737        3.247      861.108
02/25/2014  07:23:00     -107.380      -70.327        3.080       38.202       39.331       25.463     1459.419     1546.939      648.382        1.007        0.183      128.360       15.964        0.015      333.834        3.409      861.121
02/25/2014  07:24:00     -103.122      -75.991       -4.320       39.657       27.255       22.679     1572.650      742.815      514.326        0.963        0.141      128.097       19.652        0.024      333.877        3.481      861.128
02/25/2014  07:25:00      -92.955      -58.615        6.441       51.106       35.061       26.725     2611.785     1229.263      714.211        0.834        0.228      109.892       24.624        0.050      333.961        3.620      861.136
02/25/2014  07:26:00     -101.713      -26.353       -1.483       32.618       27.471       20.662     1063.927      754.675      426.934        0.664        0.112      105.071       20.203        0.037      333.961        3.618      861.144
02/25/2014  07:27:00     -111.172      -29.766       -7.762       15.968       28.474       15.371      254.983      810.791      236.260        0.730        0.065      115.088       11.193        0.009      334.099        3.847      861.149
02/25/2014  07:28:00      -93.866      -29.612       -3.997       17.371       30.409       15.108      301.758      924.716      228.261        0.558        0.073       98.426       11.698        0.014      334.051        3.768      861.160
02/25/2014  07:29:00      -49.191      -18.179       -0.613       19.086       20.731       14.525      364.262      429.794      210.966        0.188        0.050       52.443        9.768        0.035      334.098        3.847      861.168
02/25/2014  07:30:00      -73.070       -4.031       -6.553       23.127       17.482       12.279      534.878      305.615      150.785        0.319        0.050       73.181        8.149        0.012      334.125        3.891      861.174
02/25/2014  07:31:00      -71.671       -1.294       -3.502       17.856       17.290       12.948      318.848      298.946      167.644        0.297        0.039       71.683        9.931        0.019      334.137        3.911      861.178
02/25/2014  07:32:00      -69.543        4.672       -5.907       16.647       16.552        9.267      277.117      273.953       85.877        0.276        0.032       69.700        7.405        0.011      334.158        3.947      861.179
02/25/2014  07:33:00      -51.005      -16.176       -5.897       12.343       14.795        8.873      152.355      218.899       78.726        0.167        0.022       53.509        5.793        0.012      334.236        4.077      861.175
02/25/2014  07:34:00      -47.900      -19.143       -2.538       11.199       16.848        7.435      125.412      283.845       55.281        0.157        0.023       51.583        2.693        0.003      334.305        4.190      861.171
02/25/2014  07:35:00      -45.660      -26.483       -0.064       21.422       15.934       12.300      458.885      253.898      151.287        0.182        0.043       52.784       14.195        0.072      334.389        4.329      861.177
02/25/2014  07:36:00      -40.750      -13.152       -0.778       13.116       12.044       10.009      172.043      145.070      100.188        0.113        0.021       42.820        8.079        0.036      334.346        4.259      861.173
02/25/2014  07:37:00      -34.811      -11.313       -2.836        6.999       10.133        6.903       48.986      102.671       47.649        0.077        0.010       36.603        3.050        0.007      334.411        4.366      861.179
02/25/2014  07:38:00      -25.339      -24.448       -2.560       15.981       15.061       11.561      255.386      226.848      133.659        0.093        0.031       35.210        8.478        0.058      334.460        4.446      861.180
02/25/2014  07:39:00      -14.180      -11.972        9.153       12.227       11.808       10.831      149.498      139.431      117.307        0.042        0.020       18.558        8.315        0.201      334.659        4.777      861.172
02/25/2014  07:40:00      -24.157      -15.515       -2.058       12.684       12.698        9.425      160.894      161.249       88.826        0.062        0.021       28.710        6.180        0.046      334.608        4.693      861.173
02/25/2014  07:41:00      -33.346      -25.016       -5.464       16.577       16.883        7.558      274.796      285.036       57.121        0.119        0.031       41.686        4.807        0.013      334.571        4.631      861.174
02/25/2014  07:42:00       -7.585      -16.304        7.937       23.700       18.975       19.491      561.668      360.056      379.883        0.084        0.065       17.982       16.427        0.835      334.819        5.042      861.170
02/25/2014  07:43:00       -8.700      -17.772       11.186       32.423       22.874       19.242     1051.256      523.209      370.270        0.123        0.097       19.787       18.772        0.900      334.775        4.969      861.181
02/25/2014  07:44:00      -18.693      -10.292        6.365       24.894       32.580       20.479      619.724     1061.458      419.383        0.130        0.105       21.339       21.436        1.009      334.970        5.294      861.189
02/25/2014  07:45:00      -59.329      -61.885       -2.149       31.400       22.236       21.022      985.938      494.431      441.925        0.464        0.096       85.730       19.123        0.050      334.629        4.728      861.201
02/25/2014  07:46:00      -47.732      -31.772        6.699       30.486       27.333       18.951      929.425      747.075      359.152        0.268        0.102       57.339       13.651        0.057      334.645        4.754      861.216
02/25/2014  07:47:00      -76.310      -36.417       -4.044       32.418       32.680       20.288     1050.906     1067.989      411.590        0.485        0.127       84.555       10.903        0.017      334.648        4.760      861.229
02/25/2014  07:48:00      -63.152      -58.675       -3.900       30.499       39.457       14.421      930.190     1556.819      207.960        0.507        0.135       86.203       10.010        0.013      334.628        4.725      861.235
02/25/2014  07:49:00      -61.601      -26.427        1.532       42.513       23.722       15.341     1807.382      562.749      235.341        0.355        0.130       67.030       16.789        0.063      334.743        4.916      861.244
02/25/2014  07:50:00      -65.032      -52.929        2.546       44.749       27.542       22.876     2002.483      758.535      523.305        0.516        0.164       83.849       20.050        0.057      334.764        4.953      861.268
02/25/2014  07:51:00      -83.465      -37.258        5.352       46.070       30.147       22.679     2122.429      908.871      514.330        0.596        0.177       91.403       20.040        0.048      334.830        5.060      861.278
02/25/2014  07:52:00      -73.229      -56.975        3.970       48.650       40.838       21.607     2366.871     1667.731      466.863        0.656        0.225       92.783       23.942        0.067      334.904        5.185      861.276
02/25/2014  07:53:00      -93.185      -75.806       -1.016       46.140       29.401       22.210     2128.855      864.406      493.282        0.896        0.174      120.125       26.088        0.047      334.887        5.156      861.283
02/25/2014  07:54:00      -91.564      -74.397       -5.749       20.908       34.432       18.133      437.147     1185.581      328.813        0.795        0.098      117.978       13.640        0.013      334.859        5.108      861.284
02/25/2014  07:55:00      -94.293      -61.390      -10.718       20.419       14.342       12.283      416.919      205.704      150.861        0.677        0.039      112.516        8.850        0.006      334.960        5.278      861.285
02/25/2014  07:56:00      -83.662      -60.219       -8.033       22.931       17.188       18.306      525.818      295.411      335.118        0.592        0.058      103.080       15.991        0.024      334.982        5.312      861.283
02/25/2014  07:57:00      -72.115      -59.527      -10.992       25.752       19.501       16.355      663.170      380.299      267.484        0.509        0.066       93.510       19.278        0.043      335.012        5.364      861.285
02/25/2014  07:58:00      -57.712      -45.049       -3.362       20.890       18.775       11.256      436.383      352.518      126.699        0.314        0.046       73.213       12.268        0.028      335.129        5.558      861.289
02/25/2014  07:59:00      -30.384      -33.851        1.254       23.032       22.133        9.803      530.459      489.851       96.098        0.159        0.056       45.487       11.379        0.063      335.246        5.751      861.301
02/25/2014  08:00:00       -1.904      -27.316       -2.958        7.113       16.726        6.334       50.600      279.744       40.123        0.056        0.019       27.383        1.902        0.005      335.262        5.778      861.311
02/25/2014  08:01:00       -0.837       -0.761       12.346       11.926        6.405       13.334      142.230       41.025      177.785        0.026        0.018        1.131        7.552       44.557      335.839        6.740      861.321
02/25/2014  08:02:00       -0.291        0.954       16.112       12.668       14.365       14.705      160.483      206.352      216.239        0.042        0.029        0.997        6.914       48.093      335.923        6.880      861.334
02/25/2014  08:03:00       15.910       24.477        7.787       27.493       20.139       17.159      755.857      405.577      294.441        0.118        0.073       29.194       14.134        0.234      335.735        6.569      861.343
02/25/2014  08:04:00       64.590       36.064        6.423       18.866       17.705       21.245      355.943      313.463      451.352        0.332        0.056       73.977        7.408        0.010      335.366        5.952      861.350
02/25/2014  08:05:00       32.639       29.338       -1.441       21.053       23.752       19.327      443.226      564.168      373.524        0.165        0.069       43.886       13.927        0.101      335.452        6.095      861.352
02/25/2014  08:06:00       43.931       45.738        5.747       23.103       19.248       27.126      533.771      370.496      735.829        0.285        0.082       63.418       18.257        0.083      335.572        6.295      861.345
02/25/2014  08:07:00       42.071       47.230        3.487       30.909       24.528       18.862      955.384      601.626      355.793        0.296        0.096       63.251       14.020        0.049      335.456        6.102      861.344
02/25/2014  08:08:00       62.228       29.782        8.378       27.307       27.938       22.831      745.681      780.536      521.273        0.344        0.102       68.988       17.001        0.061      335.472        6.127      861.335
02/25/2014  08:09:00       39.210       40.383       -4.841       31.641       21.518       19.634     1001.183      463.042      385.483        0.252        0.092       56.287        4.873        0.007      335.716        6.534      861.329
02/25/2014  08:10:00       -4.524       17.399       12.020       31.004       22.892       18.503      961.240      524.042      342.360        0.115        0.091       17.978       12.523        0.485      335.857        6.771      861.323
02/25/2014  08:11:00        5.181       40.250       12.511       33.294       31.084       20.498     1108.460      966.239      420.153        0.215        0.125       40.583       18.369        0.205      335.964        6.950      861.309
02/25/2014  08:12:00       21.388       48.046       -2.312       25.643       26.096       27.029      657.558      680.985      730.578        0.242        0.103       52.592       22.978        0.191      335.760        6.609      861.305
02/25/2014  08:13:00        3.277       17.776       16.624       24.916       16.240       23.300      620.785      263.723      542.891        0.101        0.071       18.076       17.636        0.952      335.906        6.852      861.294
02/25/2014  08:14:00      -20.871        2.654       -0.776       16.752       14.290       14.711      280.618      204.199      216.403        0.057        0.035       21.040        5.754        0.075      335.620        6.375      861.281
02/25/2014  08:15:00      -40.509        8.392       -6.196       17.365       14.086       16.387      301.549      198.427      268.538        0.126        0.038       41.369        9.700        0.055      335.550        6.257      861.275
02/25/2014  08:16:00      -41.736        1.138       -2.488       19.878       13.231       14.976      395.131      175.051      224.293        0.127        0.040       41.751       10.676        0.065      335.589        6.324      861.272
02/25/2014  08:17:00      -44.487      -21.572       -4.446       22.053       25.896       12.323      486.324      670.609      151.859        0.189        0.065       49.442       10.093        0.042      335.600        6.343      861.269
02/25/2014  08:18:00      -19.893      -19.465        7.389       25.398       22.333       18.120      645.061      498.757      328.333        0.115        0.074       27.832       18.116        0.424      335.923        6.880      861.269
02/25/2014  08:19:00      -44.691      -25.320       -5.539       17.205       22.361       11.457      296.011      500.005      131.259        0.180        0.046       51.365       11.012        0.046      335.730        6.560      861.277
02/25/2014  08:20:00      -26.733       -4.835       -6.878        9.350        6.354        5.382       87.432       40.375       28.969        0.047        0.008       27.166        1.602        0.003      335.746        6.586      861.281
02/25/2014  08:21:00      -21.474       -1.123       -3.521        7.961        9.186        6.477       63.384       84.387       41.948        0.033        0.009       21.504        6.263        0.085      335.785        6.652      861.285
02/25/2014  08:22:00      -20.415        1.793        0.650        6.968        6.996        7.106       48.551       48.948       50.489        0.028        0.007       20.493        2.294        0.013      335.902        6.844      861.286
02/25/2014  08:23:00        1.912       13.387        8.930       15.927       13.976       16.367      253.678      195.315      267.865        0.049        0.036       13.523        6.360        0.221      336.456        7.769      861.293
02/25/2014  08:24:00        5.996       14.895       37.265       19.599       24.839       21.272      384.105      616.979      452.492        0.155        0.073       16.056       16.022        0.996      336.516        7.869      861.287
02/25/2014  08:25:00       43.052       43.863       46.012       31.075       21.016       17.225      965.681      441.675      296.706        0.380        0.085       61.461       11.940        0.038      336.280        7.476      861.278
02/25/2014  08:26:00       50.511       36.155       -8.894       18.853       17.557       20.806      355.430      308.242      432.882        0.252        0.055       62.117       12.029        0.038      335.812        6.694      861.282
02/25/2014  08:27:00       44.615       37.349        3.603       40.460       34.953       32.666     1636.975     1221.717     1067.043        0.366        0.196       58.184       24.971        0.184      336.080        7.141      861.272
02/25/2014  08:28:00       -3.755       18.749        8.986       20.940       28.801       23.040      438.480      829.502      530.847        0.112        0.090       19.121       18.385        0.924      336.557        7.939      861.269
02/25/2014  08:29:00       69.591       66.286       -9.128       40.124       38.298       26.151     1609.961     1466.745      683.871        0.654        0.188       96.108       19.168        0.040      336.251        7.430      861.268
02/25/2014  08:30:00       17.765       53.831       68.115       29.258       32.062       19.111      856.044     1028.001      365.231        0.505        0.112       56.687       18.049        0.101      336.431        7.728      861.263
02/25/2014  08:31:00       26.837       48.327       46.166       42.973       25.867       27.716     1846.672      669.089      768.194        0.423        0.164       55.278       26.085        0.223      336.342        7.578      861.266
02/25/2014  08:32:00       21.487       53.671       59.295       34.506       29.618       19.431     1190.663      877.201      377.552        0.465        0.122       57.812       16.962        0.086      336.319        7.541      861.266
02/25/2014  08:33:00       53.835       54.542       45.287       38.020       35.018       30.971     1445.531     1226.263      959.219        0.578        0.182       76.636       12.289        0.026      336.226        7.385      861.269
02/25/2014  08:34:00       73.659       72.427       23.159       41.636       29.365       28.956     1733.577      862.274      838.438        0.732        0.172      103.302       24.561        0.057      336.256        7.436      861.276
02/25/2014  08:35:00       52.251       84.082       16.152       31.668       24.397       39.327     1002.864      595.200     1546.583        0.660        0.157       98.995       25.099        0.064      336.218        7.374      861.294
02/25/2014  08:36:00       85.159       60.417       -7.166       22.005       16.231       19.717      484.227      263.446      388.770        0.604        0.057      104.414       11.087        0.011      336.167        7.288      861.307
02/25/2014  08:37:00       29.493       28.293        3.944       41.133       32.964       22.811     1691.915     1086.653      520.347        0.249        0.165       40.869       16.755        0.168      336.544        7.918      861.322
02/25/2014  08:38:00       -5.253       11.869       19.294       33.741       36.547       29.521     1138.486     1335.656      871.509        0.194        0.167       12.979       13.807        1.132      336.663        8.116      861.328
02/25/2014  08:39:00       42.457       26.309       31.152       20.043       26.185       31.389      401.740      685.639      985.288        0.277        0.104       49.947       21.844        0.191      336.404        7.682      861.329
02/25/2014  08:40:00       45.429       37.039       45.669       26.149       22.683       25.816      683.751      514.518      666.476        0.369        0.093       58.615       17.819        0.092      336.445        7.752      861.325
02/25/2014  08:41:00       58.046       51.486       33.847       17.624       11.880       19.207      310.589      141.125      368.902        0.399        0.041       77.590        7.654        0.010      336.227        7.386      861.313
02/25/2014  08:42:00       49.787       58.019       46.271       25.442       20.536       28.318      647.290      421.735      801.893        0.493        0.094       76.452       15.072        0.039      336.359        7.608      861.308
02/25/2014  08:43:00       71.324       50.446       26.926       26.770       20.395       28.807      716.631      415.947      829.839        0.516        0.098       87.361       14.178        0.026      336.360        7.608      861.302
02/25/2014  08:44:00       50.736       55.214       40.032       24.609       20.060       20.746      605.597      402.405      430.407        0.433        0.072       74.985       14.327        0.037      336.491        7.828      861.291
02/25/2014  08:45:00        7.390       39.154       44.312       19.005       37.573       32.726      361.175     1411.715     1071.002        0.320        0.142       39.845       26.647        0.447      336.882        8.482      861.289
02/25/2014  08:46:00        9.019        3.944       49.953       24.953       40.939       22.787      622.650     1676.019      519.235        0.270        0.141        9.844       17.489        3.157      337.198        9.009      861.296
02/25/2014  08:47:00       13.804      -49.610       23.172       31.722       48.591       34.303     1006.303     2361.064     1176.703        0.387        0.227       51.494       24.797        0.232      337.128        8.894      861.311
02/25/2014  08:48:00       30.215      -40.031       24.193       36.506       46.960       35.236     1332.659     2205.214     1241.565        0.394        0.239       50.154       21.291        0.180      337.098        8.843      861.320
02/25/2014  08:49:00       64.268       11.332       38.961       43.624       34.973       32.282     1903.086     1223.114     1042.159        0.497        0.208       65.259       17.826        0.075      336.746        8.256      861.328
02/25/2014  08:50:00       52.320       65.838       61.627       36.580       22.773       21.554     1338.084      518.606      464.559        0.660        0.116       84.095       14.611        0.030      336.671        8.129      861.326
02/25/2014  08:51:00       15.213       30.942       34.560       38.082       29.596       23.089     1450.257      875.909      533.112        0.262        0.143       34.479       14.890        0.186      336.899        8.511      861.328
02/25/2014  08:52:00      -32.835      -10.732       22.340       38.203       29.232       27.034     1459.471      854.483      730.844        0.237        0.152       34.545       32.955        0.910      337.057        8.775      861.336
02/25/2014  08:53:00       38.794       35.971       54.423       27.142       18.643       18.006      736.691      347.556      324.232        0.358        0.070       52.905        8.000        0.023      336.883        8.484      861.340
02/25/2014  08:54:00       43.082       46.162       12.182       20.328       16.391       31.220      413.244      268.678      974.676        0.290        0.083       63.142        9.391        0.022      336.654        8.101      861.342
02/25/2014  08:55:00       66.840       38.826        4.200       34.499       37.532       23.718     1190.199     1408.675      562.544        0.458        0.158       77.299       18.506        0.057      336.911        8.529      861.354
02/25/2014  08:56:00       51.228       42.926        6.785       55.873       52.816       35.923     3121.767     2789.518     1290.478        0.586        0.360       66.835       23.721        0.126      336.968        8.625      861.356
02/25/2014  08:57:00      100.443       68.328      -10.460       32.187       29.761       30.638     1035.990      885.746      938.690        0.886        0.143      121.480       11.988        0.010      336.637        8.072      861.370
02/25/2014  08:58:00       74.074       69.051       21.709       41.271       34.166       44.599     1703.286     1167.320     1989.080        0.779        0.243      101.267       32.618        0.104      336.793        8.332      861.369
02/25/2014  08:59:00       10.449       82.277       86.921       36.472       46.294       34.860     1330.240     2143.094     1215.237        0.956        0.234       82.937       30.963        0.139      337.140        8.914      861.364
02/25/2014  09:00:00       41.960       48.277       50.198       37.212       37.034       32.633     1384.761     1371.498     1064.922        0.522        0.191       63.964       24.409        0.146      336.926        8.556      861.365
02/25/2014  09:01:00       41.036       34.452       15.558       32.859       21.866       20.825     1079.702      478.101      433.666        0.255        0.100       53.580        9.842        0.034      336.783        8.315      861.360
02/25/2014  09:02:00       65.576       63.141       13.614       37.831       35.403       30.105     1431.163     1253.342      906.287        0.603        0.180       91.034       19.965        0.048      336.927        8.558      861.367
02/25/2014  09:03:00       52.480       44.081       11.018       20.623       25.111       26.889      425.324      630.570      722.997        0.330        0.089       68.537       16.984        0.061      337.215        9.039      861.359
02/25/2014  09:04:00      102.142       75.855       10.546       30.896       29.605       33.637      954.561      876.432     1131.456        0.963        0.148      127.228       17.761        0.019      336.978        8.643      861.356
02/25/2014  09:05:00       78.225       92.080       10.874       26.246       35.341       35.625      688.837     1248.960     1269.175        0.896        0.160      120.822       24.101        0.040      337.042        8.748      861.353
02/25/2014  09:06:00       86.333       75.406       -3.589       29.042       23.882       22.177      843.414      570.356      491.822        0.753        0.095      114.627       15.060        0.017      336.966        8.622      861.351
02/25/2014  09:07:00      115.269       77.864        6.223       33.237       29.786       28.843     1104.673      887.221      831.915        1.111        0.141      139.103       14.039        0.010      337.054        8.769      861.351
02/25/2014  09:08:00       92.975       63.621       22.368       50.648       32.622       33.693     2565.206     1064.223     1135.224        0.898        0.238      112.659       23.347        0.043      337.100        8.847      861.361
02/25/2014  09:09:00       88.554       85.254       -2.059       50.846       37.115       32.200     2585.315     1377.500     1036.841        1.006        0.250      122.923       20.966        0.029      337.161        8.949      861.359
02/25/2014  09:10:00       83.148       58.812       -1.252       45.353       42.903       31.459     2056.915     1840.645      989.692        0.763        0.244      101.845        7.686        0.006      337.157        8.941      861.364
02/25/2014  09:11:00       80.137       52.167       12.103       46.209       43.587       35.088     2135.318     1899.786     1231.145        0.728        0.263       95.621       22.741        0.057      337.401        9.350      861.356
02/25/2014  09:12:00       91.646       71.642       33.224       28.887       24.792       30.745      834.465      614.619      945.238        0.851        0.120      116.325       16.620        0.020      337.172        8.966      861.349
02/25/2014  09:13:00       98.498       87.401       -3.516       32.166       29.061       32.570     1034.626      844.546     1060.811        1.015        0.147      131.685       18.323        0.019      337.202        9.016      861.339
02/25/2014  09:14:00       51.358       78.599       42.342       42.576       42.980       33.118     1812.681     1847.238     1096.784        0.768        0.238       93.891       29.412        0.098      337.588        9.665      861.333
02/25/2014  09:15:00       15.849       28.846       38.957       38.062       36.421       36.496     1448.734     1326.465     1331.986        0.335        0.205       32.913       12.415        0.142      337.907       10.198      861.334
02/25/2014  09:16:00       42.986      -37.947       22.927       34.514       41.501       25.172     1191.249     1722.358      633.608        0.368        0.177       57.339       24.808        0.187      337.564        9.624      861.323
02/25/2014  09:17:00       19.211       14.262       35.475       27.885       42.600       19.897      777.548     1814.778      395.908        0.241        0.149       23.926       10.495        0.192      337.847       10.097      861.307
02/25/2014  09:18:00       87.519       73.133       27.277       44.328       34.519       38.308     1965.006     1191.544     1467.538        0.919        0.231      114.053       22.468        0.039      337.528        9.563      861.299
02/25/2014  09:19:00       99.564       71.695        2.837       56.924       38.082       36.113     3240.384     1450.259     1304.150        1.053        0.300      122.692       29.597        0.058      337.583        9.656      861.297
02/25/2014  09:20:00      130.190       65.271        3.458       47.567       45.669       31.621     2262.575     2085.654      999.871        1.328        0.267      145.636       16.603        0.013      337.458        9.446      861.284
02/25/2014  09:21:00      104.393       90.978       10.382       40.891       26.484       30.245     1672.045      701.405      914.785        1.128        0.164      138.473       14.319        0.011      337.300        9.180      861.275
02/25/2014  09:22:00      115.629       87.711       18.000       35.773       32.902       30.341     1279.728     1082.554      920.596        1.233        0.164      145.132       16.760        0.013      337.393        9.337      861.267
02/25/2014  09:23:00       90.254       75.297       23.132       43.316       39.311       42.359     1876.254     1545.386     1794.280        0.978        0.261      117.539       26.130        0.049      337.646        9.761      861.257
02/25/2014  09:24:00       99.715       71.786       23.638       34.746       42.117       30.943     1207.290     1773.835      957.440        0.980        0.197      122.868       22.168        0.033      337.473        9.469      861.249
02/25/2014  09:25:00      152.496       99.636       17.840       46.816       40.109       35.494     2191.765     1608.719     1259.805        1.928        0.253      182.160       17.631        0.009      337.546        9.591      861.239
02/25/2014  09:26:00       22.613       45.585       61.722       48.573       43.372       35.464     2359.302     1881.166     1257.688        0.595        0.275       50.886       29.063        0.326      338.228       10.737      861.238
02/25/2014  09:27:00       74.423       59.649       42.095       57.598       29.838       35.278     3317.511      890.283     1244.530        0.816        0.273       95.377       30.879        0.105      337.961       10.289      861.232
02/25/2014  09:28:00       42.442       37.804       51.481       50.311       58.181       53.923     2531.177     3385.025     2907.705        0.735        0.441       56.837       39.944        0.494      337.944       10.260      861.234
02/25/2014  09:29:00       44.378       88.567       98.198       88.389       58.295       58.028     7812.682     3398.317     3367.222        1.701        0.729       99.063       61.569        0.386      337.736        9.910      861.223
02/25/2014  09:30:00      103.540       67.427       43.340       49.229       44.285       43.515     2423.474     1961.152     1893.525        1.171        0.314      123.559       31.382        0.065      337.529        9.565      861.241
02/25/2014  09:31:00       37.833       53.802       73.518       56.858       55.625       53.326     3232.815     3094.118     2843.634        0.945        0.459       65.773       52.322        0.633      337.860       10.120      861.231
02/25/2014  09:32:00       -0.542       63.151      100.865       29.494       47.367       29.570      869.867     2243.605      874.371        0.907        0.199       63.153       32.957        0.272      337.734        9.908      861.228
02/25/2014  09:33:00        3.053       50.185       77.344       19.710       33.321       14.147      388.500     1110.288      200.143        0.510        0.085       50.278       18.203        0.131      337.648        9.764      861.231
02/25/2014  09:34:00        7.330       60.863       81.634       24.973       41.110       20.670      623.657     1690.042      427.258        0.658        0.137       61.303       18.578        0.092      337.883       10.160      861.233
02/25/2014  09:35:00       49.468       57.770       65.198       28.823       35.453       23.725      830.784     1256.891      562.872        0.634        0.133       76.056       10.705        0.020      337.736        9.913      861.236
02/25/2014  09:36:00       41.840       35.343       35.465       50.935       40.741       43.616     2594.351     1659.854     1902.344        0.521        0.308       54.770       40.019        0.534      337.950       10.271      861.238
02/25/2014  09:37:00       60.921       69.738       56.414       40.767       35.574       33.927     1661.936     1265.532     1151.010        0.792        0.204       92.600       22.418        0.059      337.904       10.193      861.244
02/25/2014  09:38:00       85.563       55.216       18.840       40.406       25.905       24.862     1632.664      671.048      618.142        0.682        0.146      101.832        4.782        0.002      337.857       10.115      861.249
02/25/2014  09:39:00       50.361       81.226       23.259       42.873       39.391       33.228     1838.052     1551.660     1104.080        0.708        0.225       95.571       25.665        0.072      338.381       10.992      861.255
02/25/2014  09:40:00       17.475       30.550       58.746       36.179       49.654       22.786     1308.904     2465.501      519.184        0.449        0.215       35.195       18.503        0.276      338.656       11.456      861.247
02/25/2014  09:41:00       31.212       43.933       57.000       40.960       35.924       36.604     1677.681     1290.517     1339.831        0.523        0.215       53.892       14.580        0.073      338.234       10.747      861.251
02/25/2014  09:42:00       12.519        5.602       32.916       31.137       59.751       23.474      969.507     3570.170      551.021        0.318        0.255       13.715       20.456        2.225      338.435       11.085      861.252
02/25/2014  09:43:00       -3.595       45.251       72.817       28.967       54.067       36.910      839.112     2923.195     1362.373        0.624        0.256       45.394       33.766        0.553      338.702       11.533      861.246
02/25/2014  09:44:00       45.864       75.220       33.992       37.993       34.525       40.485     1443.499     1191.964     1639.025        0.659        0.214       88.100       15.134        0.030      338.183       10.662      861.250
02/25/2014  09:45:00       35.336       35.650       24.299       32.046       38.325       32.928     1026.929     1468.811     1084.244        0.334        0.179       50.195       24.627        0.241      338.386       11.003      861.234
02/25/2014  09:46:00       67.923       53.387       -1.165       22.831       24.325       22.782      521.251      591.728      519.026        0.455        0.082       86.393        7.284        0.007      337.903       10.193      861.225
02/25/2014  09:47:00       59.393       44.890       10.159       29.327       36.630       31.679      860.055     1341.787     1003.528        0.442        0.160       74.449       11.198        0.023      338.339       10.923      861.213
02/25/2014  09:48:00       55.728       61.311       61.076       56.107       48.509       43.257     3147.986     2353.129     1871.130        0.898        0.369       82.853       30.725        0.138      338.564       11.302      861.197
02/25/2014  09:49:00       12.274       76.237       91.783       41.495       43.050       28.029     1721.874     1853.337      785.652        0.937        0.218       77.218       18.533        0.058      338.325       10.901      861.188
02/25/2014  09:50:00       20.272       25.627       50.758       40.166       74.436       52.580     1613.331     5540.652     2764.628        0.678        0.496       32.675       33.775        1.068      338.522       11.231      861.167
02/25/2014  09:51:00       87.467       86.641       30.144       44.090       42.955       45.968     1943.894     1845.152     2113.084        1.098        0.295      123.115       32.103        0.068      337.865       10.130      861.169
02/25/2014  09:52:00       54.264       63.226        5.439       12.322       10.993       16.203      151.839      120.844      262.542        0.375        0.027       83.319        7.940        0.009      337.840       10.085      861.169
02/25/2014  09:53:00       46.076       14.294        4.961       21.352       27.211       24.027      455.891      740.414      577.309        0.206        0.089       48.242        8.712        0.033      338.054       10.443      861.155
02/25/2014  09:54:00       38.310       27.124       47.508       36.541       40.700       36.944     1335.217     1656.460     1364.835        0.441        0.218       46.940       35.092        0.559      338.217       10.719      861.158
02/25/2014  09:55:00       55.122       59.138        4.652       46.281       28.003       25.623     2141.954      784.141      656.554        0.507        0.179       80.844       22.606        0.078      338.462       11.129      861.151
02/25/2014  09:56:00       88.810       85.715       10.372       38.699       31.025       30.743     1497.640      962.531      945.117        0.937        0.170      123.427       19.595        0.025      338.398       11.022      861.143
02/25/2014  09:57:00      100.522       63.870       34.395       27.234       33.403       34.237      741.687     1115.788     1172.158        0.920        0.151      119.097       17.234        0.021      338.285       10.831      861.161
02/25/2014  09:58:00        7.998        7.826       32.937       30.888       39.598       33.585      954.080     1567.992     1127.936        0.243        0.183       11.190       22.148        3.917      338.811       11.716      861.150
02/25/2014  09:59:00       13.665      -10.684       58.664       31.241       63.543       27.783      976.003     4037.747      771.918        0.476        0.289       17.346       20.575        1.407      339.086       12.179      861.145
02/25/2014  10:00:00        3.458       36.470       79.924       37.137       73.500       46.656     1379.186     5402.252     2176.755        0.834        0.448       36.633       50.502        1.900      338.854       11.788      861.148
02/25/2014  10:01:00       31.640       54.345       55.022       34.321       33.515       39.672     1177.902     1123.250     1573.847        0.543        0.194       62.884       30.195        0.231      338.579       11.326      861.146
02/25/2014  10:02:00       38.457       78.125       65.782       56.120       41.741       36.760     3149.448     1742.315     1351.303        0.908        0.312       87.078       22.797        0.069      338.586       11.340      861.141
02/25/2014  10:03:00       93.843       61.809       44.419       35.816       42.406       30.988     1282.759     1798.254      960.279        0.932        0.202      112.369       24.871        0.049      338.158       10.619      861.132
02/25/2014  10:04:00       24.535       22.414       17.739       23.569       14.950       19.781      555.499      223.502      391.301        0.129        0.059       33.231       16.294        0.240      338.413       11.048      861.123
02/25/2014  10:05:00       34.320       46.671       55.206       34.759       29.103       33.440     1208.189      846.991     1118.211        0.479        0.159       57.932       23.795        0.169      338.605       11.370      861.116
02/25/2014  10:06:00       91.533       47.180       18.463       41.260       37.699       46.018     1702.422     1421.251     2117.658        0.809        0.262      102.977       28.591        0.077      338.312       10.878      861.107
02/25/2014  10:07:00        3.815       53.055       65.984       38.664       29.551       22.378     1494.941      873.254      500.786        0.503        0.143       53.192       15.434        0.084      338.829       11.746      861.096
02/25/2014  10:08:00       89.735       73.329       31.075       60.857       38.860       40.254     3703.593     1510.081     1620.366        1.061        0.342      115.886       38.104        0.108      338.728       11.577      861.082
02/25/2014  10:09:00      101.827       64.726       21.140       58.408       50.365       38.987     3411.448     2536.673     1519.989        1.124        0.373      120.657       16.818        0.019      338.663       11.467      861.078
02/25/2014  10:10:00       79.237       72.417       16.948       42.743       50.830       37.305     1826.928     2583.659     1391.651        0.880        0.290      107.344       23.085        0.046      338.844       11.769      861.077
02/25/2014  10:11:00       26.631       40.338       85.963       41.155       48.786       26.981     1693.769     2380.034      727.980        0.726        0.240       48.336       18.915        0.153      339.223       12.409      861.085
02/25/2014  10:12:00       35.784      -24.542       44.056       51.994       68.280       49.822     2703.422     4662.182     2482.209        0.683        0.492       43.391       49.487        1.301      339.052       12.123      861.087
02/25/2014  10:13:00       20.231       18.678       72.758       42.397       96.156       51.556     1797.512     9246.004     2657.981        0.987        0.685       27.535       67.343        5.982      339.100       12.203      861.087
02/25/2014  10:14:00       35.791       73.713       91.181       41.150       55.551       42.405     1693.319     3085.881     1798.191        1.080        0.329       81.943       28.621        0.122      338.992       12.021      861.083
02/25/2014  10:15:00       14.036        0.870       46.197       44.277       55.287       52.198     1960.468     3056.701     2724.639        0.504        0.387       14.063       44.079        9.825      339.190       12.355      861.084
02/25/2014  10:16:00       39.963      -23.620       39.370       50.573       72.064       51.881     2557.615     5193.265     2691.613        0.707        0.522       46.421       55.082        1.408      339.044       12.109      861.077
02/25/2014  10:17:00       42.080       24.961       44.250       48.290       60.475       54.702     2331.912     3657.228     2992.344        0.666        0.449       48.926       50.204        1.053      338.996       12.026      861.060
02/25/2014  10:18:00      110.522       83.627       42.197       29.776       18.398       29.693      886.587      338.474      881.649        1.155        0.105      138.595       18.047        0.017      338.512       11.214      861.060
02/25/2014  10:19:00       85.720       79.362       48.673       44.986       30.040       42.530     2023.717      902.426     1808.800        1.037        0.237      116.817       35.582        0.093      338.591       11.347      861.045
02/25/2014  10:20:00       53.837       54.362       42.816       42.858       29.572       42.262     1836.812      874.529     1786.062        0.609        0.225       76.509       22.694        0.088      338.765       11.639      861.036
02/25/2014  10:21:00       25.720       32.611       68.538       40.825       48.894       40.237     1666.666     2390.650     1619.002        0.605        0.284       41.534       43.136        1.079      339.084       12.175      861.019
02/25/2014  10:22:00       15.958       -6.295        9.040       20.660       18.763       29.812      426.825      352.061      888.745        0.102        0.083       17.155       24.051        1.966      338.893       11.853      861.017
02/25/2014  10:23:00      -14.561      -20.355      -10.326       17.063       20.073       23.320      291.155      402.910      543.838        0.099        0.062       25.027       20.839        0.693      338.841       11.768      860.995
02/25/2014  10:24:00      120.601       65.265       22.535       36.300       34.849       31.835     1317.710     1214.442     1013.466        1.143        0.177      137.128       17.990        0.017      338.625       11.403      860.983
02/25/2014  10:25:00       80.480       59.526       49.791       45.484       35.280       45.949     2068.757     1244.709     2111.301        0.896        0.271      100.102       33.535        0.112      338.963       11.972      860.977
02/25/2014  10:26:00      117.355       62.926       25.171       47.411       37.002       42.721     2247.783     1369.159     1825.110        1.190        0.272      133.161       30.677        0.053      338.757       11.625      860.980
02/25/2014  10:27:00       32.509       37.361       21.119       36.804       37.123       30.392     1354.528     1378.110      923.674        0.328        0.183       49.525       14.392        0.084      339.565       12.985      860.969
02/25/2014  10:28:00       33.628       33.805       23.071       36.053       37.726       29.547     1299.812     1423.284      873.032        0.320        0.180       47.683       25.282        0.281      339.795       13.372      860.965
02/25/2014  10:29:00       69.361       66.065       -2.376       27.958       24.663       28.096      781.625      608.287      789.392        0.568        0.109       95.789        3.990        0.002      339.026       12.077      860.957
02/25/2014  10:30:00       69.557       61.440        7.601       34.624       27.158       26.079     1198.845      737.538      680.088        0.564        0.131       92.806        5.810        0.004      339.312       12.560      860.950
02/25/2014  10:31:00       49.474       63.473       63.559       37.932       34.967       33.479     1438.851     1222.698     1120.847        0.715        0.189       80.477       13.258        0.027      339.475       12.835      860.940
02/25/2014  10:32:00       24.521       72.818       84.611       43.458       56.099       31.169     1888.568     3147.052      971.509        0.953        0.300       76.836       27.789        0.131      339.571       12.997      860.930
02/25/2014  10:33:00       49.421       72.408       62.724       41.502       33.061       40.604     1722.400     1093.039     1648.667        0.804        0.223       87.666       19.109        0.048      339.316       12.566      860.926
02/25/2014  10:34:00       47.004       54.453       -7.566       20.305       23.717       25.385      412.282      562.480      644.383        0.343        0.081       71.934       10.647        0.022      338.943       11.939      860.925
02/25/2014  10:35:00      -23.835       16.990        1.688       39.461       20.992       23.365     1557.136      440.650      545.920        0.170        0.127       29.271       11.928        0.166      339.216       12.399      860.914
02/25/2014  10:36:00      -20.445       23.970       19.989       26.094       20.046       25.275      680.903      401.832      638.844        0.156        0.086       31.505       17.909        0.323      339.739       13.279      860.896
02/25/2014  10:37:00       25.872       53.444       66.160       38.486       38.319       24.781     1481.148     1468.378      614.116        0.573        0.178       59.377       22.380        0.142      339.760       13.315      860.894
02/25/2014  10:38:00       27.224       26.788       42.151       34.538       27.206       30.530     1192.840      740.192      932.101        0.305        0.143       38.194       23.191        0.369      339.987       13.697      860.873
02/25/2014  10:39:00        9.432       65.621       95.081       41.655       51.005       28.001     1735.162     2601.536      784.075        0.928        0.256       66.295       33.536        0.256      339.754       13.304      860.857
02/25/2014  10:40:00       59.367       48.929       58.620       29.789       24.155       29.158      887.383      583.471      850.211        0.584        0.116       76.931       17.557        0.052      339.534       12.933      860.847
02/25/2014  10:41:00       45.004       56.524       12.630       56.301       38.712       35.031     3169.797     1498.625     1227.192        0.564        0.295       72.252       25.352        0.123      339.777       13.344      860.827
02/25/2014  10:42:00       55.242       37.079       21.246       46.458       31.088       37.681     2158.365      966.446     1419.828        0.471        0.227       66.533       26.775        0.162      339.662       13.149      860.817
02/25/2014  10:43:00       21.276      -22.152       17.398       19.345       56.060       19.510      374.239     3142.722      380.627        0.257        0.195       30.714       11.455        0.139      339.703       13.218      860.808
02/25/2014  10:44:00        6.979      -39.464        9.711       50.895       50.262       33.911     2590.316     2526.302     1149.984        0.398        0.313       40.076       33.656        0.705      339.842       13.453      860.805
02/25/2014  10:45:00        2.863      -22.049       50.212       20.465       63.654       36.240      418.810     4051.818     1313.365        0.440        0.289       22.235       32.638        2.155      340.262       14.163      860.792
02/25/2014  10:46:00       55.090     -104.240        3.670       67.275       83.306       51.262     4525.908     6939.931     2627.831        1.400        0.705      117.902       42.910        0.132      339.842       13.452      860.777
02/25/2014  10:47:00       29.686       -4.335       57.616       58.532       96.739       51.861     3425.965     9358.481     2689.531        0.984        0.774       30.000       70.372        5.502      340.058       13.819      860.759
02/25/2014  10:48:00       22.638       76.988       99.311       48.801       42.838       48.736     2381.512     1835.062     2375.205        1.145        0.330       80.247       39.746        0.245      340.067       13.831      860.753
02/25/2014  10:49:00       20.514       61.852       60.752       31.528       46.402       33.097      994.016     2153.100     1095.383        0.609        0.212       65.165       18.377        0.080      340.086       13.867      860.755
02/25/2014  10:50:00       55.115       37.169       42.391       37.763       37.104       36.657     1426.068     1376.710     1343.751        0.518        0.207       66.477       29.778        0.201      339.837       13.444      860.755
02/25/2014  10:51:00       20.790      -13.946       41.886       26.968       55.334       37.363      727.257     3061.816     1395.992        0.378        0.259       25.034       42.276        2.852      339.993       13.707      860.734
02/25/2014  10:52:00       52.330       44.623       59.200       36.256       36.280       34.749     1314.486     1316.258     1207.521        0.604        0.192       68.773       22.698        0.109      339.935       13.609      860.720
02/25/2014  10:53:00        1.487      -31.887        6.699       32.244       48.433       28.045     1039.674     2345.717      786.515        0.262        0.209       31.922       28.725        0.810      339.743       13.284      860.710
02/25/2014  10:54:00       63.414       44.850       39.672       38.561       30.561       36.915     1486.979      933.984     1362.748        0.569        0.189       77.671       27.910        0.129      339.858       13.480      860.690
02/25/2014  10:55:00      133.830       80.708       -4.924       46.124       34.556       35.692     2127.410     1194.130     1273.922        1.452        0.230      156.282       17.624        0.013      339.472       12.827      860.672
02/25/2014  10:56:00       45.455       62.451       -8.732       47.471       50.812       28.218     2253.518     2581.810      796.244        0.584        0.282       77.242       17.848        0.053      339.729       13.262      860.658
02/25/2014  10:57:00       16.766      -29.007       31.322       41.810       33.726       27.976     1748.040     1137.445      782.663        0.289        0.183       33.504       20.005        0.357      340.274       14.182      860.650
02/25/2014  10:58:00       14.933      -32.715        8.193       19.646       34.745       31.464      385.972     1207.214      990.012        0.197        0.129       35.962        9.556        0.071      339.960       13.651      860.640
02/25/2014  10:59:00       55.571       23.050       20.382       52.775       28.290       28.708     2785.235      800.328      824.131        0.422        0.220       60.161       18.931        0.099      340.242       14.128      860.631
02/25/2014  11:00:00       53.207       65.459       39.570       39.295       35.803       32.495     1544.117     1281.858     1055.944        0.628        0.194       84.356       22.165        0.069      340.304       14.232      860.611
02/25/2014  11:01:00       35.859       54.959       99.418       41.270       69.835       38.912     1703.218     4876.973     1514.116        1.114        0.405       65.623       44.752        0.465      340.336       14.288      860.597
02/25/2014  11:02:00       44.392       54.238       78.998       55.957       67.441       45.820     3131.157     4548.283     2099.517        1.046        0.489       70.088       41.723        0.354      340.224       14.097      860.590
02/25/2014  11:03:00       52.059      -80.332        8.854       63.217       74.994       54.191     3996.404     5624.065     2936.684        1.090        0.628       95.726       57.906        0.366      340.057       13.815      860.564
02/25/2014  11:04:00       72.852      -78.139       18.445       59.888       97.870       49.851     3586.549     9578.533     2485.094        1.370        0.783      106.832       63.427        0.352      340.237       14.118      860.538
02/25/2014  11:05:00       12.060       10.619       43.631       41.474       82.383       36.730     1720.106     6786.960     1349.092        0.601        0.493       16.069       42.798        7.093      340.753       14.991      860.521
02/25/2014  11:06:00       28.789      -13.794       34.342       55.869       49.224       36.573     3121.334     2422.989     1337.604        0.454        0.344       31.923       40.279        1.592      340.426       14.439      860.515
02/25/2014  11:07:00       22.086      -61.350       15.993       32.267       33.908       19.921     1041.153     1149.756      396.840        0.355        0.129       65.204        9.287        0.020      340.109       13.902      860.504
02/25/2014  11:08:00       63.360       48.541       12.408       44.774       44.358       30.981     2004.714     1967.634      959.822        0.573        0.247       79.817       27.816        0.121      340.374       14.350      860.488
02/25/2014  11:09:00       90.288       87.751       61.790       87.498       73.882       72.407     7655.855     5458.549     5242.811        1.901        0.918      125.905       55.345        0.193      340.409       14.410      860.486
02/25/2014  11:10:00      122.814       93.464       31.858       39.882       38.173       38.002     1590.540     1457.174     1444.144        1.466        0.225      154.333       21.603        0.020      339.807       13.395      860.493
02/25/2014  11:11:00       54.321       37.258       -7.186       42.236       32.809       25.308     1783.886     1076.449      640.470        0.394        0.175       65.870       20.514        0.097      339.937       13.613      860.487
02/25/2014  11:12:00       44.298       42.912       18.308       47.747       32.836       32.565     2279.810     1078.184     1060.489        0.428        0.221       61.674       24.042        0.152      340.319       14.259      860.466
02/25/2014  11:13:00       65.913       52.409       -2.658       37.252       24.964       26.848     1387.685      623.213      720.833        0.491        0.137       84.209       14.318        0.029      340.520       14.597      860.453
02/25/2014  11:14:00       35.266      -33.375       20.180       51.767       63.846       31.975     2679.806     4076.332     1022.411        0.527        0.389       48.555       29.075        0.359      340.697       14.895      860.452
02/25/2014  11:15:00       44.654       -5.190       28.594       30.583       24.345       26.937      935.349      592.661      725.588        0.255        0.113       44.955       17.461        0.151      340.748       14.983      860.429
02/25/2014  11:16:00       56.019       80.376       13.658       35.571       45.936       25.708     1265.271     2110.149      660.883        0.691        0.202       97.971       21.711        0.049      340.730       14.952      860.422
02/25/2014  11:17:00       53.464       79.002       68.299       68.871       65.552       49.395     4743.156     4297.005     2439.835        1.262        0.574       95.392       41.736        0.191      341.036       15.470      860.417
02/25/2014  11:18:00       51.173      100.135      105.068       78.054       52.064       40.489     6092.458     2710.640     1639.323        1.706        0.522      112.453       32.260        0.082      340.908       15.252      860.413
02/25/2014  11:19:00       65.717       80.814       60.872       58.917       50.052       43.823     3471.252     2505.204     1920.484        1.122        0.395      104.161       38.470        0.136      340.846       15.148      860.391
02/25/2014  11:20:00       50.521       55.044       56.983       58.239       64.850       45.590     3391.825     4205.500     2078.461        0.925        0.484       74.715       31.334        0.176      340.992       15.395      860.385
02/25/2014  11:21:00       54.060       -2.489       63.453       57.898       49.301       47.532     3352.155     2430.610     2259.264        0.750        0.402       54.117       30.514        0.318      340.841       15.141      860.373
02/25/2014  11:22:00      104.564       73.167       38.884       74.821       47.477       47.446     5598.251     2254.056     2251.144        1.395        0.505      127.621       33.172        0.068      340.443       14.466      860.373
02/25/2014  11:23:00       72.499       36.334       21.788       47.533       48.757       32.532     2259.388     2377.216     1058.316        0.637        0.285       81.095       29.083        0.129      340.420       14.429      860.373
02/25/2014  11:24:00      -10.893      -17.040       16.956       33.024       50.958       27.325     1090.594     2596.722      746.658        0.256        0.222       20.224       18.891        0.873      341.000       15.410      860.359
02/25/2014  11:25:00       29.699       58.553       38.604       34.937       36.936       33.994     1220.616     1364.267     1155.613        0.477        0.187       65.654       15.304        0.054      340.521       14.599      860.357
02/25/2014  11:26:00       20.342       71.346       -4.928       43.164       27.046       27.842     1863.163      731.473      775.154        0.445        0.168       74.190       19.023        0.066      340.286       14.201      860.329
02/25/2014  11:27:00        4.227       24.116        8.544       33.983       30.034       26.975     1154.813      902.022      727.638        0.173        0.139       24.484       21.247        0.753      340.956       15.335      860.316
02/25/2014  11:28:00       72.098       60.902       24.611       41.645       35.328       41.249     1734.292     1248.059     1701.449        0.710        0.234       94.378       28.030        0.088      340.995       15.400      860.305
02/25/2014  11:29:00       35.842       36.721       43.032       62.223       38.693       36.712     3871.724     1497.168     1347.751        0.560        0.336       51.313       29.288        0.326      340.984       15.382      860.292
02/25/2014  11:30:00      -15.555       40.108       13.011       45.758       51.312       26.191     2093.787     2632.895      685.959        0.372        0.271       43.019       21.564        0.251      341.158       15.678      860.269
02/25/2014  11:31:00       73.007       52.445        6.237       56.291       48.668       31.886     3168.686     2368.536     1016.748        0.734        0.328       89.891       23.599        0.069      340.686       14.879      860.251
02/25/2014  11:32:00       80.448       29.596       40.759       56.470      104.919       47.048     3188.854    11008.095     2213.486        1.271        0.821       85.719       47.762        0.310      340.919       15.272      860.239
02/25/2014  11:33:00       81.877       39.058       82.449       76.625       83.516       48.621     5871.460     6974.973     2363.974        1.512        0.761       90.716       44.824        0.244      341.183       15.718      860.220
02/25/2014  11:34:00       45.900       56.510       57.416       54.888       54.360       39.603     3012.660     2954.972     1568.380        0.806        0.377       72.803       27.471        0.142      341.268       15.864      860.219
02/25/2014  11:35:00       49.647      -64.137       55.904       55.670       86.924       47.965     3099.128     7555.791     2300.669        1.133        0.648       81.107       38.359        0.224      341.278       15.880      860.195
02/25/2014  11:36:00       32.218       58.585       60.570       44.896       43.209       45.099     2015.626     1866.976     2033.912        0.703        0.296       66.859       30.631        0.210      341.012       15.429      860.199
02/25/2014  11:37:00      -24.900        3.210       -1.899       39.927       44.006       17.091     1594.133     1936.495      292.099        0.223        0.191       25.106       20.734        0.682      340.966       15.350      860.179
02/25/2014  11:38:00       -2.852      -82.564      -20.043       38.525       58.213       25.081     1484.141     3388.771      629.055        0.636        0.275       82.613       16.806        0.041      341.161       15.682      860.165
02/25/2014  11:39:00        9.492      -48.251       -4.934       43.338       51.596       32.760     1878.222     2662.197     1073.243        0.403        0.281       49.176       33.660        0.469      341.159       15.679      860.162
02/25/2014  11:40:00       -7.598      -20.947       11.935       32.231       43.526       23.187     1038.852     1894.537      537.615        0.205        0.174       22.282       24.940        1.253      341.262       15.854      860.145
02/25/2014  11:41:00      -13.755       11.833       34.841       32.357       26.182       25.304     1046.996      685.503      640.277        0.196        0.119       18.144       22.815        1.581      341.282       15.886      860.135
02/25/2014  11:42:00      -17.184       16.724       14.703       26.049       17.848       19.537      678.576      318.552      381.688        0.108        0.069       23.978       17.666        0.543      341.304       15.924      860.122
02/25/2014  11:43:00       15.321       61.032       36.636       36.087       56.524       58.427     1302.274     3195.012     3413.741        0.660        0.396       62.926       42.823        0.463      341.283       15.888      860.110
02/25/2014  11:44:00      108.529       82.354       63.932       63.836       66.205       55.967     4075.034     4383.135     3132.339        1.712        0.580      136.238       45.319        0.111      340.983       15.380      860.105
02/25/2014  11:45:00       48.569       73.470       27.763       38.264       22.319       29.698     1464.108      498.136      881.975        0.569        0.142       88.073       14.515        0.027      340.771       15.021      860.097
02/25/2014  11:46:00        0.136       41.873       42.173       28.215       36.388       24.397      796.072     1324.074      595.237        0.312        0.136       41.873       14.337        0.117      341.649       16.508      860.071
02/25/2014  11:47:00       25.624      -46.193       25.024       38.420       79.477       45.587     1476.093     6316.648     2078.208        0.664        0.494       52.824       57.276        1.176      341.452       16.174      860.063
02/25/2014  11:48:00       73.954       19.062       30.674       94.195       79.741       50.331     8872.612     6358.560     2533.245        1.227        0.888       76.371       45.354        0.353      341.269       15.862      860.041
02/25/2014  11:49:00       36.644       71.010      114.370       73.828       98.781       65.880     5450.577     9757.627     4340.228        1.950        0.977       79.907       70.824        0.786      341.365       16.026      860.032
02/25/2014  11:50:00       46.505       65.415       35.612       58.940       39.776       42.753     3473.922     1582.153     1827.800        0.730        0.344       80.262       19.660        0.060      341.693       16.583      860.017
02/25/2014  11:51:00       14.514       64.941       -4.813       37.584       68.682       33.415     1412.549     4717.161     1116.534        0.585        0.362       66.543       23.089        0.120      341.202       15.752      859.994
02/25/2014  11:52:00       16.039       40.945       52.416       41.528       51.710       44.970     1724.583     2673.880     2022.323        0.555        0.321       43.974       43.129        0.962      341.648       16.507      859.974
02/25/2014  11:53:00        4.078      -30.186       42.346       45.096       72.918       51.944     2033.627     5316.984     2698.146        0.638        0.502       30.460       50.250        2.721      341.507       16.268      859.957
02/25/2014  11:54:00       64.368      -66.476       26.553       55.185       89.805       58.911     3045.376     8064.986     3470.510        1.192        0.729       92.533       60.885        0.433      341.280       15.884      859.939
02/25/2014  11:55:00       80.650      -98.908        7.442       83.717      104.354       58.835     7008.587    10889.847     3461.558        1.885        1.068      127.622       75.577        0.351      341.303       15.921      859.918
02/25/2014  11:56:00      107.420     -131.733       -8.884       64.853       61.853       32.804     4205.848     3825.847     1076.071        1.904        0.455      169.978       37.425        0.048      340.703       14.904      859.907
02/25/2014  11:57:00       66.210      -68.719       37.749       72.131      103.869       70.639     5202.834    10788.821     4989.898        1.575        1.049       95.426       70.313        0.543      341.281       15.883      859.875
02/25/2014  11:58:00       35.429       29.024       57.808       40.275       34.728       34.836     1622.063     1206.053     1213.527        0.474        0.202       45.800       24.474        0.286      341.467       16.200      859.870
02/25/2014  11:59:00       23.720      -60.096        8.253       34.484       43.546       25.609     1189.145     1896.295      655.813        0.399        0.187       64.608       20.777        0.103      341.397       16.081      859.839
02/25/2014  12:00:00       -5.108       17.147       40.324       27.018       41.775       30.381      729.965     1745.133      923.034        0.267        0.170       17.892       29.652        2.747      341.989       17.085      859.817
02/25/2014  12:01:00        5.652      -49.688       35.069       61.926      103.867       59.068     3834.840    10788.450     3488.983        1.092        0.906       50.008       68.965        1.902      341.931       16.986      859.795
02/25/2014  12:02:00       82.665     -127.576      -29.160       64.540       94.841       46.551     4165.475     8994.749     2167.024        1.964        0.766      152.017       47.070        0.096      341.139       15.644      859.792
02/25/2014  12:03:00        3.756       -2.895       25.117       22.957       13.115       16.283      527.042      172.008      265.126        0.081        0.048        4.742       11.750        6.139      341.646       16.505      859.779
02/25/2014  12:04:00       42.304       94.857      105.065       70.885       52.828       49.479     5024.662     2790.795     2448.131        1.604        0.513      103.862       45.187        0.189      341.578       16.389      859.757
02/25/2014  12:05:00        1.074     -108.069       -3.112       72.992       93.809       42.976     5327.904     8800.208     1846.960        1.383        0.799      108.075       51.903        0.231      341.297       15.911      859.743
02/25/2014  12:06:00       63.162     -103.221       -1.535       51.087       70.068       44.124     2609.840     4909.581     1946.946        1.205        0.473      121.012       37.221        0.095      341.332       15.971      859.721
02/25/2014  12:07:00       44.040        0.287       46.143       54.860       98.004       54.398     3009.665     9604.745     2959.093        0.982        0.779       44.041       59.988        1.855      341.506       16.266      859.697
02/25/2014  12:08:00       59.058      108.312      121.684       68.305       66.257       54.925     4665.589     4390.046     3016.781        2.105        0.604      123.366       46.929        0.145      341.555       16.347      859.673
02/25/2014  12:09:00      128.281       56.781       45.068       41.808       54.842       52.675     1747.871     3007.633     2774.613        1.462        0.377      140.286       41.392        0.087      341.162       15.683      859.669
02/25/2014  12:10:00      -13.556        4.883       22.079       44.442       37.599       30.382     1975.066     1413.692      923.087        0.250        0.216       14.408       21.802        2.290      341.893       16.922      859.640
02/25/2014  12:11:00      -46.945      -72.135      -24.825       56.321       45.474       44.957     3172.091     2067.866     2021.161        0.764        0.363       86.065       36.215        0.177      341.651       16.512      859.618
02/25/2014  12:12:00        9.721        5.709       57.156       32.986       35.378       25.064     1088.049     1251.569      628.188        0.318        0.148       11.273       20.107        3.181      342.061       17.208      859.592
02/25/2014  12:13:00       20.934      -33.753       13.533       35.827       52.371       40.476     1283.594     2742.762     1638.289        0.371        0.283       39.718       43.652        1.208      341.526       16.301      859.587
02/25/2014  12:14:00       17.113       17.077       35.378       32.677       31.130       26.082     1067.768      969.081      680.296        0.228        0.136       24.176       18.987        0.617      341.899       16.932      859.567
02/25/2014  12:15:00      111.096      -13.269       30.925       77.533       74.836       58.648     6011.360     5600.429     3439.589        1.426        0.753      111.886       50.630        0.205      341.521       16.291      859.553
02/25/2014  12:16:00       71.935       95.504      129.461      106.404      103.821       83.862    11321.830    10778.886     7032.789        3.009        1.457      119.564       81.930        0.470      341.756       16.687      859.515
02/25/2014  12:17:00       87.006      108.675      114.491       87.786       85.868       60.425     7706.296     7373.329     3651.128        2.561        0.937      139.213       53.961        0.150      341.729       16.641      859.509
02/25/2014  12:18:00       39.106       37.837       77.659       65.893      110.147       62.447     4341.884    12132.356     3899.653        1.468        1.019       54.415       71.424        1.723      341.950       17.020      859.497
02/25/2014  12:19:00      118.909       19.446       79.972      137.673      132.804       80.360    18953.911    17636.821     6457.701        3.197        2.152      120.488      104.364        0.750      341.888       16.911      859.487
02/25/2014  12:20:00       36.750       73.327       84.053       63.068       62.502       59.201     3977.617     3906.465     3504.770        1.259        0.569       82.021       45.628        0.309      342.030       17.154      859.472
02/25/2014  12:21:00       70.716     -109.717       36.526       79.893      134.120       73.543     6382.854    17988.099     5408.626        2.407        1.489      130.532       80.880        0.384      342.026       17.146      859.452
02/25/2014  12:22:00       53.448        8.457       72.831       55.503       92.947       68.963     3080.542     8639.234     4755.868        1.235        0.824       54.113       73.047        1.822      341.805       16.774      859.440
02/25/2014  12:23:00       43.533      -61.216        5.758       39.318       33.188       36.567     1545.923     1101.463     1337.134        0.483        0.199       75.116       23.615        0.099      341.752       16.683      859.396
02/25/2014  12:24:00      118.822     -137.762       -7.627      101.816      127.712       63.784    10366.492    16310.396     4068.392        3.194        1.537      181.926       93.148        0.262      341.811       16.782      859.357
02/25/2014  12:25:00      145.746     -221.541      -21.166      111.573      155.803       78.298    12448.592    24274.460     6130.534        5.680        2.143      265.184       83.558        0.099      341.745       16.669      859.313
02/25/2014  12:26:00       90.494      116.310       44.149       65.089       52.561       86.079     4236.592     2762.675     7409.621        1.903        0.720      147.367       47.479        0.104      341.470       16.204      859.323
02/25/2014  12:27:00        4.207       -9.744      -16.589       50.941      106.362       25.072     2595.030    11312.841      628.588        0.746        0.727       10.613       27.171        6.554      341.577       16.386      859.289
02/25/2014  12:28:00      118.183     -167.329      -36.777       48.460       46.964       29.427     2348.374     2205.630      865.919        2.437        0.271      204.856       25.078        0.015      341.577       16.383      859.255
02/25/2014  12:29:00       92.489     -148.323      -19.684       55.465       47.268       31.181     3076.417     2234.250      972.245        1.861        0.314      174.797       14.465        0.007      341.663       16.530      859.225
02/25/2014  12:30:00       48.416       22.008       22.766       70.650       82.350       50.888     4991.438     6781.543     2589.565        0.885        0.718       53.183       41.119        0.598      342.051       17.190      859.194
02/25/2014  12:31:00       74.425       35.876       23.067      108.253       60.650       57.689    11718.618     3678.390     3328.001        1.304        0.936       82.621       43.235        0.274      342.223       17.483      859.167
02/25/2014  12:32:00      149.855       85.522       66.166      116.615       89.381       66.875    13599.029     7988.951     4472.222        3.010        1.303      172.542       41.858        0.059      342.073       17.225      859.122
02/25/2014  12:33:00      151.285      121.683      112.600       96.884       96.616       80.417     9386.581     9334.634     6466.954        3.778        1.259      194.149       67.853        0.122      342.091       17.255      859.109
02/25/2014  12:34:00      149.973       94.781       72.949      108.865       89.287       75.312    11851.695     7972.123     5671.873        3.114        1.275      177.413       62.340        0.123      342.166       17.381      859.106
02/25/2014  12:35:00       14.014       58.423       86.700       71.787       91.576       64.640     5153.348     8386.127     4178.372        1.442        0.886       60.080       64.186        1.141      342.755       18.385      859.069
02/25/2014  12:36:00      134.122      184.378      156.303      110.623       76.465       75.817    12237.544     5846.942     5748.285        5.012        1.192      228.000       66.146        0.084      342.117       17.299      859.069
02/25/2014  12:37:00      114.756       82.463       58.815       77.880       59.994       47.669     6065.277     3599.252     2272.357        1.768        0.597      141.312       28.898        0.042      341.676       16.553      859.067
02/25/2014  12:38:00       59.065       55.834       73.818       85.805       55.858       49.752     7362.541     3120.138     2475.258        1.250        0.648       81.278       49.780        0.375      342.197       17.438      859.033
02/25/2014  12:39:00       24.083       99.469      133.343       73.162       97.815       69.144     5352.726     9567.725     4780.868        2.397        0.985      102.343       64.605        0.398      342.505       17.959      859.011
02/25/2014  12:40:00       57.636       78.180       84.970      136.979      102.481       90.036    18763.272    10502.313     8106.569        2.701        1.869       97.129       55.821        0.330      342.280       17.577      859.001
02/25/2014  12:41:00      267.958      116.444       58.703      129.147      105.311       71.430    16678.821    11090.442     5102.237        6.083        1.644      292.166       48.675        0.028      342.080       17.236      858.973
02/25/2014  12:42:00      260.706      181.044        7.080      110.936       55.687       49.978    12306.708     3101.012     2497.766        5.935        0.895      317.403       34.822        0.012      341.608       16.436      858.986
02/25/2014  12:43:00      110.387       87.115       14.559       62.935       51.746       45.904     3960.817     2677.680     2107.197        1.436        0.437      140.621       24.779        0.031      341.717       16.624      858.989
02/25/2014  12:44:00       99.074       55.584        9.458       65.227       62.328       37.178     4254.522     3884.726     1382.232        1.126        0.476      113.601       24.266        0.046      342.100       17.274      858.971
02/25/2014  12:45:00      106.459       98.271        7.881       51.910       49.883       36.860     2694.603     2488.338     1358.654        1.380        0.327      144.882       32.308        0.050      341.722       16.631      858.971
02/25/2014  12:46:00       84.968      137.890      102.583       74.090       76.851       81.917     5489.338     5906.127     6710.378        2.743        0.905      161.967       64.575        0.159      342.164       17.380      858.941
02/25/2014  12:47:00      182.364      115.814      137.400       98.527       85.202       71.516     9707.534     7259.423     5114.508        4.381        1.104      216.032       55.566        0.066      341.994       17.090      858.908
02/25/2014  12:48:00      156.465       92.261      146.011      124.344      126.666       83.576    15461.389    16044.235     6984.871        4.639        1.925      181.641       84.552        0.217      342.222       17.478      858.897
02/25/2014  12:49:00      152.283       79.617      129.396      118.467       92.793       75.878    14034.416     8610.541     5757.489        3.733        1.420      171.840       62.191        0.131      342.156       17.365      858.896
02/25/2014  12:50:00      120.702      -25.267       66.057       97.178      111.617       76.027     9443.601    12458.257     5780.146        2.362        1.384      123.319       68.657        0.310      342.109       17.288      858.874
02/25/2014  12:51:00      158.562      184.327      181.245      120.423      115.962      105.963    14501.634    13447.240    11228.223        6.556        1.959      243.143       92.016        0.143      342.100       17.270      858.849
02/25/2014  12:52:00      100.357      126.474      151.441       95.127      110.357       81.742     9049.237    12178.631     6681.802        3.845        1.395      161.453       81.082        0.252      342.092       17.257      858.849
02/25/2014  12:53:00      110.208       -3.266       71.483      103.250      125.406       72.403    10660.486    15726.649     5242.193        2.444        1.581      110.257       77.860        0.499      342.419       17.815      858.817
02/25/2014  12:54:00       61.897       14.468       55.753       70.749      119.039       63.967     5005.405    14170.251     4091.816        1.520        1.163       63.565       78.653        1.531      342.404       17.789      858.822
02/25/2014  12:55:00       89.587      119.587      130.825       85.578       66.779       59.826     7323.596     4459.474     3579.107        2.740        0.768      149.422       57.388        0.148      342.186       17.417      858.814
02/25/2014  12:56:00      201.809       95.102       65.979       88.155       67.849       63.862     7771.307     4603.511     4078.360        3.529        0.823      223.094       43.821        0.039      342.243       17.514      858.779
02/25/2014  12:57:00      148.477      134.658       91.030      103.348       74.233       75.169    10680.882     5510.544     5650.434        3.515        1.092      200.446       55.340        0.076      342.127       17.316      858.757
02/25/2014  12:58:00       95.679       54.015       49.375       91.073      118.711       55.973     8294.368    14092.399     3133.013        2.001        1.276      109.873       57.515        0.274      342.166       17.385      858.754
02/25/2014  12:59:00       91.333     -132.183       16.523       97.618      143.727       69.045     9529.267    20657.518     4767.222        3.051        1.748      160.667       67.241        0.175      342.380       17.748      858.732
02/25/2014  13:00:00      113.463       37.750       89.981      123.759      124.149       96.847    15316.290    15413.031     9379.271        3.124        2.005      119.579      100.945        0.713      342.607       18.134      858.725
02/25/2014  13:01:00       86.387      -58.154       60.489       91.688      168.119       83.651     8406.743    28264.107     6997.440        2.908        2.183      104.138      105.943        1.035      342.484       17.924      858.710
02/25/2014  13:02:00       53.347       77.505      105.918       68.183       78.738       59.838     4648.884     6199.741     3580.558        1.725        0.721       94.090       61.566        0.428      342.568       18.068      858.696
02/25/2014  13:03:00       85.549       34.047       61.025       53.468       64.466       32.703     2858.775     4155.894     1069.456        1.014        0.404       92.075       31.709        0.119      342.380       17.749      858.687
02/25/2014  13:04:00       55.620       29.298       27.873       65.900       48.871       31.472     4342.793     2388.399      990.509        0.622        0.386       62.864       21.779        0.120      342.806       18.473      858.665
02/25/2014  13:05:00       87.483      102.673       95.092       90.002       60.643       58.472     8100.393     3677.546     3419.019        2.121        0.760      134.889       40.807        0.092      342.951       18.719      858.643
02/25/2014  13:06:00       53.443      -87.172       51.827       90.630      152.202       80.844     8213.885    23165.580     6535.724        2.552        1.896      102.250       97.500        0.909      342.600       18.121      858.643
02/25/2014  13:07:00       85.039       -9.835       25.301       50.588       82.702       45.311     2559.166     6839.651     2053.084        0.971        0.573       85.605       52.429        0.375      342.397       17.777      858.635
02/25/2014  13:08:00       -7.865       25.908       26.914       48.105       75.479       44.725     2314.107     5697.129     2000.311        0.573        0.501       27.076       35.794        1.748      342.685       18.267      858.588
02/25/2014  13:09:00      114.563       26.006       88.115       90.505       65.154       52.749     8191.203     4245.027     2782.461        1.839        0.761      117.477       50.344        0.184      342.547       18.031      858.579
02/25/2014  13:10:00       91.152      -44.467       35.248       91.071       83.133       53.855     8293.872     6911.174     2900.407        1.481        0.905      101.420       53.046        0.274      342.383       17.753      858.566
02/25/2014  13:11:00       10.199     -100.826        8.947       56.816      119.993       40.760     3228.024    14398.282     1661.371        1.481        0.964      101.340       51.487        0.258      342.681       18.260      858.564
02/25/2014  13:12:00      107.667     -104.975       10.235       78.975      111.456       68.345     6237.059    12422.464     4671.106        2.302        1.167      150.373       77.275        0.264      342.646       18.199      858.560
02/25/2014  13:13:00       93.429     -106.252       -7.223      144.094      117.258       52.351    20762.952    13749.327     2740.664        2.865        1.863      141.487       53.816        0.145      342.514       17.974      858.531
02/25/2014  13:14:00       70.732      -65.179       26.428       84.590       93.663       66.085     7155.548     8772.762     4367.248        1.512        1.015       96.184       27.590        0.082      342.701       18.294      858.519
02/25/2014  13:15:00       50.860        4.538       91.521       81.538      126.811       76.292     6648.474    16081.044     5820.491        1.976        1.428       51.062       86.284        2.855      342.649       18.205      858.516
02/25/2014  13:16:00      160.629     -173.064        6.576      106.419      119.554       61.918    11324.975    14293.096     3833.868        4.262        1.473      236.120       76.302        0.104      342.361       17.715      858.488
02/25/2014  13:17:00       54.436       -3.333       89.370       85.858      177.829       98.324     7371.597    31623.066     9667.584        2.980        2.433       54.537      119.111        4.770      342.572       18.073      858.457
02/25/2014  13:18:00       71.447      137.866      122.987       73.469       93.984       77.235     5397.671     8832.909     5965.293        2.971        1.010      155.279       71.040        0.209      342.624       18.162      858.457
02/25/2014  13:19:00       47.308       50.073       68.059       69.502       77.615       50.659     4830.585     6024.104     2566.383        1.140        0.671       68.886       48.694        0.500      342.825       18.505      858.437
02/25/2014  13:20:00      165.692       81.863       65.944      119.147       65.614       61.118    14196.001     4305.156     3735.399        3.037        1.112      184.812       32.602        0.031      342.699       18.290      858.426
02/25/2014  13:21:00       65.076      -14.925       79.178       84.900      118.854       70.457     7208.055    14126.230     4964.224        1.851        1.315       66.766       89.831        1.810      342.801       18.465      858.425
02/25/2014  13:22:00       70.508       59.937       23.100       59.350       56.489       44.220     3522.392     3191.001     1955.399        0.888        0.433       92.541       18.146        0.038      342.850       18.547      858.417
02/25/2014  13:23:00       65.347       80.693       62.129       78.575       73.610       67.133     6173.981     5418.447     4506.776        1.537        0.805      103.835       55.236        0.283      342.534       18.011      858.422
02/25/2014  13:24:00       38.229       52.555       10.663       42.884       31.210       23.405     1839.046      974.069      547.806        0.385        0.168       64.988       11.118        0.029      342.259       17.543      858.412
02/25/2014  13:25:00       84.188       44.516       34.569       70.237       57.639       51.277     4933.263     3322.262     2629.368        1.057        0.544       95.233       19.900        0.044      342.553       18.042      858.389
02/25/2014  13:26:00      197.530      154.206       31.840       61.469       44.661       46.291     3778.403     1994.645     2142.863        3.586        0.396      250.595       19.734        0.006      342.024       17.141      858.381
02/25/2014  13:27:00      193.771      133.144       39.326       90.640       95.419       68.465     8215.531     9104.766     4687.485        3.941        1.100      235.105       47.468        0.041      342.306       17.620      858.363
02/25/2014  13:28:00       60.641       50.538       11.798       78.084       67.364       57.581     6097.070     4537.868     3315.599        1.016        0.698       78.939       50.775        0.414      342.865       18.574      858.341
02/25/2014  13:29:00      166.686      112.445      115.303      118.307      108.730       94.222    13996.451    11822.296     8877.854        4.420        1.735      201.068       66.311        0.109      342.674       18.247      858.313
02/25/2014  13:30:00       95.270      155.367      148.846      110.788      111.645       92.983    12274.068    12464.629     8645.816        4.437        1.669      182.251       86.625        0.226      342.352       17.699      858.292
02/25/2014  13:31:00      105.421      124.939      131.781      118.803      111.013       82.546    14114.166    12323.840     6813.825        3.866        1.663      163.473       79.499        0.236      342.787       18.438      858.282
02/25/2014  13:32:00      223.312      138.280       41.106      120.626       78.969       84.240    14550.614     6236.121     7096.459        4.928        1.394      262.658       70.269        0.072      342.393       17.769      858.291
02/25/2014  13:33:00      168.639      135.034       31.317      124.123      111.401       60.399    15406.481    12410.212     3648.092        3.955        1.573      216.040       54.356        0.063      342.490       17.934      858.286
02/25/2014  13:34:00      211.294      102.349       51.455      121.065      101.357       75.885    14656.801    10273.208     5758.470        4.422        1.534      234.778       59.446        0.064      342.589       18.101      858.260
02/25/2014  13:35:00      138.127       -6.541       54.781      115.703      111.027       81.451    13387.106    12326.938     6634.289        2.723        1.617      138.282       68.651        0.246      342.769       18.410      858.252
02/25/2014  13:36:00      145.195      148.288      126.217      131.370       91.291       83.441    17258.157     8334.110     6962.320        4.577        1.628      207.535       67.048        0.104      342.706       18.299      858.236
02/25/2014  13:37:00       85.308      154.287      145.664       99.611       87.392       72.039     9922.341     7637.332     5189.653        3.752        1.137      176.300       64.104        0.132      342.954       18.722      858.222
02/25/2014  13:38:00      149.143       67.371       75.700      127.839      197.740       84.465    16342.871    39101.027     7134.262        4.753        3.129      163.654      113.076        0.477      342.478       17.912      858.216
02/25/2014  13:39:00       99.876     -229.908      -19.170       74.861       86.060       43.617     5604.150     7406.308     1902.431        3.905        0.746      250.665       44.670        0.032      342.292       17.595      858.222
02/25/2014  13:40:00       93.314     -141.507       -7.064       57.435       67.493       40.143     3298.781     4555.365     1611.488        1.912        0.473      169.504       36.150        0.045      342.320       17.645      858.198
02/25/2014  13:41:00       71.169       27.646       69.932       47.842       61.401       33.786     2288.903     3770.130     1141.473        0.896        0.360       76.350       32.668        0.183      342.332       17.668      858.198
02/25/2014  13:42:00       89.994       64.056       31.489       62.865       62.348       45.092     3952.003     3887.265     2033.265        1.153        0.494      110.463       31.873        0.083      342.629       18.172      858.195
02/25/2014  13:43:00      101.562       62.942       17.721       66.218       42.350       37.295     4384.770     1793.557     1390.935        1.108        0.378      119.484       37.542        0.099      342.589       18.104      858.188
02/25/2014  13:44:00       87.407       20.730       31.801       80.853       64.313       43.908     6537.260     4136.210     1927.869        1.084        0.630       89.832       42.997        0.229      342.879       18.597      858.168
02/25/2014  13:45:00        6.770       62.241       98.506       68.474       94.710       69.818     4688.745     8970.018     4874.613        1.607        0.927       62.608       66.575        1.131      343.230       19.194      858.154
02/25/2014  13:46:00      224.328     -264.301      -49.346      117.871      139.273       97.300    13893.648    19396.886     9467.253        8.268        2.138      346.667      101.809        0.086      342.418       17.811      858.124
02/25/2014  13:47:00      149.779     -181.444      -21.438      118.279      143.052       71.767    13989.821    20463.853     5150.467        4.770        1.980      235.278       91.927        0.153      342.352       17.698      858.146
02/25/2014  13:48:00      102.178      -77.625       41.581       91.481       98.495       81.300     8368.698     9701.218     6609.754        2.143        1.234      128.320       76.879        0.359      342.562       18.056      858.160
02/25/2014  13:49:00      132.786      -90.141       21.777       73.927      100.036       66.724     5465.270    10007.236     4452.063        2.307        0.996      160.491       73.604        0.210      342.325       17.651      858.160
02/25/2014  13:50:00       51.438       76.120       95.962       62.054       51.536       40.546     3850.670     2655.930     1643.980        1.290        0.408       91.871       34.243        0.139      342.415       17.808      858.145
02/25/2014  13:51:00       18.474      -19.732       32.876       72.008       55.268       36.781     5185.179     3054.559     1352.876        0.570        0.480       27.030       31.028        1.318      342.713       18.316      858.123
02/25/2014  13:52:00       -2.297       19.283       40.336       45.810       47.935       45.111     2098.579     2297.733     2035.018        0.422        0.322       19.420       32.904        2.871      342.846       18.543      858.116
02/25/2014  13:53:00       42.324       75.328       96.433       43.703       49.371       38.140     1909.968     2437.453     1454.654        1.128        0.290       86.404       37.594        0.189      342.675       18.251      858.125
02/25/2014  13:54:00       52.328       51.832       72.758       56.924       49.416       39.719     3240.372     2441.965     1577.594        0.899        0.363       73.653       34.903        0.225      342.661       18.226      858.117
02/25/2014  13:55:00       11.557       10.811       65.015       37.269       63.910       42.522     1388.954     4084.507     1808.145        0.588        0.364       15.826       42.591        7.243      343.064       18.913      858.098
02/25/2014  13:56:00      116.489       70.316       19.460       95.782       47.440       54.825     9174.257     2250.563     3005.742        1.666        0.722      136.066       37.061        0.074      342.686       18.267      858.091
02/25/2014  13:57:00       33.903       10.802       -1.964       33.478       31.917       26.026     1120.763     1018.671      677.351        0.204        0.141       35.583        9.518        0.072      342.530       18.004      858.080
02/25/2014  13:58:00       51.013       35.464        9.246       32.380       43.363       29.670     1048.455     1880.372      880.338        0.388        0.190       62.129       29.168        0.220      342.636       18.185      858.073
02/25/2014  13:59:00      141.754      114.971       21.459       94.886       80.494       59.286     9003.358     6479.232     3514.802        2.638        0.950      182.517       36.119        0.039      342.754       18.382      858.058
02/25/2014  14:00:00      146.959      132.265       55.991      127.636       84.983       86.079    16291.007     7222.193     7409.584        3.657        1.546      197.714       76.356        0.149      342.693       18.280      858.043
02/25/2014  14:01:00      218.213      138.248       30.645      125.480       99.452       68.151    15745.291     9890.769     4644.538        4.897        1.514      258.320       28.201        0.012      342.642       18.192      858.036
02/25/2014  14:02:00      192.222      117.817        8.711      116.646      111.920       85.459    13606.331    12525.975     7303.190        4.216        1.672      225.456       37.607        0.028      342.724       18.332      858.032
02/25/2014  14:03:00      130.286       85.518       62.735       97.152       64.498       50.435     9438.532     4159.969     2543.673        2.218        0.807      155.846       38.885        0.062      342.795       18.453      858.031
02/25/2014  14:04:00      188.923       80.625       46.320      142.274       77.418       53.361    20241.999     5993.576     2847.379        3.670        1.454      205.408       50.455        0.060      342.954       18.722      858.015
02/25/2014  14:05:00       46.611      114.327      126.945       81.398       99.005       74.339     6625.562     9802.069     5526.215        2.665        1.098      123.464       63.714        0.266      342.796       18.456      858.000
02/25/2014  14:06:00        8.860      145.422      185.738       92.746      109.241       72.454     8601.785    11933.590     5249.583        4.075        1.289      145.692       67.974        0.218      342.943       18.704      857.985
02/25/2014  14:07:00       96.484       95.027       84.345       94.641       87.710       81.680     8956.873     7693.043     6671.622        2.438        1.166      135.422       71.834        0.281      342.783       18.434      858.013
02/25/2014  14:08:00       65.555       91.533        5.316       92.567       73.839       49.911     8568.671     5452.226     2491.123        1.460        0.826      112.586       34.225        0.092      342.713       18.315      858.008
02/25/2014  14:09:00       51.101       81.538      -15.363       82.320       80.782       51.015     6776.500     6525.793     2602.503        1.270        0.795       96.228       34.152        0.126      342.582       18.092      857.982
02/25/2014  14:10:00       48.380       43.967       -4.717       40.765       70.443       38.894     1661.826     4962.272     1512.771        0.621        0.407       65.374       20.752        0.101      342.672       18.245      857.986
02/25/2014  14:11:00       40.710      109.174       -8.966       63.335       80.931       40.505     4011.276     6549.786     1640.637        1.293        0.610      116.518       43.698        0.141      342.626       18.165      857.981
02/25/2014  14:12:00       48.173      187.744      -18.725       50.920       97.931       50.803     2592.800     9590.483     2580.963        2.634        0.738      193.826       50.655        0.068      342.585       18.095      857.967
02/25/2014  14:13:00      187.460      118.722       30.672       94.761       69.074       57.171     8979.611     4771.158     3268.483        3.359        0.851      221.892       35.947        0.026      342.872       18.583      857.958
02/25/2014  14:14:00       44.160       96.868       89.171       89.446       81.611       66.829     8000.537     6660.304     4466.147        1.920        0.956      106.459       49.505        0.216      342.989       18.783      857.943
02/25/2014  14:15:00       96.916       86.176       44.257       68.319       53.474       54.453     4667.467     2859.422     2965.138        1.463        0.525      129.688       38.952        0.090      342.888       18.613      857.921
02/25/2014  14:16:00       30.805      153.728        3.189       72.778      125.061       61.804     5296.622    15640.285     3819.729        2.467        1.238      156.784       54.113        0.119      342.805       18.470      857.890
02/25/2014  14:17:00       73.521      132.162       -9.370       88.411       84.172       63.953     7816.447     7084.871     4090.011        2.097        0.950      151.235       52.109        0.119      342.718       18.323      857.866
02/25/2014  14:18:00      125.921      103.877       37.033       87.609       65.463       60.430     7675.377     4285.390     3651.787        2.181        0.781      163.238       36.207        0.049      342.791       18.448      857.867
02/25/2014  14:19:00       67.893       18.786       82.241      113.615      139.534       84.722    12908.456    19469.790     7177.869        2.563        1.978       70.444       91.430        1.685      343.001       18.802      857.875
02/25/2014  14:20:00       71.855     -124.234       -0.548       61.031       60.737       36.655     3724.828     3688.999     1343.566        1.468        0.438      143.517       37.775        0.069      342.860       18.563      857.899
02/25/2014  14:21:00       40.834       10.538       27.879       37.129       48.876       31.479     1378.535     2388.837      990.902        0.366        0.238       42.172       23.536        0.311      343.001       18.806      857.876
02/25/2014  14:22:00       25.039      102.174       -9.683       42.125       74.475       35.323     1774.542     5546.562     1247.700        0.986        0.428      105.198       37.717        0.129      342.757       18.390      857.854
02/25/2014  14:23:00       22.345      140.289       -8.983       47.392       57.958       35.735     2245.971     3359.109     1276.993        1.357        0.344      142.057       33.551        0.056      342.687       18.272      857.839
02/25/2014  14:24:00       -8.161      126.301      -17.606       42.921       80.875       30.556     1842.229     6540.745      933.662        1.282        0.466      126.564       33.068        0.068      342.696       18.286      857.828
02/25/2014  14:25:00      -56.505       68.136       -4.967       20.570       55.776       26.532      423.109     3110.991      703.939        0.605        0.212       88.518       25.524        0.083      342.704       18.302      857.809
02/25/2014  14:26:00       30.574      -36.669       -8.388       45.835       53.165       27.433     2100.871     2826.479      752.561        0.401        0.284       47.743       34.843        0.533      343.084       18.947      857.807
02/25/2014  14:27:00       35.463      -24.194       43.556       73.073      105.510       55.642     5339.598    11132.385     3096.069        1.165        0.978       42.930       66.052        2.367      343.075       18.931      857.786
02/25/2014  14:28:00       19.163       78.592      100.300       45.614       91.770       47.285     2080.656     8421.750     2235.908        1.467        0.637       80.894       51.194        0.400      343.012       18.823      857.770
02/25/2014  14:29:00       40.430       49.469       50.858       47.204       51.759       35.296     2228.244     2679.030     1245.803        0.641        0.308       63.889       30.940        0.235      343.196       19.137      857.754
02/25/2014  14:30:00      171.958      109.524       23.156       54.900       54.698       51.837     3014.011     2991.917     2687.049        2.540        0.435      203.875       23.388        0.013      342.740       18.359      857.762
02/25/2014  14:31:00      131.155       75.574       -8.427       58.285       40.532       34.137     3397.144     1642.820     1165.332        1.459        0.310      151.371       21.681        0.021      342.626       18.166      857.775
02/25/2014  14:32:00       29.270       57.441        1.912       52.475       36.469       28.530     2753.610     1330.010      813.956        0.453        0.245       64.468       18.940        0.086      342.766       18.405      857.776
02/25/2014  14:33:00       51.383       45.399      -18.978       21.049       68.586       16.612      443.055     4704.019      275.959        0.524        0.271       68.565        5.001        0.005      342.410       17.799      857.780
02/25/2014  14:34:00        8.089       16.832       10.675       29.392       34.463       20.883      863.905     1187.708      436.088        0.147        0.124       18.675        4.652        0.062      342.703       18.298      857.772
02/25/2014  14:35:00       64.319       64.470       -1.484       36.595       39.484       33.926     1339.184     1558.978     1150.950        0.617        0.202       91.067       24.788        0.074      342.570       18.073      857.769
02/25/2014  14:36:00       30.064       95.476       -5.634       42.411       26.971       25.329     1798.713      727.409      641.542        0.661        0.158      100.097       20.279        0.041      342.482       17.922      857.765
02/25/2014  14:37:00      -29.829       18.485      -10.351       20.564       27.816       21.861      422.891      773.711      477.924        0.151        0.084       35.092       15.185        0.187      342.613       18.145      857.767
02/25/2014  14:38:00      -42.145       34.612      -13.050       26.797       29.925       20.217      718.099      895.493      408.714        0.258        0.101       54.536       13.072        0.057      342.818       18.493      857.756
02/25/2014  14:39:00      -36.989       36.479       12.857       55.203       51.802       31.291     3047.360     2683.478      979.127        0.479        0.335       51.951       30.665        0.348      343.134       19.031      857.734
02/25/2014  14:40:00     -113.922      -60.578      -11.927       54.354       29.875       25.112     2954.343      892.545      630.607        1.063        0.224      129.027       24.537        0.036      342.938       18.697      857.725
02/25/2014  14:41:00      -16.401      -33.680       17.344       82.126       34.791       35.029     6744.738     1210.400     1227.007        0.544        0.459       37.462       35.568        0.901      343.129       19.023      857.722
02/25/2014  14:42:00      -32.597      -90.889        3.668       37.164       53.532       28.197     1381.148     2865.705      795.057        0.719        0.252       96.557       16.844        0.030      342.619       18.156      857.732
02/25/2014  14:43:00      -53.150      -53.206       -4.208       40.932       41.013       22.225     1675.446     1682.065      493.937        0.476        0.193       75.205       17.555        0.054      342.595       18.113      857.729
02/25/2014  14:44:00      -10.209      -52.466        4.046       29.240       36.860       26.214      854.973     1358.666      687.161        0.289        0.145       53.450       17.395        0.106      342.984       18.777      857.717
02/25/2014  14:45:00        9.690      -99.356        0.545       53.544       45.202       32.699     2866.988     2043.210     1069.239        0.797        0.299       99.828       30.193        0.091      342.749       18.378      857.706
02/25/2014  14:46:00      -66.832        7.446       -2.783       66.653       33.038       37.398     4442.600     1091.498     1398.612        0.573        0.347       67.245       36.254        0.291      342.945       18.710      857.683
02/25/2014  14:47:00       45.736       32.637       21.397       75.856       47.307       31.343     5754.188     2237.916      982.397        0.629        0.449       56.187       19.252        0.117      343.075       18.931      857.676
02/25/2014  14:48:00       47.827       71.561       -5.649       85.870       45.364       35.488     7373.576     2057.937     1259.397        0.906        0.535       86.072       26.105        0.092      342.751       18.378      857.676
02/25/2014  14:49:00       63.358      100.786        0.672       84.680       45.331       36.296     7170.727     2054.914     1317.383        1.236        0.527      119.046       37.382        0.099      342.631       18.175      857.666
02/25/2014  14:50:00       63.483       49.657       -2.045       56.114       40.101       21.712     3148.757     1608.128      471.399        0.586        0.261       80.597       17.720        0.048      342.659       18.222      857.664
02/25/2014  14:51:00       17.347      201.781      -36.457       34.569       43.655       20.229     1195.016     1905.767      409.199        2.293        0.175      202.525       19.702        0.009      342.551       18.038      857.652
02/25/2014  14:52:00        0.792       77.670      -31.132       15.991       50.041       11.986      255.711     2504.131      143.658        0.495        0.145       77.674       15.267        0.039      342.588       18.104      857.644
02/25/2014  14:53:00       -1.221       11.015       -5.919       17.637       12.551       15.193      311.046      157.520      230.842        0.043        0.035       11.082        5.437        0.241      342.899       18.631      857.649
02/25/2014  14:54:00       57.733       41.806        8.326       44.677       37.371       29.593     1996.047     1396.570      875.754        0.471        0.213       71.280       22.010        0.095      342.729       18.342      857.643
02/25/2014  14:55:00       50.984       52.575        4.670       38.738       48.905       32.781     1500.615     2391.711     1074.608        0.518        0.248       73.236       26.054        0.127      342.750       18.378      857.615
02/25/2014  14:56:00        5.543       52.872       -5.536       33.428       33.394       26.402     1117.416     1115.127      697.044        0.289        0.146       53.161       21.157        0.158      342.909       18.648      857.604
02/25/2014  14:57:00      -20.638      128.411      -22.285       32.179      104.100       24.818     1035.515    10836.855      615.917        1.495        0.624      130.058       42.460        0.107      342.787       18.439      857.584
02/25/2014  14:58:00      -32.849      198.809      -29.300       34.557       36.727       18.274     1194.179     1348.887      333.944        2.217        0.144      201.504       19.039        0.009      342.650       18.206      857.579
02/25/2014  14:59:00       15.679      139.060      -11.393       46.751       69.889       37.351     2185.682     4884.478     1395.107        1.409        0.423      139.941       45.839        0.107      342.598       18.119      857.579
02/25/2014  15:00:00       -6.164      107.845       -8.250       41.923       28.567       25.576     1757.557      816.079      654.151        0.748        0.161      108.021       19.796        0.034      342.809       18.477      857.569
02/25/2014  15:01:00       38.158       80.826        8.185       62.775       57.962       42.892     3940.674     3359.566     1839.766        0.860        0.457       89.380       39.721        0.198      342.855       18.557      857.566
02/25/2014  15:02:00      124.925      103.378       -1.696      103.376       79.025       51.582    10686.645     6245.028     2660.713        2.294        0.980      162.152       32.350        0.040      342.770       18.410      857.543
02/25/2014  15:03:00      127.143       89.056        7.149       84.878       54.283       44.656     7204.310     2946.617     1994.192        1.814        0.607      155.230       32.191        0.043      342.790       18.445      857.545
02/25/2014  15:04:00      102.184       62.241       21.775       58.460       52.450       48.568     3417.573     2750.979     2358.857        1.166        0.426      119.648       22.683        0.036      342.995       18.795      857.565
02/25/2014  15:05:00      182.342      103.928       33.677      116.401       59.160       53.704    13549.093     3499.915     2884.125        3.255        0.997      209.880       29.052        0.019      342.954       18.725      857.548
02/25/2014  15:06:00      116.491       48.591       37.343      109.336       59.609       51.041    11954.317     3553.264     2605.143        1.772        0.906      126.219       18.981        0.023      342.886       18.609      857.565
02/25/2014  15:07:00       80.368       32.577        9.361       21.771       21.623       26.546      473.980      467.545      704.682        0.463        0.082       86.719       14.193        0.027      342.720       18.327      857.581
02/25/2014  15:08:00      116.049       57.470       11.200       42.693       40.060       29.343     1822.667     1604.821      861.025        1.059        0.214      129.500       15.529        0.014      342.677       18.253      857.573
02/25/2014  15:09:00       93.436       51.369        6.608       42.735       37.194       43.513     1826.273     1383.410     1893.399        0.826        0.255      106.625       30.931        0.084      342.769       18.410      857.570
02/25/2014  15:10:00      -47.358       42.913       -7.373       56.766       39.604       26.812     3222.415     1568.484      718.878        0.482        0.275       63.909       25.510        0.159      342.722       18.332      857.538
02/25/2014  15:11:00      -90.837       86.247      -18.720       40.441       56.852       31.429     1635.482     3232.110      987.756        1.095        0.293      125.260       14.881        0.014      342.940       18.702      857.507
02/25/2014  15:12:00      -63.456      119.734       -4.145       52.514       70.001       32.335     2757.668     4900.134     1045.564        1.354        0.435      135.510       27.935        0.042      342.813       18.484      857.499
02/25/2014  15:13:00       95.310       67.807       48.227       42.300       48.077       40.785     1789.300     2311.381     1663.443        1.088        0.288      116.969       31.099        0.071      342.788       18.442      857.514
02/25/2014  15:14:00       55.580       84.363       72.854       74.725       55.112       41.795     5583.771     3037.336     1746.802        1.294        0.518      101.026       38.292        0.144      343.053       18.894      857.497
02/25/2014  15:15:00       92.559       42.480       55.979       62.558       64.155       44.534     3913.514     4115.907     1983.313        1.176        0.501      101.841       34.897        0.117      342.778       18.424      857.496
02/25/2014  15:16:00       26.554      -32.510       17.669       37.808       47.554       31.298     1429.413     2261.414      979.534        0.337        0.234       41.977       26.175        0.389      342.911       18.653      857.477
02/25/2014  15:17:00      105.172       98.464       73.068       83.568       60.665       56.476     6983.549     3680.233     3189.572        1.997        0.693      144.070       56.748        0.155      343.004       18.808      857.455
02/25/2014  15:18:00      103.473       67.119       46.752      100.390       56.868       38.181    10078.131     3233.985     1457.758        1.608        0.738      123.336       42.896        0.121      343.091       18.957      857.440
02/25/2014  15:19:00        9.872       54.377       77.885       63.185       68.666       57.135     3992.379     4714.980     3264.407        1.054        0.599       55.266       49.130        0.790      343.244       19.218      857.420
02/25/2014  15:20:00       49.752      133.964      138.829       67.706       79.397       69.592     4584.158     6303.889     4843.113        2.771        0.787      142.904       55.959        0.153      342.939       18.698      857.405
02/25/2014  15:21:00       86.391      128.172      112.554       43.220       51.640       53.904     1867.996     2666.638     2905.644        2.200        0.372      154.569       41.433        0.072      342.750       18.377      857.409
02/25/2014  15:22:00       24.491       49.358       67.843       30.098       50.828       37.866      905.883     2583.483     1433.832        0.628        0.246       55.100       38.078        0.478      342.890       18.616      857.402
02/25/2014  15:23:00        8.223       54.279       69.947       27.106       43.744       32.633      734.715     1913.540     1064.933        0.581        0.186       54.898       32.196        0.344      343.004       18.811      857.394
02/25/2014  15:24:00       52.343       30.625       15.984       59.969       48.868       40.965     3596.340     2388.086     1678.092        0.580        0.383       60.644       30.689        0.256      342.947       18.714      857.381
02/25/2014  15:25:00       69.878       87.926       54.416       55.156       44.574       45.943     3042.164     1986.874     2110.736        1.136        0.357      112.312       36.761        0.107      342.965       18.745      857.375
02/25/2014  15:26:00       36.517       14.963       10.918       41.380       36.212       18.561     1712.339     1311.344      344.524        0.252        0.168       39.464       17.316        0.193      343.007       18.816      857.380
02/25/2014  15:27:00       55.488       45.911       31.845       53.829       53.863       38.669     2897.611     2901.197     1495.314        0.675        0.365       72.019       25.268        0.123      342.990       18.785      857.359
02/25/2014  15:28:00       80.612       82.893       56.030       39.634       26.705       39.327     1570.871      713.131     1546.639        1.017        0.192      115.627       24.231        0.044      342.872       18.586      857.365
02/25/2014  15:29:00       40.557       40.811       25.825       41.577       31.354       31.519     1728.664      983.078      993.460        0.384        0.185       57.536       27.896        0.235      343.056       18.899      857.362
02/25/2014  15:30:00       68.241       53.677       47.556       58.361       37.906       50.747     3406.059     1436.858     2575.294        0.861        0.371       86.822       43.095        0.246      343.039       18.871      857.362
02/25/2014  15:31:00       54.188       40.909       48.214       53.160       59.015       47.228     2825.986     3482.743     2230.452        0.774        0.427       67.897       16.175        0.057      343.063       18.912      857.358
02/25/2014  15:32:00       80.360      -17.788       40.869       38.438       21.176       29.427     1477.474      448.432      865.936        0.562        0.140       82.305       16.812        0.042      342.804       18.470      857.355
02/25/2014  15:33:00       57.065      -10.270       16.873       31.985       32.186       29.234     1023.018     1035.935      854.640        0.328        0.146       57.982       23.969        0.171      342.884       18.606      857.329
02/25/2014  15:34:00        2.060       15.817       34.984       25.383       23.943       14.640      644.280      573.265      214.325        0.145        0.072       15.950       14.656        0.844      343.229       19.194      857.306
02/25/2014  15:35:00        4.000       36.893       39.359       30.622       23.736       31.172      937.677      563.382      971.694        0.270        0.124       37.109       22.647        0.372      343.039       18.870      857.298
02/25/2014  15:36:00       24.464       -6.178       39.050       55.740       32.486       25.191     3106.958     1055.310      634.564        0.348        0.240       25.232       24.232        0.922      343.201       19.145      857.297
02/25/2014  15:37:00        0.609       16.766       47.149       23.236       29.189       16.239      539.922      851.990      263.714        0.208        0.083       16.777        5.065        0.091      343.161       19.078      857.294
02/25/2014  15:38:00       80.751       50.349       38.963       78.102       51.341       42.116     6099.872     2635.891     1773.729        1.054        0.525       95.162       34.733        0.133      343.020       18.837      857.293
02/25/2014  15:39:00       53.698       11.171       44.609       65.175       84.894       35.220     4247.793     7207.058     1240.466        0.884        0.635       54.848       41.197        0.564      343.004       18.811      857.287
02/25/2014  15:40:00      -19.972       57.784      105.041       17.952       51.190       36.099      322.270     2620.452     1303.156        0.951        0.212       61.139       38.116        0.389      343.104       18.981      857.268
02/25/2014  15:41:00       -8.715       32.475       49.264       26.769       32.213       28.024      716.590     1037.690      785.372        0.305        0.127       33.624       12.413        0.136      343.156       19.070      857.261
02/25/2014  15:42:00       59.778      174.428      -17.762       66.176      105.741       54.151     4379.270    11181.256     2932.282        2.640        0.925      184.387       58.611        0.101      342.886       18.609      857.257
02/25/2014  15:43:00      122.094      153.262       -3.196      111.599       77.765       60.472    12454.431     6047.454     3656.889        3.028        1.108      195.950       48.273        0.061      342.883       18.600      857.262
02/25/2014  15:44:00       32.066      193.010      -26.971       74.766       99.233       47.480     5589.976     9847.123     2254.359        2.835        0.885      195.655       48.563        0.062      342.895       18.621      857.255
02/25/2014  15:45:00       53.813       94.341       -4.427       58.887       76.957       52.276     3467.661     5922.437     2732.807        1.197        0.606      108.610       48.004        0.195      342.998       18.798      857.254
02/25/2014  15:46:00       30.402       83.240        6.004       62.651       53.992       40.896     3925.100     2915.170     1672.509        0.820        0.426       88.618       31.871        0.129      342.839       18.529      857.241
02/25/2014  15:47:00       18.297      133.742      -24.438       59.078       75.438       41.423     3490.171     5690.945     1715.872        1.486        0.545      134.988       46.660        0.119      343.018       18.833      857.231
02/25/2014  15:48:00      -58.860      126.170      -11.140       52.838       53.083       42.702     2791.812     2817.821     1823.438        1.347        0.372      139.224       35.789        0.066      343.163       19.080      857.224
02/25/2014  15:49:00      -70.905      191.277      -18.680       55.892       56.295       36.979     3123.884     3169.081     1367.415        2.481        0.383      203.996       23.364        0.013      342.916       18.657      857.207
02/25/2014  15:50:00       -5.533      160.117      -27.419       54.719       60.499       27.883     2994.162     3660.078      777.464        1.692        0.372      160.212       26.291        0.027      342.915       18.659      857.202
02/25/2014  15:51:00      -86.704      119.778      -11.807       51.608       50.986       36.838     2663.360     2599.595     1357.058        1.431        0.331      147.866       31.844        0.046      343.123       19.012      857.198
02/25/2014  15:52:00     -148.095      133.372      -40.549       36.987       38.907       24.398     1368.029     1513.751      595.242        2.242        0.174      199.299       22.558        0.013      342.931       18.683      857.191
02/25/2014  15:53:00      -92.699       93.590      -27.633       37.652       37.920       30.358     1417.674     1437.892      921.637        1.095        0.189      131.727       28.973        0.048      342.881       18.600      857.181
02/25/2014  15:54:00      -54.142      144.730      -23.463       28.521       30.820       18.442      813.467      949.875      340.093        1.327        0.105      154.526       14.225        0.008      342.826       18.507      857.172
02/25/2014  15:55:00      -26.644       61.641      -17.572       21.272       29.327       16.511      452.492      860.102      272.613        0.320        0.079       67.153        5.718        0.007      342.946       18.710      857.168
02/25/2014  15:56:00       18.703       27.922        2.891       21.538       15.908       13.598      463.907      253.063      184.910        0.102        0.045       33.607        6.402        0.036      342.973       18.758      857.149
02/25/2014  15:57:00      128.746       95.463       13.193      118.400       98.341       45.447    14018.540     9670.883     2065.427        2.580        1.288      160.277       23.851        0.022      342.891       18.617      857.135
02/25/2014  15:58:00      185.838      115.590       13.627       96.664       64.326       60.875     9343.834     4137.816     3705.795        3.263        0.859      218.853       39.548        0.033      342.946       18.709      857.127
02/25/2014  15:59:00      209.532      135.171       13.180       50.794       63.137       43.637     2580.054     3986.338     1904.171        3.541        0.424      249.349       27.229        0.012      342.730       18.339      857.126
02/25/2014  16:00:00       62.989       72.323       58.692       78.667       49.334       59.060     6188.434     2433.821     3488.139        1.237        0.606       95.908       63.352        0.436      342.882       18.603      857.118
02/25/2014  16:01:00      134.074       79.918        5.893       33.812       28.169       23.764     1143.272      793.511      564.731        1.345        0.125      156.086       14.935        0.009      342.727       18.339      857.120
02/25/2014  16:02:00       61.518       -2.096       37.704       46.957       47.432       34.782     2204.985     2249.842     1209.778        0.544        0.283       61.554       30.329        0.243      342.903       18.639      857.113
02/25/2014  16:03:00        3.928       34.938       58.974       30.223       58.510       31.431      913.430     3423.409      987.919        0.502        0.266       35.158       35.582        1.024      342.939       18.699      857.086
02/25/2014  16:04:00       37.594       83.598       62.734       59.357       31.688       33.788     3523.267     1004.135     1141.640        0.900        0.283       91.662       33.284        0.132      342.881       18.601      857.080
02/25/2014  16:05:00       51.161       45.264       19.503       43.169       25.718       31.462     1863.588      661.430      989.877        0.428        0.176       68.310       28.825        0.178      342.869       18.580      857.073
02/25/2014  16:06:00       88.955       55.834       11.462       53.349       25.202       26.889     2846.073      635.128      723.041        0.768        0.210      105.026       10.236        0.009      342.841       18.531      857.080
02/25/2014  16:07:00       26.875        6.332        9.235       33.559       15.745       15.627     1126.229      247.898      244.212        0.123        0.081       27.611       20.115        0.531      342.890       18.616      857.065
02/25/2014  16:08:00       27.333      -35.499       -7.607       28.718       39.434       19.445      824.727     1555.048      378.091        0.241        0.138       44.802       13.762        0.094      342.853       18.553      857.056
02/25/2014  16:09:00       -5.933        0.974       21.933       14.829       33.041       18.830      219.890     1091.681      354.554        0.109        0.083        6.012       11.285        3.523      343.131       19.027      857.047
02/25/2014  16:10:00       15.479        4.698       12.238       24.794       65.324       22.075      614.729     4267.228      487.307        0.289        0.268       16.176       17.498        1.170      342.971       18.754      857.037
02/25/2014  16:11:00      -40.509       29.365       -5.640       36.394       30.320       21.441     1324.527      919.283      459.720        0.262        0.135       50.033       20.593        0.169      342.983       18.775      857.050
02/25/2014  16:12:00      -15.837       48.582       -2.117       26.909       65.040       25.838      724.090     4230.248      667.580        0.412        0.281       51.098       27.230        0.284      343.098       18.970      857.046
02/25/2014  16:13:00     -179.808      106.965      -36.025       62.630       65.225       44.188     3922.508     4254.278     1952.590        2.760        0.506      209.219       31.967        0.023      342.969       18.747      857.034
02/25/2014  16:14:00        6.355       70.083        9.424       50.080       57.851       32.549     2507.985     3346.740     1059.449        0.598        0.346       70.370       30.941        0.193      342.824       18.504      857.034
02/25/2014  16:15:00       14.304       98.337        1.426       39.674       73.813       40.535     1574.039     5448.411     1643.075        0.927        0.433       99.372       37.730        0.144      342.835       18.523      857.025
02/25/2014  16:16:00       37.998       93.592       -8.127       54.725       50.875       40.117     2994.878     2588.217     1609.404        0.873        0.360      101.011       37.840        0.140      342.918       18.664      857.033
02/25/2014  16:17:00       51.486      114.322       -9.295       50.415       56.203       48.557     2541.709     3158.810     2357.823        1.193        0.403      125.381       41.080        0.107      342.879       18.598      857.027
02/25/2014  16:18:00      -44.516      115.269      -14.523       42.374       47.586       29.876     1795.515     2264.412      892.571        1.022        0.248      123.566       31.858        0.066      342.865       18.573      857.018
02/25/2014  16:19:00       33.508       66.806        8.842       55.185       40.559       28.560     3045.422     1645.070      815.689        0.558        0.275       74.738       24.169        0.105      342.843       18.535      857.019
02/25/2014  16:20:00       50.624      116.589      -16.764       30.169       44.538       27.061      910.179     1983.665      732.299        1.003        0.181      127.105       25.672        0.041      342.855       18.557      857.015
02/25/2014  16:21:00       93.823       83.711        5.955       56.847       40.000       40.010     3231.575     1599.982     1600.820        1.114        0.322      125.739       27.498        0.048      342.921       18.669      857.003
02/25/2014  16:22:00       95.621       79.550       12.343       50.492       46.293       35.282     2549.437     2143.036     1244.810        1.078        0.297      124.385       21.645        0.030      342.868       18.579      856.998
02/25/2014  16:23:00      184.366      103.702       16.999       74.024       55.169       42.161     5479.544     3043.599     1777.522        2.767        0.515      211.530       31.438        0.022      342.818       18.492      856.994
02/25/2014  16:24:00      102.798       63.720        7.283       54.120       57.269       27.651     2928.956     3279.768      764.551        1.083        0.349      120.945       20.422        0.029      342.797       18.455      857.003
02/25/2014  16:25:00       43.747       14.796       -1.086       40.771       23.532       27.237     1662.237      553.732      741.845        0.255        0.148       46.181       11.920        0.067      342.820       18.498      856.997
02/25/2014  16:26:00       79.967       19.771       37.709       68.260       69.554       53.569     4659.413     4837.824     2869.668        1.028        0.618       82.375       46.082        0.313      342.808       18.476      856.983
02/25/2014  16:27:00       79.970       73.704       66.864       76.327       68.405       58.712     5825.793     4679.201     3447.051        1.512        0.698      108.754       55.719        0.262      342.798       18.458      856.962
02/25/2014  16:28:00      190.861      128.821       33.863       84.022       62.684       60.634     7059.743     3929.321     3676.465        3.441        0.733      230.267       52.811        0.053      342.755       18.383      856.981
02/25/2014  16:29:00      141.292       63.080       23.092       95.782       51.471       47.449     9174.201     2649.234     2251.430        1.927        0.704      154.734       14.493        0.009      342.694       18.279      857.008
02/25/2014  16:30:00      178.917      102.971       12.135       65.768       58.066       43.986     4325.470     3371.668     1934.738        2.619        0.482      206.432       37.919        0.034      342.664       18.230      857.008
02/25/2014  16:31:00      126.218       77.005       31.458       46.259       43.465       39.289     2139.868     1889.204     1543.614        1.421        0.279      147.854       26.436        0.032      342.639       18.189      856.993
02/25/2014  16:32:00      155.972       85.842       16.360       46.910       45.512       35.560     2200.570     2071.316     1264.535        1.875        0.277      178.034       27.878        0.025      342.688       18.272      856.995
02/25/2014  16:33:00      100.702       75.914       67.639       93.800       70.059       58.669     8798.498     4908.242     3442.106        1.881        0.857      126.111       43.506        0.119      342.710       18.307      856.983
02/25/2014  16:34:00      286.313      207.441       37.936       96.756       71.219       61.961     9361.785     5072.208     3839.209        7.236        0.914      353.563       26.458        0.006      342.683       18.260      856.981
02/25/2014  16:35:00      186.812      133.035       24.627       74.757       61.072       50.657     5588.557     3729.759     2566.103        3.254        0.594      229.341       27.199        0.014      342.687       18.267      856.988
02/25/2014  16:36:00      152.562      109.393       39.174       91.560       69.155       58.624     8383.311     4782.348     3436.749        2.669        0.830      187.728       41.010        0.048      342.668       18.238      856.987
02/25/2014  16:37:00      215.114      125.488       43.271       53.433       62.574       57.553     2855.099     3915.563     3312.342        3.699        0.504      249.040       26.667        0.011      342.658       18.217      856.989
02/25/2014  16:38:00      158.725       62.431       40.089       66.622       60.738       56.373     4438.449     3689.148     3177.866        2.100        0.565      170.562       41.572        0.059      342.645       18.198      856.981
02/25/2014  16:39:00      174.416       96.316       30.047       59.118       47.622       41.134     3494.984     2267.850     1691.974        2.403        0.373      199.243       25.298        0.016      342.679       18.256      856.983
02/25/2014  16:40:00      160.459      108.070       29.032       69.344       53.513       37.096     4808.588     2863.664     1376.102        2.366        0.452      193.459       20.966        0.012      342.651       18.206      856.982
02/25/2014  16:41:00      125.050       68.550       30.994       53.931       39.859       31.587     2908.523     1588.770      997.750        1.339        0.275      142.606       21.923        0.024      342.632       18.178      856.973
02/25/2014  16:42:00       61.352       35.395        6.306       32.794       32.401       24.584     1075.454     1049.817      604.386        0.389        0.136       70.830       19.347        0.075      342.586       18.101      856.980
02/25/2014  16:43:00       13.802       31.986       35.465       29.208       28.068       23.359      853.135      787.840      545.655        0.233        0.109       34.837       16.079        0.213      342.557       18.049      856.979
02/25/2014  16:44:00       63.500       69.312       55.532       57.940       54.247       43.967     3357.011     2942.754     1933.054        1.007        0.412       94.002       36.542        0.151      342.651       18.210      856.969
02/25/2014  16:45:00       81.708       73.837       50.849       40.408       32.052       37.429     1632.768     1027.306     1400.907        0.939        0.203      110.127       22.883        0.043      342.647       18.203      856.970
02/25/2014  16:46:00       82.733       59.836       32.405       37.562       24.474       25.505     1410.884      598.988      650.507        0.707        0.133      102.103       18.641        0.033      342.633       18.179      856.979
02/25/2014  16:47:00       87.181       34.033       18.974       43.090       28.923       26.728     1856.721      836.523      714.406        0.626        0.170       93.588       18.207        0.038      342.646       18.202      856.982
02/25/2014  16:48:00       91.474       63.314        8.887       26.078       22.563       21.529      680.075      509.082      463.506        0.705        0.083      111.248       12.645        0.013      342.619       18.155      856.985
02/25/2014  16:49:00       39.180       20.705       23.836       34.625       36.413       27.391     1198.924     1325.933      750.284        0.290        0.164       44.314       18.840        0.181      342.597       18.120      856.991
02/25/2014  16:50:00       17.668       77.603       78.718       36.609       49.375       60.102     1340.235     2437.893     3612.252        0.996        0.370       79.589       47.688        0.359      342.707       18.304      856.993
02/25/2014  16:51:00       73.294       39.972       65.806       63.724       45.403       46.488     4060.797     2061.411     2161.145        0.979        0.414       83.485       32.155        0.148      342.745       18.370      856.988
02/25/2014  16:52:00       75.207       46.411       61.975       49.697       69.996       36.338     2469.798     4899.412     1320.466        1.017        0.434       88.375       37.106        0.176      342.718       18.322      856.986
02/25/2014  16:53:00      139.181       46.566       38.923       81.304       52.966       42.848     6610.326     2805.419     1835.972        1.715        0.563      146.764       44.551        0.092      342.689       18.273      856.969
02/25/2014  16:54:00      119.455      100.474       92.831       80.033       77.088       65.180     6405.291     5942.593     4248.419        2.479        0.830      156.091       50.721        0.106      342.665       18.231      856.953
02/25/2014  16:55:00      159.682       94.356       36.291       70.665       56.478       49.052     4993.596     3189.734     2406.051        2.315        0.529      185.476       33.395        0.032      342.676       18.251      856.969
02/25/2014  16:56:00      183.035       88.637       38.689       78.937       72.631       53.595     6231.038     5275.229     2872.463        2.861        0.719      203.368       39.115        0.037      342.637       18.183      856.967
02/25/2014  16:57:00      162.093       69.148       11.672       67.243       48.762       43.813     4521.628     2377.717     1919.567        2.000        0.441      176.226       37.240        0.045      342.627       18.166      856.982
02/25/2014  16:58:00      161.588       97.731       44.912       58.612       54.368       37.307     3435.413     2955.929     1391.805        2.273        0.389      188.844       27.886        0.022      342.606       18.132      856.993
02/25/2014  16:59:00      164.217       74.828       36.548       48.437       34.750       41.384     2346.095     1207.562     1712.616        1.958        0.263      180.462       30.624        0.029      342.620       18.157      857.005
02/25/2014  17:00:00      113.329       66.468       47.771       74.800       45.537       41.102     5595.083     2073.630     1689.402        1.445        0.468      131.383       44.910        0.117      342.604       18.130      857.003
02/25/2014  17:01:00       69.832       53.825       56.694       39.599       52.421       45.273     1568.047     2747.928     2049.655        0.868        0.318       88.168       39.896        0.205      342.614       18.147      857.010
02/25/2014  17:02:00      138.042      105.084       59.284       72.109       69.262       58.184     5199.669     4797.184     3385.404        2.349        0.669      173.489       44.505        0.066      342.670       18.240      856.996
02/25/2014  17:03:00       75.521       68.165       58.410       61.853       44.544       41.000     3825.780     1984.170     1680.985        1.062        0.375      101.734       31.984        0.099      342.623       18.161      856.997
02/25/2014  17:04:00       81.479       78.628       75.687       54.904       45.992       41.326     3014.464     2115.242     1707.827        1.269        0.342      113.231       27.550        0.059      342.654       18.214      857.002
02/25/2014  17:05:00      121.212       36.692       18.787       56.142       52.580       43.634     3151.953     2764.610     1903.966        1.210        0.391      126.643       32.622        0.066      342.644       18.199      857.002
02/25/2014  17:06:00       88.663       32.169       36.766       62.329       42.643       42.252     3884.883     1818.386     1785.203        0.887        0.374       94.319       23.233        0.061      342.626       18.166      857.010
02/25/2014  17:07:00      109.021       29.048       30.157       41.936       54.745       33.434     1758.608     2997.058     1117.805        0.975        0.294      112.824       28.758        0.065      342.611       18.142      857.016
02/25/2014  17:08:00      107.482       57.218       57.333       81.437       60.742       47.004     6631.958     3689.541     2209.374        1.532        0.627      121.763       44.545        0.134      342.649       18.206      857.012
02/25/2014  17:09:00       89.140       37.585       84.495       65.470       53.408       43.385     4286.297     2852.407     1882.248        1.276        0.451       96.740       38.293        0.157      342.672       18.245      857.012
02/25/2014  17:10:00       79.506       46.830       38.305       41.838       31.958       34.383     1750.377     1021.335     1182.214        0.697        0.198       92.273       15.653        0.029      342.662       18.229      857.021
02/25/2014  17:11:00      100.321       52.179       44.036       47.426       40.138       37.068     2249.261     1611.067     1374.054        0.998        0.262      113.080       29.282        0.067      342.592       18.111      857.012
02/25/2014  17:12:00      118.131       43.543       15.368       56.240       36.581       35.736     3162.898     1338.163     1277.030        1.093        0.289      125.901       26.147        0.043      342.550       18.039      857.012
02/25/2014  17:13:00      111.775       53.708        5.159       47.413       35.848       22.408     2247.988     1285.070      502.130        0.972        0.202      124.009       17.137        0.019      342.450       17.869      857.025
02/25/2014  17:14:00       49.420       32.031        4.366       26.932       31.384       19.018      725.345      984.930      361.666        0.278        0.104       58.892       15.598        0.070      342.385       17.756      857.032
02/25/2014  17:15:00       70.236       46.311        6.339       25.476       20.016       16.008      649.038      400.651      256.264        0.421        0.065       84.130       12.255        0.021      342.383       17.754      857.038
02/25/2014  17:16:00       62.374       32.825        7.439       24.082       19.166       14.816      579.947      367.321      219.503        0.309        0.058       70.484        9.085        0.017      342.402       17.783      857.040
02/25/2014  17:17:00       38.192       29.789       13.842       21.903       16.228       16.931      479.762      263.341      286.656        0.178        0.051       48.435       13.490        0.078      342.347       17.692      857.038
02/25/2014  17:18:00       39.704       16.745        7.119       17.111       22.924       14.425      292.790      525.523      208.079        0.147        0.051       43.091       10.828        0.063      342.404       17.791      857.035
02/25/2014  17:19:00       41.029       22.213        6.237       15.929       11.911        9.344      253.723      141.870       87.314        0.135        0.024       46.656        6.550        0.020      342.455       17.879      857.028
02/25/2014  17:20:00       46.345       33.376       15.150       20.808       15.558       11.280      432.964      242.064      127.242        0.215        0.040       57.112       11.850        0.043      342.383       17.753      857.015
02/25/2014  17:21:00       41.922       24.173       15.580       28.438       22.791       20.984      808.714      519.439      440.323        0.218        0.088       48.392       16.617        0.118      342.369       17.730      857.010
02/25/2014  17:22:00       72.219       44.208       14.079       46.040       22.171       22.628     2119.715      491.545      512.025        0.525        0.156       84.676       17.689        0.044      342.400       17.783      857.016
02/25/2014  17:23:00      129.271       57.337       29.765       44.074       36.668       30.896     1942.503     1344.511      954.575        1.256        0.212      141.416       20.873        0.022      342.400       17.783      857.014
02/25/2014  17:24:00      138.707       58.031       63.933       93.847       59.276       52.208     8807.347     3513.631     2725.698        2.087        0.752      150.357       49.226        0.107      342.361       17.716      857.006
02/25/2014  17:25:00      126.097      135.406       96.500       61.643       58.994       72.693     3799.916     3480.277     5284.249        2.805        0.628      185.028       39.095        0.045      342.372       17.733      857.006
02/25/2014  17:26:00      112.420       27.293       30.543       80.030       61.527       47.573     6404.741     3785.630     2263.176        1.338        0.623      115.686       31.802        0.076      342.363       17.721      857.017
02/25/2014  17:27:00       82.040       50.607       55.713       53.167       40.140       45.904     2826.765     1611.233     2107.187        0.947        0.327       96.393       29.850        0.096      342.398       17.779      857.022
02/25/2014  17:28:00       99.584      101.339      110.281       67.027       54.824       41.072     4492.643     3005.715     1686.949        2.077        0.459      142.080       37.612        0.070      342.356       17.706      857.023
02/25/2014  17:29:00      150.511       52.666       70.606       85.244       82.545       78.982     7266.474     6813.599     6238.133        2.536        1.016      159.459       49.144        0.095      342.349       17.693      857.017
02/25/2014  17:30:00      130.243       19.804       65.793      105.845       60.154       51.294    11203.250     3618.458     2631.077        1.956        0.873      131.740       45.118        0.117      342.357       17.708      857.020
02/25/2014  17:31:00       79.082       93.894       64.008       69.826       49.467       61.701     4875.629     2446.976     3806.966        1.515        0.556      122.761       54.748        0.199      342.341       17.682      857.032
02/25/2014  17:32:00      140.729       92.253       21.640       39.983       33.880       34.930     1598.608     1147.885     1220.087        1.637        0.198      168.271       19.030        0.013      342.172       17.396      857.042
02/25/2014  17:33:00      161.013       64.258       20.924       52.720       34.736       31.162     2779.435     1206.598      971.092        1.772        0.248      173.362       19.771        0.013      342.133       17.329      857.048
02/25/2014  17:34:00      142.226      114.722       38.704      108.051       70.135       62.214    11674.965     4918.900     3870.624        2.767        1.023      182.728       37.427        0.042      342.121       17.309      857.040
02/25/2014  17:35:00      160.511       78.735       47.484       94.650       53.199       53.604     8958.671     2830.099     2873.429        2.444        0.733      178.782       51.464        0.083      342.096       17.264      857.053
02/25/2014  17:36:00      212.240       96.149       62.082       87.815       63.265       65.007     7711.393     4002.518     4225.939        3.704        0.797      233.003       36.280        0.024      342.149       17.353      857.078
02/25/2014  17:37:00      205.846      125.120       64.790       90.950       83.337       54.570     8271.988     6944.996     2977.834        4.021        0.910      240.889       29.189        0.015      342.100       17.270      857.116
02/25/2014  17:38:00      182.097       57.233       56.610       95.005       83.194       65.987     9026.012     6921.239     4354.299        2.997        1.015      190.880       48.005        0.063      342.075       17.228      857.136
02/25/2014  17:39:00      161.062       46.644       24.313      105.169       77.656       57.072    11060.576     6030.436     3257.247        2.452        1.017      167.681       47.951        0.082      342.117       17.300      857.147
02/25/2014  17:40:00      163.977      103.935       57.907       64.160       47.251       48.737     4116.488     2232.673     2375.261        2.488        0.436      194.141       41.586        0.046      342.086       17.248      857.192
02/25/2014  17:41:00      174.493      115.710       27.553       82.631       70.382       56.259     6827.934     4953.580     3165.038        2.977        0.747      209.373       29.903        0.020      342.128       17.320      857.274
02/25/2014  17:42:00      165.176       74.632       50.847      112.619       93.939       63.811    12682.941     8824.536     4071.826        3.050        1.279      181.254       38.025        0.044      342.077       17.231      857.322
02/25/2014  17:43:00      190.533       90.303       55.467      108.693       85.375       61.260    11814.076     7288.920     3752.730        3.519        1.143      210.849       48.789        0.054      342.072       17.224      857.343
02/25/2014  17:44:00       89.409       39.408       22.666       88.001       59.403       39.409     7744.248     3528.703     1553.046        1.144        0.641       97.708       39.755        0.166      342.033       17.160      857.371
02/25/2014  17:45:00       73.283       41.961       26.056       39.382       36.736       33.792     1550.910     1349.553     1141.920        0.593        0.202       84.447       22.597        0.072      341.982       17.073      857.372
02/25/2014  17:46:00       99.155       25.701       23.518       69.154       48.079       33.541     4782.315     2311.543     1124.967        0.963        0.411      102.432       24.923        0.059      342.008       17.116      857.393
02/25/2014  17:47:00       48.852       -9.647       13.015       43.724       35.337       34.140     1911.814     1248.694     1165.563        0.349        0.216       49.796       23.596        0.225      341.997       17.099      857.399
02/25/2014  17:48:00       27.723      -11.480       26.510       26.774       33.446       18.566      716.870     1118.608      344.700        0.189        0.109       30.006       16.989        0.321      341.987       17.082      857.408
02/25/2014  17:49:00       21.463      -66.191       -9.657       21.631       21.396       18.070      467.921      457.778      326.526        0.309        0.063       69.584       10.002        0.021      342.199       17.440      857.419
02/25/2014  17:50:00       27.191      -59.807        5.859       39.750       37.167       27.427     1580.062     1381.417      752.234        0.403        0.186       65.698       23.515        0.128      342.127       17.318      857.444
02/25/2014  17:51:00       81.289      -99.568      -15.806       31.711       25.652       21.843     1005.598      658.003      477.107        0.946        0.107      128.537       12.449        0.009      342.102       17.275      857.364
02/25/2014  17:52:00       27.215      -61.572        8.693       46.852       35.060       24.664     2195.106     1229.179      608.309        0.432        0.202       67.318       21.245        0.100      342.165       17.383      857.350
02/25/2014  17:53:00       11.410       25.147       25.559       45.494       54.931       43.836     2069.700     3017.450     1921.632        0.421        0.350       27.614       49.692        3.238      342.153       17.363      857.363
02/25/2014  17:54:00       21.529       18.389       42.999       23.780       22.890       18.187      565.489      523.941      330.767        0.204        0.071       28.314       20.544        0.526      342.124       17.313      857.387
02/25/2014  17:55:00      -51.823       39.351       -4.986       77.223       37.786       28.542     5963.421     1427.788      814.658        0.623        0.410       65.069       40.704        0.391      342.166       17.386      857.426
02/25/2014  17:56:00     -237.840      -13.348      -41.610       36.857       37.887       26.677     1358.406     1435.463      711.684        3.099        0.175      238.214       19.485        0.007      342.124       17.310      857.425
02/25/2014  17:57:00     -213.570      -36.041      -15.140       88.907       92.527       38.585     7904.494     8561.307     1488.771        3.254        0.898      216.590       34.119        0.025      342.128       17.318      857.412
02/25/2014  17:58:00     -230.389     -106.573       -2.638      140.376       82.962       50.226    19705.290     6882.698     2522.637        4.677        1.456      253.844       19.358        0.006      342.054       17.194      857.393
02/25/2014  17:59:00     -300.152      -84.907      -24.779      110.151       90.273       42.681    12133.339     8149.202     1821.686        6.000        1.105      311.930       33.696        0.012      342.171       17.390      857.425
02/25/2014  18:00:00       75.950       -1.169       23.295       91.128       39.835       66.418     8304.371     1586.809     4411.341        1.030        0.715       75.959       55.975        0.543      342.107       17.286      857.435
02/25/2014  18:01:00      -96.894       -0.733        7.903      139.004       73.924       45.293    19322.025     5464.739     2051.422        1.814        1.342       96.897       50.921        0.276      342.106       17.282      857.436
02/25/2014  18:02:00     -166.759      -49.044        2.609       93.168       63.201       46.303     8680.191     3994.369     2143.993        2.252        0.741      173.821       41.874        0.058      342.014       17.126      857.489
02/25/2014  18:03:00     -182.842      -51.374      -10.377       56.028       49.567       29.858     3139.147     2456.937      891.523        2.133        0.324      189.922       20.123        0.011      342.058       17.202      857.502
02/25/2014  18:04:00      -88.519      -51.451       -7.807       63.136       68.644       36.989     3986.155     4712.002     1368.221        1.030        0.503      102.385       40.597        0.157      342.025       17.146      857.517
02/25/2014  18:05:00      -51.895      -50.182        1.142       59.553       40.948       28.056     3546.501     1676.708      787.167        0.561        0.301       72.189       31.192        0.187      342.035       17.163      857.519
02/25/2014  18:06:00     -115.453      -84.867       -7.567       83.120       42.016       41.144     6908.917     1765.343     1692.800        1.548        0.518      143.290       46.347        0.105      342.125       17.315      857.525
02/25/2014  18:07:00     -108.490      -63.029        1.343       61.590       49.671       32.407     3793.378     2467.170     1050.203        1.153        0.366      125.470       30.017        0.057      342.122       17.310      857.523
02/25/2014  18:08:00      -95.139      -34.395        4.762       48.334       41.221       27.325     2336.153     1699.188      746.663        0.752        0.239      101.165       28.423        0.079      342.163       17.379      857.533
02/25/2014  18:09:00      -90.680      -27.216      -14.932       49.223       20.955       18.958     2422.931      439.100      359.424        0.620        0.161       94.676       19.781        0.044      342.110       17.290      857.547
02/25/2014  18:10:00       22.095       26.241        4.140       31.357       14.750       15.141      983.232      217.564      229.238        0.131        0.072       34.304       15.920        0.215      342.006       17.112      857.551
02/25/2014  18:11:00        6.450       47.270        2.207       34.657       16.965       14.234     1201.093      287.819      202.620        0.199        0.085       47.708       11.577        0.059      342.008       17.116      857.547
02/25/2014  18:12:00        0.932       13.295       -7.872       28.102       26.789       13.785      789.713      717.633      190.028        0.097        0.085       13.328       10.119        0.576      342.023       17.146      857.527
02/25/2014  18:13:00        6.070       23.341      -14.706       14.440       28.473        7.301      208.518      810.692       53.311        0.093        0.054       24.117        9.576        0.158      341.960       17.036      857.533
02/25/2014  18:14:00      -49.149       44.006      -11.516       39.361       19.059       15.808     1549.294      363.256      249.895        0.332        0.108       65.970       11.458        0.030      342.025       17.148      857.554
02/25/2014  18:15:00      -71.902       50.281      -14.866       29.460       37.036       21.842      867.894     1371.652      477.054        0.532        0.136       87.739       24.338        0.077      342.029       17.154      857.576
02/25/2014  18:16:00     -135.734      -36.088       -5.585       34.693       34.012       20.106     1203.617     1156.808      404.248        1.126        0.138      140.449       19.892        0.020      341.888       16.913      857.590
02/25/2014  18:17:00     -121.445      -53.376       -7.615       32.260       24.631       15.098     1040.728      606.707      227.953        0.977        0.094      132.657        5.594        0.002      341.819       16.796      857.607
02/25/2014  18:18:00      -71.857      -25.412        5.063       30.674       35.461       15.472      940.912     1257.504      239.383        0.414        0.122       76.218       11.878        0.024      341.800       16.763      857.618
02/25/2014  18:19:00     -139.197        4.591      -18.643       42.002       18.593       15.459     1764.167      345.688      238.984        1.105        0.117      139.272       15.174        0.012      341.789       16.746      857.625
02/25/2014  18:20:00     -108.433      -43.441       -8.402       62.196       42.117       18.374     3868.296     1773.830      337.586        0.985        0.299      116.811       22.384        0.037      341.686       16.572      857.640
02/25/2014  18:21:00     -166.012      -58.763       -4.773       59.899       54.916       34.942     3587.837     3015.799     1220.951        1.943        0.391      176.105       31.612        0.032      341.532       16.307      857.654
02/25/2014  18:22:00     -241.595      -28.611      -25.122       80.634       67.199       38.005     6501.910     4515.717     1444.381        3.614        0.623      243.284       42.178        0.030      341.382       16.052      857.684
02/25/2014  18:23:00     -199.086      -39.324      -24.776       61.623       83.712       32.861     3797.353     7007.710     1079.821        2.684        0.594      202.932       26.578        0.017      341.331       15.967      857.699
02/25/2014  18:24:00     -115.896        3.521       -9.214       31.440       50.779       22.971      988.465     2578.554      527.683        0.881        0.205      115.950       18.237        0.025      341.385       16.061      857.707
02/25/2014  18:25:00      -66.118       21.410      -20.422       42.928       37.850       18.817     1842.848     1432.634      354.062        0.444        0.181       69.498       13.835        0.040      341.266       15.860      857.710
02/25/2014  18:26:00      -69.189      118.135      -19.794       43.218       55.194       30.780     1867.813     3046.430      947.430        1.250        0.293      136.905       34.632        0.064      341.480       16.220      857.710
02/25/2014  18:27:00       18.403      173.529      -28.303       53.366       68.484       26.972     2847.930     4690.047      727.494        1.976        0.413      174.502       35.030        0.040      341.673       16.547      857.688
02/25/2014  18:28:00       49.090      157.290      -29.691       41.458       49.179       27.138     1718.778     2418.529      736.475        1.645        0.244      164.773       28.169        0.029      341.656       16.520      857.670
02/25/2014  18:29:00       48.243      134.728      -35.392       22.781       50.094       17.534      518.988     2509.440      307.444        1.253        0.167      143.105       21.848        0.023      341.672       16.547      857.665
02/25/2014  18:30:00        7.503       64.353      -16.421       27.674       29.391       17.671      765.872      863.849      312.268        0.320        0.097       64.789       14.819        0.052      341.736       16.655      857.663
02/25/2014  18:31:00      -55.067       52.347      -13.051       33.629       34.111       12.577     1130.942     1163.594      158.179        0.420        0.123       75.977        9.639        0.016      341.640       16.493      857.655
02/25/2014  18:32:00      -68.667       12.925      -12.439       37.054       36.277       15.255     1373.011     1316.007      232.730        0.398        0.146       69.873       15.213        0.047      341.557       16.351      857.667
02/25/2014  18:33:00     -122.656      -20.355       -7.088       71.429       61.138       22.654     5102.096     3737.893      513.215        1.243        0.468      124.333       20.253        0.027      341.404       16.092      857.680
02/25/2014  18:34:00     -204.505      -79.923      -12.125       56.946       56.855       30.234     3242.889     3232.528      914.078        2.787        0.369      219.568       27.564        0.016      341.054       15.498      857.680
02/25/2014  18:35:00     -233.466      -97.872      -13.134       53.386       45.504       36.284     2850.094     2070.623     1316.537        3.525        0.312      253.151       30.358        0.014      341.063       15.510      857.679
02/25/2014  18:36:00     -245.085      -91.325       -6.863       55.350       46.131       28.832     3063.602     2128.053      831.278        3.724        0.301      261.547       28.211        0.012      341.121       15.609      857.685
02/25/2014  18:37:00     -220.051      -81.756      -14.040       42.375       48.248       26.553     1795.600     2327.901      705.074        3.007        0.241      234.748       17.274        0.005      341.128       15.621      857.692
02/25/2014  18:38:00     -218.249      -57.662       -9.001       52.289       51.609       30.145     2734.151     2663.474      908.713        2.867        0.315      225.738       27.156        0.014      341.122       15.613      857.704
02/25/2014  18:39:00     -129.485      -52.437       -0.457       93.966       49.925       36.436     8829.677     2492.528     1327.569        1.608        0.632      139.700       40.684        0.085      341.056       15.504      857.715
02/25/2014  18:40:00     -242.971      -43.413       -4.545       62.949       64.999       41.640     3962.610     4224.853     1733.863        3.543        0.496      246.818       37.767        0.023      340.898       15.232      857.727
02/25/2014  18:41:00     -199.006      -34.999      -14.306       81.448       62.175       40.437     6633.808     3865.740     1635.153        2.658        0.607      202.060       44.232        0.048      340.903       15.243      857.742
02/25/2014  18:42:00     -198.207      -61.522      -10.746       80.275       76.994       41.492     6444.015     5928.141     1721.627        2.864        0.705      207.536       40.691        0.038      340.758       14.995      857.763
02/25/2014  18:43:00     -153.996      -80.714       -7.237       44.500       50.790       35.787     1980.275     2579.596     1280.678        1.806        0.292      173.866       20.636        0.014      340.690       14.884      857.778
02/25/2014  18:44:00     -234.689      -98.534      -10.501       48.674       56.447       34.782     2369.158     3186.297     1209.783        3.583        0.338      254.534       23.446        0.008      340.560       14.661      857.784
02/25/2014  18:45:00     -246.420      -75.136      -13.108       90.230       79.858       46.975     8141.368     6377.302     2206.661        4.163        0.836      257.621       41.187        0.026      340.584       14.701      857.796
02/25/2014  18:46:00     -339.032      -50.258      -29.065       87.004       82.108       50.303     7569.723     6741.704     2530.402        6.757        0.842      342.737       50.682        0.022      340.619       14.760      857.827
02/25/2014  18:47:00     -295.306     -112.438      -26.009       85.882       77.631       54.759     7375.711     6026.647     2998.509        5.846        0.820      315.988       48.996        0.024      340.591       14.713      857.855
02/25/2014  18:48:00     -316.402      -73.028      -14.666       86.345       92.737       53.690     7455.373     8600.100     2882.638        6.229        0.947      324.721       46.621        0.021      340.546       14.637      857.895
02/25/2014  18:49:00     -301.041       -5.601      -29.879       75.494       54.176       40.506     5699.329     2935.059     1640.774        5.091        0.514      301.093       37.946        0.016      340.585       14.702      857.940
02/25/2014  18:50:00     -152.557      -50.812       -1.295       85.345       77.498       40.788     7283.801     6005.983     1663.701        2.040        0.748      160.796       51.779        0.104      340.610       14.747      857.947
02/25/2014  18:51:00      -98.542      -15.420      -15.049       44.581       45.882       26.397     1987.448     2105.192      696.825        0.748        0.239       99.741       10.016        0.010      340.681       14.870      857.961
02/25/2014  18:52:00     -133.194      -34.472      -10.404       48.906       36.679       28.081     2391.787     1345.330      788.542        1.178        0.226      137.583       17.391        0.016      340.592       14.719      857.969
02/25/2014  18:53:00     -129.419      -53.880      -16.401       49.840       33.167       20.407     2484.059     1100.057      416.425        1.196        0.200      140.187       18.569        0.018      340.589       14.714      857.962
02/25/2014  18:54:00     -224.519      -53.726      -23.047       71.688       43.299       33.007     5139.195     1874.798     1089.478        3.096        0.405      230.858       35.692        0.024      340.442       14.462      857.966
02/25/2014  18:55:00     -220.470      -56.815      -20.606       77.051       67.528       41.401     5936.796     4559.977     1714.013        3.223        0.611      227.673       40.477        0.032      340.464       14.499      857.962
02/25/2014  18:56:00     -178.183      -76.050      -11.408       62.848       48.815       30.057     3949.856     2382.858      903.396        2.245        0.362      193.733       29.037        0.022      340.416       14.420      857.963
02/25/2014  18:57:00     -158.964      -54.078      -14.172       92.412       43.503       39.253     8540.027     1892.480     1540.826        2.018        0.599      167.911       44.676        0.071      340.617       14.759      857.952
02/25/2014  18:58:00     -113.399      -22.740      -17.062       70.031       50.109       25.615     4904.300     2510.950      656.104        1.087        0.404      115.656       23.712        0.042      340.566       14.674      857.951
02/25/2014  18:59:00      -78.662      -47.651       -6.463       59.269       41.242       35.241     3512.789     1700.924     1241.907        0.748        0.323       91.969       37.175        0.163      340.552       14.652      857.963
02/25/2014  19:00:00     -134.033      -20.960      -13.942       66.177       49.799       36.629     4379.377     2479.926     1341.661        1.340        0.410      135.662       24.164        0.032      340.504       14.569      857.957
02/25/2014  19:01:00     -143.630      -89.770       -9.665       83.120       59.311       33.510     6908.995     3517.847     1122.926        2.016        0.577      169.376       22.085        0.017      340.467       14.506      857.961
02/25/2014  19:02:00     -142.646      -58.511      -13.830       42.665       42.776       28.890     1820.341     1829.744      834.649        1.422        0.224      154.180       11.754        0.006      340.406       14.404      857.971
02/25/2014  19:03:00     -181.650      -67.826      -17.941       39.057       57.017       33.034     1525.454     3250.962     1091.265        2.189        0.293      193.900       20.125        0.011      340.403       14.397      857.995
02/25/2014  19:04:00     -211.518      -56.061      -15.434       51.699       53.438       34.264     2672.829     2855.624     1174.011        2.741        0.335      218.821       28.311        0.017      340.411       14.409      857.992
02/25/2014  19:05:00     -179.022      -32.698      -13.419       44.322       47.361       29.727     1964.481     2243.100      883.705        1.919        0.255      181.984       27.139        0.022      340.406       14.405      857.997
02/25/2014  19:06:00     -228.133      -58.899      -18.664       95.718       46.595       35.682     9161.931     2171.112     1273.225        3.423        0.630      235.614       29.864        0.016      340.279       14.187      858.002
02/25/2014  19:07:00     -275.902      -26.898      -10.896      111.472       81.996       47.422    12426.069     6723.330     2248.828        4.918        1.070      277.210       52.228        0.035      341.107       15.588      858.006
02/25/2014  19:08:00     -214.612       60.343      -28.609       85.242       73.333       41.540     7266.273     5377.724     1725.587        3.244        0.718      222.934       34.434        0.024      341.174       15.701      858.012
02/25/2014  19:09:00     -239.973      -44.264      -40.782       76.406      106.188       44.220     5837.856    11275.887     1955.387        4.014        0.953      244.021       36.813        0.023      340.427       14.436      858.035
02/25/2014  19:10:00     -193.665       72.721      -30.390       67.748       65.475       32.716     4589.815     4287.020     1070.355        2.683        0.497      206.868       12.393        0.004      341.054       15.498      858.056
02/25/2014  19:11:00      -93.496       10.453       -9.197       67.052       42.751       21.926     4495.921     1827.672      480.760        0.787        0.340       94.078       13.806        0.022      341.546       16.331      858.019
02/25/2014  19:12:00     -197.115      -74.846      -21.485       44.461       50.121       30.089     1976.819     2512.112      905.321        2.515        0.270      210.847       18.187        0.007      341.115       15.602      858.018
02/25/2014  19:13:00       -5.410       29.023        9.335       90.811       77.933       35.557     8246.669     6073.558     1264.301        0.827        0.779       29.523       50.243        2.896      341.237       15.810      858.019
02/25/2014  19:14:00      -48.296      117.531       -3.068       62.422       78.116       39.645     3896.552     6102.080     1571.700        1.386        0.579      127.067       44.894        0.125      341.391       16.069      858.012
02/25/2014  19:15:00       25.984      105.150      -15.564       59.445       84.347       41.550     3533.701     7114.456     1726.366        1.217        0.619      108.313       42.673        0.155      341.395       16.077      858.037
02/25/2014  19:16:00       18.054       82.626      -11.589      111.119       53.759       30.291    12347.483     2890.000      917.522        1.172        0.808       84.575       28.895        0.117      341.437       16.150      858.017
02/25/2014  19:17:00     -154.671       24.636      -13.958       75.790       52.569       33.238     5744.089     2763.486     1104.769        1.717        0.481      156.621       22.746        0.021      341.503       16.259      858.058
02/25/2014  19:18:00     -156.169     -168.366      -12.179      209.464      106.741       59.251    43875.151    11393.635     3510.631        5.582        2.939      229.643       79.915        0.121      341.556       16.347      858.094
02/25/2014  19:19:00      -77.848     -319.589        0.560       43.789       71.579       39.745     1917.487     5123.504     1579.699        5.841        0.431      328.934       22.064        0.004      341.541       16.322      858.075
02/25/2014  19:20:00      -28.582     -170.169        3.674       66.132       78.405       47.240     4373.461     6147.274     2231.592        2.127        0.638      172.553       23.185        0.018      341.557       16.350      858.054
02/25/2014  19:21:00      -60.958       65.052       -8.458       34.400       92.119       38.431     1183.351     8485.996     1476.944        0.958        0.557       89.150       46.781        0.275      341.409       16.102      858.073
02/25/2014  19:22:00     -130.576       62.882      -30.564       54.001       53.814       25.629     2916.070     2895.982      656.849        1.420        0.323      144.928       29.573        0.042      341.351       16.002      858.087
02/25/2014  19:23:00     -199.616      100.146      -36.499       73.268       53.690       39.232     5368.214     2882.656     1539.114        3.050        0.489      223.328       38.711        0.030      341.362       16.020      858.123
02/25/2014  19:24:00     -126.487       23.599      -15.861       39.675       92.571       32.227     1574.096     8569.348     1038.569        1.399        0.559      128.670       40.800        0.101      341.360       16.017      858.117
02/25/2014  19:25:00      -41.577      -15.448       -2.852       34.817       33.443       20.728     1212.234     1118.408      429.641        0.237        0.138       44.354       15.409        0.121      341.331       15.971      858.136
02/25/2014  19:26:00     -117.829       69.675      -19.468       63.129       72.314       30.603     3985.236     5229.259      936.538        1.463        0.508      136.888       26.924        0.039      341.386       16.060      858.168
02/25/2014  19:27:00      -89.674      104.489      -12.632       44.072       55.507       38.524     1942.301     3081.066     1484.117        1.281        0.325      137.693       28.889        0.044      341.164       15.688      858.174
02/25/2014  19:28:00     -201.251        9.906      -16.828       48.546       74.156       28.310     2356.735     5499.085      801.464        2.477        0.433      201.495       20.561        0.010      341.171       15.696      858.193
02/25/2014  19:29:00      -45.325      -58.039        5.627       67.648       41.164       28.046     4576.245     1694.444      786.595        0.625        0.353       73.640       32.145        0.191      341.157       15.674      858.189
02/25/2014  19:30:00      -25.972      -24.721        2.167       23.440       19.205       14.103      549.423      368.840      198.890        0.120        0.056       35.857       11.804        0.108      341.089       15.561      858.188
02/25/2014  19:31:00      -81.126      -37.506        0.835       78.012       48.149       30.973     6085.840     2318.313      959.323        0.867        0.468       89.376       44.595        0.249      340.940       15.308      858.186
02/25/2014  19:32:00     -103.730      -28.080      -10.201       50.249       31.545       23.413     2524.990      995.112      548.179        0.786        0.203      107.463       24.075        0.050      341.017       15.437      858.201
02/25/2014  19:33:00      -48.185      -15.503        1.290       50.037       40.571       16.934     2503.717     1645.979      286.757        0.350        0.222       50.617       18.334        0.131      341.029       15.459      858.198
02/25/2014  19:34:00      -39.454       83.248       -5.141       69.794       48.662       32.313     4871.225     2368.031     1044.103        0.840        0.414       92.124       39.749        0.186      340.921       15.276      858.219
02/25/2014  19:35:00      -52.574       83.777       -6.280       61.084       67.705       35.990     3731.210     4583.982     1295.277        0.971        0.481       98.907       28.905        0.085      340.985       15.383      858.192
02/25/2014  19:36:00      -16.077       31.384        5.718       34.800       29.368       22.992     1211.006      862.500      528.649        0.194        0.130       35.262       24.919        0.499      341.008       15.422      858.190
02/25/2014  19:37:00      -75.082       27.321       -2.885       79.172       88.447       51.373     6268.226     7822.960     2639.203        1.156        0.837       79.898       37.808        0.224      340.997       15.403      858.228
02/25/2014  19:38:00     -160.716      -23.198      -10.666       86.689      109.526       34.626     7515.018    11995.863     1198.953        2.359        1.035      162.381       28.345        0.030      340.835       15.130      858.247
02/25/2014  19:39:00     -216.504      -83.914        3.283      107.157       77.959       44.562    11482.701     6077.650     1985.741        3.673        0.977      232.197       54.609        0.055      340.502       14.563      858.264
02/25/2014  19:40:00      -71.512      -19.669       -2.198       83.592       33.348       24.014     6987.626     1112.074      576.651        0.709        0.434       74.168       37.785        0.260      340.536       14.623      858.270
02/25/2014  19:41:00     -141.018       47.195      -18.589       58.195       30.148       20.756     3386.638      908.926      430.796        1.359        0.236      148.706       22.443        0.023      340.901       15.240      858.274
02/25/2014  19:42:00      -57.011       26.726       -8.824       73.564       49.115       38.958     5411.594     2412.275     1517.756        0.669        0.467       62.965       26.891        0.182      340.780       15.036      858.292
02/25/2014  19:43:00      -71.122       45.100       -3.227       62.658       67.682       31.728     3925.972     4580.895     1006.661        0.831        0.476       84.216       20.369        0.059      340.797       15.066      858.264
02/25/2014  19:44:00     -101.540      -46.096       -5.015       59.003       36.450       24.153     3481.389     1328.602      583.381        0.893        0.270      111.513       20.016        0.032      340.456       14.488      858.271
02/25/2014  19:45:00     -194.568      -43.087      -15.084       35.572       51.278       27.991     1265.332     2629.479      783.501        2.231        0.234      199.282       18.344        0.008      340.426       14.435      858.270
02/25/2014  19:46:00     -136.825       -6.584       -6.333       74.556       53.719       36.908     5558.531     2885.743     1362.213        1.430        0.490      136.983       39.218        0.082      340.349       14.308      858.255
02/25/2014  19:47:00     -150.188      -31.257      -22.941       36.466       36.083       23.542     1329.753     1301.952      554.240        1.362        0.159      153.406       18.705        0.015      340.323       14.263      858.274
02/25/2014  19:48:00     -255.361      -43.494      -12.399      111.959      108.636       51.657    12534.885    11801.830     2668.416        4.712        1.350      259.039       52.540        0.041      340.411       14.409      858.246
02/25/2014  19:49:00     -291.187      -18.495      -19.840      189.550      176.959       72.740    35929.112    31314.628     5291.052        7.902        3.627      291.774       83.364        0.082      340.552       14.648      858.235
02/25/2014  19:50:00     -374.451      -85.446      -16.369      139.923       92.065       54.784    19578.534     8475.932     3001.306        8.941        1.553      384.076       40.077        0.011      340.640       14.796      858.249
02/25/2014  19:51:00     -191.038        0.571      -23.379       87.425       73.889       49.440     7643.116     5459.552     2444.332        2.629        0.777      191.038       28.407        0.022      340.631       14.781      858.270
02/25/2014  19:52:00     -189.314      -84.728      -21.077      106.025       71.132       39.206    11241.273     5059.754     1537.078        3.065        0.892      207.409       37.920        0.033      340.625       14.772      858.272
02/25/2014  19:53:00     -183.859       81.747      -24.888       60.964      115.149       45.571     3716.591    13259.244     2076.759        3.008        0.953      201.213       48.802        0.059      340.630       14.779      858.284
02/25/2014  19:54:00     -108.542      -17.349       -2.226       75.588       89.799       44.725     5713.509     8063.948     2000.291        1.393        0.789      109.920       45.612        0.172      340.585       14.706      858.266
02/25/2014  19:55:00     -113.911      148.529      -21.607       58.938      106.922       36.182     3473.675    11432.269     1309.127        2.586        0.811      187.180       30.874        0.027      340.623       14.768      858.241
02/25/2014  19:56:00     -126.102      242.271      -39.614       70.049      111.658       44.454     4906.899    12467.416     1976.125        4.775        0.968      273.124       34.805        0.016      340.654       14.819      858.243
02/25/2014  19:57:00     -115.793       17.073       -7.354       48.357       43.260       27.724     2338.364     1871.404      768.603        0.936        0.249      117.045       11.089        0.009      340.672       14.853      858.262
02/25/2014  19:58:00     -157.864      -61.206       -9.383       87.642       50.048       29.602     7681.188     2504.760      876.273        1.991        0.553      169.314       32.155        0.036      340.525       14.602      858.278
02/25/2014  19:59:00     -207.307      -36.134      -23.369       73.166       70.388       46.070     5353.251     4954.493     2122.463        2.863        0.622      210.433       36.456        0.030      340.515       14.588      858.265
02/25/2014  20:00:00     -284.631      -20.442      -25.253       99.520       87.560       55.481     9904.233     7666.682     3078.160        5.136        1.032      285.364       42.903        0.023      340.496       14.553      858.254
02/25/2014  20:01:00     -360.670     -107.975      -16.322      110.864       89.699       51.806    12290.732     8045.922     2683.818        8.251        1.151      376.486       48.572        0.017      340.510       14.576      858.276
02/25/2014  20:02:00     -263.523     -112.214       -6.909      111.897       99.996       47.514    12521.032     9999.152     2257.617        5.343        1.239      286.420       51.874        0.033      340.505       14.568      858.275
02/25/2014  20:03:00     -278.383      -93.426      -10.643      197.686      142.167       73.854    39079.823    20211.504     5454.452        7.553        3.237      293.642       96.027        0.107      340.604       14.736      858.262
02/25/2014  20:04:00     -264.629       -9.863      -36.558      109.149       88.658       54.229    11913.590     7860.300     2940.753        4.708        1.136      264.812       55.334        0.044      340.571       14.680      858.251
02/25/2014  20:05:00     -175.118      -89.189       -4.094      112.918       68.283       47.786    12750.392     4662.555     2283.471        2.916        0.985      196.523       52.986        0.073      340.521       14.597      858.237
02/25/2014  20:06:00     -171.964      -44.739       -3.823       79.515       64.761       41.612     6322.653     4193.975     1731.567        2.192        0.612      177.689       34.872        0.039      340.500       14.562      858.240
02/25/2014  20:07:00     -187.183      -62.168      -18.328      175.458      118.713       50.202    30785.516    14092.887     2520.288        4.331        2.370      197.237       56.931        0.083      340.490       14.544      858.237
02/25/2014  20:08:00     -158.301      -25.193      -11.336      135.522       92.967       54.139    18366.177     8642.806     2931.068        2.788        1.497      160.293       42.713        0.071      340.429       14.440      858.244
02/25/2014  20:09:00     -247.073     -100.085      -19.737       60.326       65.219       40.185     3639.241     4253.575     1614.836        4.048        0.475      266.575       36.900        0.019      340.408       14.404      858.253
02/25/2014  20:10:00     -196.125      -22.617      -26.804       49.669       36.983       28.867     2466.990     1367.721      833.312        2.218        0.233      197.425       22.206        0.013      340.435       14.451      858.253
02/25/2014  20:11:00      -93.177       -6.453      -16.480       47.532       64.876       26.576     2259.332     4208.897      706.291        0.808        0.359       93.400       22.162        0.056      340.461       14.495      858.263
02/25/2014  20:12:00      -61.132       -0.800       -5.071       45.746       50.259       27.957     2092.696     2525.989      781.616        0.458        0.270       61.137       25.091        0.168      340.440       14.462      858.243
02/25/2014  20:13:00      -75.924       43.056       -4.954       71.113      103.443       33.437     5057.090    10700.543     1118.050        1.226        0.844       87.283       21.640        0.061      340.460       14.495      858.256
02/25/2014  20:14:00      -42.371       -5.670       12.203       38.116       30.254       23.755     1452.808      915.325      564.301        0.245        0.147       42.749       24.646        0.332      340.337       14.289      858.261
02/25/2014  20:15:00      -54.003      -20.314        2.652       50.099       30.825       18.338     2509.952      950.177      336.264        0.357        0.190       57.697       16.651        0.083      340.349       14.309      858.253
02/25/2014  20:16:00     -151.448      -54.016      -14.453       46.568       67.678       25.043     2168.613     4580.281      627.165        1.672        0.369      160.792       16.339        0.010      340.397       14.387      858.262
02/25/2014  20:17:00     -120.018      -32.107       -6.612       49.570       73.216       36.339     2457.178     5360.526     1320.500        1.231        0.457      124.239       23.577        0.036      340.341       14.294      858.280
02/25/2014  20:18:00      -38.277      -33.148       15.056       63.040       55.461       35.373     3974.041     3075.878     1251.252        0.554        0.415       50.635       41.260        0.664      340.279       14.188      858.264
02/25/2014  20:19:00      -29.628       -5.863       -1.608       26.665       25.129       16.010      711.013      631.444      256.324        0.126        0.080       30.202        6.494        0.046      340.403       14.400      858.299
02/25/2014  20:20:00      -47.684      -10.450        3.070       69.570       24.813       25.705     4840.019      615.704      660.764        0.425        0.306       48.816       36.560        0.561      340.332       14.281      858.299
02/25/2014  20:21:00     -147.989      -29.237      -14.136      116.010       90.927       44.006    13458.326     8267.641     1936.570        2.330        1.183      150.849       53.589        0.126      340.362       14.330      858.289
02/25/2014  20:22:00     -104.229       -2.368       -6.167       59.368       52.636       41.146     3524.558     2770.574     1693.027        0.945        0.399      104.256       31.823        0.093      340.337       14.288      858.307
02/25/2014  20:23:00     -143.308      -78.191       -6.308       52.226       59.110       30.819     2727.593     3494.047      949.806        1.693        0.359      163.252       23.405        0.021      340.339       14.291      858.325
02/25/2014  20:24:00     -113.885       -4.362       -7.123       63.204       41.916       28.720     3994.780     1756.957      824.847        0.981        0.329      113.968       19.729        0.030      340.402       14.398      858.343
02/25/2014  20:25:00      -91.603       44.154       -9.350       66.690       47.167       30.534     4447.610     2224.718      932.309        0.901        0.380      101.689       14.671        0.021      340.340       14.292      858.363
02/25/2014  20:26:00        0.199        6.358       -0.708       15.947       12.276       13.075      254.315      150.693      170.968        0.031        0.029        6.362        9.305        2.139      340.263       14.163      858.369
02/25/2014  20:27:00      -41.655       55.971      -15.181       47.781       57.229       28.156     2283.005     3275.186      792.771        0.572        0.318       69.770       37.902        0.295      340.328       14.272      858.375
02/25/2014  20:28:00      -23.004      105.949      -18.225       42.541       33.940       16.073     1809.723     1151.954      258.348        0.765        0.161      108.418        9.635        0.008      340.414       14.419      858.379
02/25/2014  20:29:00        1.798       76.172       -6.918       23.047       25.220       12.877      531.151      636.029      165.818        0.359        0.067       76.193       15.323        0.040      340.282       14.193      858.381
02/25/2014  20:30:00      -19.485       71.822        1.932       54.775       68.019       39.845     3000.326     4626.645     1587.609        0.738        0.461       74.418       45.819        0.379      340.202       14.062      858.393
02/25/2014  20:31:00      -55.516       64.079      -13.311       34.197       39.730       18.724     1169.434     1578.479      350.576        0.523        0.155       84.783       14.713        0.030      340.245       14.132      858.419
02/25/2014  20:32:00      -70.656       98.553      -23.193       29.880       31.612       24.446      892.810      999.347      597.598        0.887        0.124      121.264       19.288        0.025      340.135       13.947      858.428
02/25/2014  20:33:00      -49.641       72.657      -13.687       29.414       30.320       14.562      865.177      919.311      212.047        0.496        0.100       87.996       13.201        0.023      340.066       13.831      858.431
02/25/2014  20:34:00      -56.605       19.621      -15.000       34.974       43.130       22.853     1223.177     1860.185      522.239        0.371        0.180       59.909       18.200        0.092      340.176       14.016      858.425
02/25/2014  20:35:00      -59.067      -33.756       -5.074       75.222       28.690       26.444     5658.277      823.107      699.278        0.592        0.359       68.032       34.914        0.263      340.217       14.086      858.417
02/25/2014  20:36:00      -13.352       38.412        9.693       47.328       50.787       27.239     2239.903     2579.326      741.970        0.365        0.278       40.667       34.809        0.733      340.157       13.983      858.428
02/25/2014  20:37:00       -8.624       40.784        5.180       61.792       30.264       24.934     3818.208      915.928      621.725        0.356        0.268       41.685       17.591        0.178      340.147       13.966      858.442
02/25/2014  20:38:00      -17.698      110.829      -19.554       62.120       32.224       29.420     3858.894     1038.361      865.509        0.937        0.288      112.234       34.666        0.095      340.056       13.813      858.446
02/25/2014  20:39:00      -13.839       73.072      -10.848       40.929       53.067       21.212     1675.148     2816.084      449.962        0.529        0.247       74.371       26.698        0.129      339.968       13.665      858.434
02/25/2014  20:40:00      -21.265       96.268      -20.806       29.692       20.489       15.011      881.612      419.802      225.334        0.584        0.076       98.588        8.893        0.008      340.014       13.742      858.445
02/25/2014  20:41:00       11.452       69.173      -19.258       12.770       13.787        8.519      163.078      190.092       72.573        0.286        0.021       70.115        6.996        0.010      339.890       13.534      858.460
02/25/2014  20:42:00       10.091       87.624      -22.645       30.396       34.219       25.094      923.907     1170.958      629.722        0.551        0.136       88.203       18.487        0.044      339.900       13.550      858.468
02/25/2014  20:43:00      -46.108       68.697        2.137       79.616       50.861       38.686     6338.739     2586.818     1496.594        0.863        0.521       82.735       46.274        0.313      339.899       13.548      858.463
02/25/2014  20:44:00       25.510       38.860        9.979       34.842       30.075       21.089     1213.998      904.485      444.739        0.241        0.128       46.485       13.905        0.089      339.829       13.432      858.457
02/25/2014  20:45:00       15.954       18.041        1.794       11.404       17.836       13.705      130.046      318.138      187.831        0.061        0.032       24.084        8.124        0.114      339.804       13.387      858.462
02/25/2014  20:46:00       34.316       16.489       -1.506       14.114       23.204       20.041      199.209      538.439      401.658        0.130        0.057       38.072        9.649        0.064      339.837       13.444      858.469
02/25/2014  20:47:00       73.511       51.087       24.228       22.312       21.945       26.819      497.824      481.598      719.283        0.515        0.085       89.520       21.436        0.057      339.792       13.369      858.462
02/25/2014  20:48:00       21.069       37.936        1.412       23.592       32.244       29.106      556.568     1039.688      847.159        0.216        0.122       43.394       21.152        0.238      339.817       13.411      858.504
02/25/2014  20:49:00      -46.550       40.871       -5.164       23.748       40.366       18.540      563.951     1629.434      343.734        0.320        0.127       61.946       18.107        0.085      339.739       13.279      858.502
02/25/2014  20:50:00      -73.949       69.878      -21.304       17.175       25.122       14.644      294.980      631.116      214.450        0.597        0.057      101.742       13.921        0.019      339.865       13.491      858.508
02/25/2014  20:51:00      -32.101      -54.186       -9.185       53.594       74.977       23.490     2872.274     5621.555      551.775        0.655        0.452       62.981       18.971        0.091      339.968       13.666      858.497
02/25/2014  20:52:00       23.480     -242.574      -21.671       93.468       66.581       37.007     8736.240     4433.067     1369.513        3.720        0.727      243.708       33.298        0.019      340.281       14.190      858.437
02/25/2014  20:53:00      -96.230       -2.150       -9.136       45.640       93.524       25.856     2083.007     8746.697      668.509        1.042        0.575       96.254       22.071        0.053      340.107       13.900      858.486
02/25/2014  20:54:00      -50.036       96.989      -14.844       24.045       25.796       18.528      578.142      665.450      343.304        0.686        0.079      109.135       14.995        0.019      339.869       13.498      858.496
02/25/2014  20:55:00      -56.347       77.590      -10.994       44.491       37.980       17.055     1979.410     1442.488      290.859        0.651        0.186       95.891       10.522        0.012      339.995       13.710      858.488
02/25/2014  20:56:00      -70.029      -50.340      -19.647       60.152       43.211       26.644     3618.314     1867.175      709.919        0.701        0.310       86.245       19.545        0.051      340.330       14.276      858.481
02/25/2014  20:57:00      -35.369      -68.192       12.961       53.694       38.615       35.069     2883.028     1491.096     1229.833        0.584        0.280       76.818       26.803        0.122      340.130       13.937      858.480
02/25/2014  20:58:00     -123.541      -64.321        3.756       67.455       47.230       37.476     4550.187     2230.688     1404.482        1.380        0.409      139.282       38.767        0.077      340.033       13.774      858.476
02/25/2014  20:59:00      -84.219        0.456        3.442       56.851       38.449       26.253     3232.081     1478.333      689.235        0.625        0.270       84.220       29.062        0.119      339.974       13.676      858.484
02/25/2014  21:00:00     -140.602      -64.101      -13.630       55.115       35.888       16.790     3037.621     1287.924      281.905        1.433        0.230      154.524       15.079        0.010      339.923       13.589      858.478
02/25/2014  21:01:00     -134.227      -11.979       -9.499       46.559       30.860       25.193     2167.782      952.362      634.695        1.100        0.188      134.761       22.104        0.027      339.788       13.361      858.486
02/25/2014  21:02:00      -70.883      -16.624       -4.311       27.312       28.212       19.532      745.945      795.937      381.514        0.362        0.096       72.806       16.132        0.049      339.844       13.455      858.492
02/25/2014  21:03:00      -76.178        2.799       -9.955       51.321       73.827       26.238     2633.864     5450.434      688.425        0.734        0.439       76.229       28.309        0.138      339.857       13.477      858.490
02/25/2014  21:04:00      -79.585      -47.659        7.968       55.732       35.827       23.881     3106.033     1283.574      570.303        0.681        0.248       92.764       28.145        0.092      339.709       13.229      858.495
02/25/2014  21:05:00      -68.780      -66.516        4.954       57.654       53.181       30.448     3323.931     2828.254      927.091        0.813        0.354       95.682       37.144        0.151      339.740       13.280      858.497
02/25/2014  21:06:00     -144.511     -108.900       -2.272       62.064       50.941       30.861     3851.994     2594.981      952.388        2.007        0.370      180.949       25.970        0.021      339.821       13.415      858.502
02/25/2014  21:07:00     -154.867      -82.218       -4.185       82.251       48.628       31.285     6765.212     2364.690      978.766        2.043        0.505      175.338       32.884        0.035      339.787       13.358      858.515
02/25/2014  21:08:00     -108.930      -71.442       -9.092       54.623       41.772       28.718     2983.648     1744.936      824.748        1.130        0.278      130.268       23.054        0.031      339.659       13.144      858.523
02/25/2014  21:09:00      -83.511      -40.662       10.800       64.477       57.300       30.189     4157.253     3283.257      911.393        0.855        0.418       92.884       29.224        0.099      339.705       13.222      858.525
02/25/2014  21:10:00     -151.828      -30.968        2.094       58.844       62.286       34.186     3462.561     3879.592     1168.713        1.626        0.426      154.954       30.685        0.039      339.587       13.021      858.523
02/25/2014  21:11:00     -195.603      -29.508        4.002      114.523       69.139       46.042    13115.554     4780.159     2119.903        2.958        1.001      197.816       54.579        0.076      339.672       13.163      858.518
02/25/2014  21:12:00     -268.765      -79.808      -11.172       73.926       46.101       34.105     5465.124     2125.270     1163.183        4.374        0.438      280.364       17.426        0.004      340.137       13.946      858.544
02/25/2014  21:13:00      -95.514      -25.084      -15.439       42.677       50.093       21.613     1821.365     2509.330      467.135        0.739        0.240       98.753        6.576        0.004      339.974       13.675      858.559
02/25/2014  21:14:00      -63.970      -32.981      -16.305       38.227       18.525       16.503     1461.314      343.179      272.342        0.376        0.104       71.972       17.128        0.057      339.775       13.339      858.581
02/25/2014  21:15:00      -12.865       58.575       -4.714       28.214       41.544       24.462      796.007     1725.931      598.371        0.337        0.156       59.971       26.976        0.202      339.428       12.753      858.589
02/25/2014  21:16:00      -90.070       29.742      -15.391       26.392       27.755       16.281      696.520      770.361      265.080        0.548        0.087       94.854       11.587        0.015      339.495       12.868      858.620
02/25/2014  21:17:00      -53.497       -4.792        0.519       36.944       17.326       14.124     1364.886      300.202      199.484        0.237        0.093       53.711       16.302        0.092      339.292       12.525      858.655
02/25/2014  21:18:00        8.455       15.554        5.811       13.394       15.096       15.855      179.389      227.898      251.382        0.050        0.033       17.704        6.385        0.130      339.190       12.354      858.671
02/25/2014  21:19:00       38.305       22.294        5.297       15.700       12.242        8.557      246.483      149.857       73.215        0.123        0.023       44.320        6.900        0.024      339.098       12.196      858.689
02/25/2014  21:20:00       37.536       24.614        7.708       22.725       12.259       16.056      516.418      150.291      257.809        0.150        0.046       44.887        7.371        0.027      339.004       12.042      858.709
02/25/2014  21:21:00       85.596       47.770       14.382       12.816       11.171       10.595      164.246      124.785      112.247        0.511        0.020       98.023        5.244        0.003      339.125       12.245      858.709
02/25/2014  21:22:00       35.259        5.872        6.476       23.657       23.022       18.449      559.652      530.020      340.357        0.137        0.072       35.745       10.105        0.080      339.089       12.184      858.722
02/25/2014  21:23:00       20.067       -1.040       -5.797       20.112       18.159       11.779      404.478      329.732      138.733        0.065        0.044       20.094       12.186        0.368      339.162       12.306      858.740
02/25/2014  21:24:00        1.717      -32.892        0.591       11.778       15.221       13.394      138.713      231.685      179.390        0.082        0.027       32.936        7.281        0.049      339.237       12.433      858.762
02/25/2014  21:25:00      -39.575      -41.908        2.791       17.732       16.161       14.297      314.420      261.169      204.413        0.205        0.039       57.640        7.075        0.015      339.170       12.319      858.787
02/25/2014  21:26:00      -40.120       -8.498       -4.124       14.195       12.322        9.927      201.503      151.843       98.546        0.108        0.023       41.010        8.896        0.047      339.213       12.393      858.801
02/25/2014  21:27:00        1.382        3.112       -6.099        8.842        6.022        6.770       78.174       36.270       45.839        0.010        0.008        3.405        4.240        1.551      339.234       12.427      858.801
02/25/2014  21:28:00      -26.704       21.395       -5.056       20.324       14.196       10.385      413.056      201.517      107.843        0.096        0.036       34.218       13.512        0.156      339.229       12.418      858.793
02/25/2014  21:29:00      -49.106       12.414      -13.546       12.056       19.534       11.420      145.341      381.588      130.412        0.170        0.033       50.651        7.463        0.022      339.175       12.329      858.785
02/25/2014  21:30:00      -94.987      -14.921      -10.044       34.896       42.232       15.670     1217.726     1783.578      245.534        0.630        0.162       96.151       10.844        0.013      338.802       11.701      858.800
02/25/2014  21:31:00      -95.276      -23.491      -15.784       18.482       14.390       13.050      341.602      207.079      170.297        0.530        0.036       98.129       10.768        0.012      338.670       11.479      858.806
02/25/2014  21:32:00      -93.828      -60.460       -3.736       17.202       15.310       10.243      295.899      234.383      104.912        0.655        0.032      111.621        8.732        0.006      338.695       11.522      858.798
02/25/2014  21:33:00      -92.733      -43.203       -4.248       24.073       14.167        9.905      579.502      200.715       98.108        0.568        0.044      102.303        5.043        0.002      338.823       11.737      858.794
02/25/2014  21:34:00      -48.412      -16.831       -2.945       19.126       13.595        8.988      365.800      184.824       80.776        0.163        0.032       51.254       11.719        0.052      338.986       12.011      858.783
02/25/2014  21:35:00      -87.810      -51.060       -8.047       23.689       20.842       14.393      561.160      434.398      207.156        0.579        0.060      101.576       10.007        0.010      338.886       11.843      858.781
02/25/2014  21:36:00     -104.347      -52.594       -6.824       33.864       17.110       18.791     1146.801      292.763      353.095        0.775        0.090      116.852       15.856        0.018      338.701       11.531      858.782
02/25/2014  21:37:00      -45.862      -35.007        1.908       27.309       15.392       13.975      745.757      236.907      195.307        0.225        0.059       57.696       14.336        0.062      338.885       11.840      858.775
02/25/2014  21:38:00      -54.883      -41.072        2.057       43.777       28.072       16.421     1916.403      788.050      269.661        0.384        0.149       68.550       18.350        0.072      339.060       12.135      858.763
02/25/2014  21:39:00      -21.647      -40.688        4.789       25.741       12.548       13.963      662.578      157.445      194.954        0.158        0.051       46.088       14.294        0.096      339.129       12.252      858.768
02/25/2014  21:40:00      -35.697      -20.606        1.684       37.866       18.525       13.441     1433.820      343.171      180.654        0.183        0.098       41.217       12.736        0.095      339.018       12.063      858.774
02/25/2014  21:41:00      -56.546       -7.936        0.084       28.935       18.697       17.663      837.207      349.560      311.965        0.238        0.075       57.101       18.079        0.100      338.852       11.784      858.782
02/25/2014  21:42:00      -20.652       -0.487        4.815       24.362       18.247       16.302      593.518      332.957      265.753        0.082        0.060       20.657        9.786        0.224      338.644       11.434      858.782
02/25/2014  21:43:00      -46.173      -25.510        1.545       41.489       30.139       20.817     1721.351      908.358      433.346        0.292        0.153       52.752       18.022        0.117      338.384       10.999      858.791
02/25/2014  21:44:00     -110.617      -15.671       -6.867       40.526       35.509       23.250     1642.327     1260.861      540.575        0.799        0.172      111.722       20.884        0.035      338.362       10.962      858.808
02/25/2014  21:45:00      -91.639      -62.847      -10.449       33.235       40.714       23.468     1104.559     1657.629      550.745        0.788        0.166      111.119       19.027        0.029      338.307       10.869      858.807
02/25/2014  21:46:00     -148.482       -0.402      -15.335       53.136       63.519       26.195     2823.420     4034.645      686.162        1.491        0.377      148.482       26.940        0.033      338.287       10.835      858.812
02/25/2014  21:47:00     -140.475       16.151      -13.885       45.033       36.760       24.909     2027.975     1351.275      620.437        1.209        0.200      141.400       20.657        0.021      338.253       10.779      858.804
02/25/2014  21:48:00     -114.386       -6.114      -14.009       51.659       48.303       28.433     2668.631     2333.182      808.417        0.956        0.291      114.549       21.064        0.034      338.184       10.664      858.809
02/25/2014  21:49:00     -117.798      -14.913      -11.216       36.004       45.500       21.958     1296.294     2070.221      482.139        0.904        0.192      118.738       18.219        0.024      338.284       10.831      858.799
02/25/2014  21:50:00      -89.583      -26.076      -15.484       49.628       46.738       30.203     2462.920     2184.481      912.209        0.725        0.278       93.301       29.418        0.099      338.006       10.365      858.790
02/25/2014  21:51:00      -86.670      -21.698       -0.623       69.870       32.588       25.394     4881.869     1062.002      644.838        0.728        0.329       89.345       31.936        0.128      337.862       10.123      858.783
02/25/2014  21:52:00      -56.627       -2.834       -2.252       33.188       22.891       19.150     1101.469      523.997      366.708        0.261        0.100       56.698       14.308        0.064      337.824       10.058      858.791
02/25/2014  21:53:00      -80.044      -28.696      -14.340       21.267       28.614       15.877      452.288      818.757      252.065        0.448        0.076       85.032       11.391        0.018      337.860       10.119      858.786
02/25/2014  21:54:00     -100.563      -27.919      -14.978       15.975       20.896       12.316      255.203      436.629      151.688        0.598        0.042      104.367        9.024        0.007      337.827       10.066      858.788
02/25/2014  21:55:00      -90.809      -48.842      -15.362       26.892       26.844       18.006      723.205      720.584      324.210        0.632        0.088      103.111        4.539        0.002      337.858       10.116      858.806
02/25/2014  21:56:00     -120.764      -45.223      -19.642       46.187       29.961       28.552     2133.202      897.672      815.202        1.043        0.192      128.954       19.496        0.023      337.873       10.141      858.804
02/25/2014  21:57:00     -139.989      -21.206      -22.168       36.796       32.286       20.946     1353.953     1042.412      438.754        1.169        0.142      141.586       11.596        0.007      337.962       10.290      858.796
02/25/2014  21:58:00     -108.730      -39.538       -6.467       35.164       32.723       22.602     1236.502     1070.804      510.834        0.812        0.141      115.696       12.596        0.012      337.828       10.066      858.798
02/25/2014  21:59:00     -101.969      -16.751       -9.474       42.599       30.161       25.610     1814.654      909.700      655.882        0.707        0.169      103.336       23.456        0.052      337.931       10.238      858.795
02/25/2014  22:00:00      -89.388       -8.203        0.402       58.550       50.650       32.689     3428.161     2565.426     1068.563        0.756        0.353       89.764       33.941        0.143      338.111       10.540      858.781
02/25/2014  22:01:00     -127.607      -25.134       -3.789       56.469       49.862       33.984     3188.705     2486.178     1154.883        1.188        0.341      130.058       29.508        0.051      337.998       10.352      858.792
02/25/2014  22:02:00     -163.353       -1.951      -12.930       51.714       48.234       30.028     2674.333     2326.526      901.697        1.638        0.295      163.364       26.840        0.027      337.986       10.330      858.796
02/25/2014  22:03:00     -186.910       17.547      -14.415       67.713       47.358       36.010     4585.101     2242.756     1296.740        2.179        0.406      187.732       35.081        0.035      338.042       10.423      858.797
02/25/2014  22:04:00     -157.397       -7.338       -8.771       48.151       47.706       28.589     2318.497     2275.899      817.311        1.516        0.271      157.568       25.548        0.026      337.903       10.191      858.813
02/25/2014  22:05:00      -89.811      -10.540       -1.503       46.259       43.109       27.481     2139.925     1858.346      755.213        0.647        0.238       90.427       26.151        0.084      337.874       10.144      858.818
02/25/2014  22:06:00     -135.648       -1.339      -10.930       59.572       33.630       31.162     3548.812     1130.959      971.055        1.209        0.283      135.655       30.347        0.050      337.800       10.018      858.830
02/25/2014  22:07:00     -169.603        0.065      -15.601       34.776       31.852       21.322     1209.382     1014.568      454.623        1.584        0.134      169.603       14.646        0.007      337.841       10.088      858.836
02/25/2014  22:08:00     -181.465        1.103      -15.803       64.254       53.967       32.607     4128.516     2912.443     1063.227        2.064        0.405      181.469       34.920        0.037      337.851       10.103      858.846
02/25/2014  22:09:00     -206.580       33.710      -18.916       50.622       45.522       27.687     2562.604     2072.239      766.583        2.478        0.270      209.312       21.427        0.010      338.001       10.352      858.854
02/25/2014  22:10:00     -166.249       24.894      -13.329       42.253       45.074       22.604     1785.346     2031.674      510.922        1.638        0.216      168.103       17.410        0.011      337.977       10.316      858.850
02/25/2014  22:11:00     -180.836       26.900      -10.671       60.812       49.602       31.629     3698.087     2460.390     1000.390        2.035        0.358      182.826       26.114        0.020      337.903       10.190      858.844
02/25/2014  22:12:00     -194.434       16.724      -14.965       43.366       41.008       31.574     1880.623     1681.644      996.920        2.143        0.228      195.152       27.912        0.020      337.820       10.052      858.842
02/25/2014  22:13:00     -102.633        3.922        2.174       67.109       44.529       30.219     4503.552     1982.794      913.196        0.898        0.370      102.707       34.224        0.111      337.923       10.225      858.844
02/25/2014  22:14:00     -119.561       -7.509       -7.903       49.413       40.767       26.683     2441.688     1661.919      711.993        0.961        0.241      119.797       22.770        0.036      337.952       10.274      858.848
02/25/2014  22:15:00      -75.419       -1.574       -5.928       51.139       31.588       22.179     2615.157      997.832      491.903        0.491        0.205       75.436       17.470        0.054      337.994       10.344      858.853
02/25/2014  22:16:00      -64.677       -2.198       -5.536       46.781       31.902       22.008     2188.448     1017.765      484.344        0.395        0.185       64.714       21.262        0.108      338.085       10.496      858.845
02/25/2014  22:17:00     -103.154       -6.335      -10.352       34.263       35.904       20.908     1173.978     1289.113      437.145        0.684        0.145      103.348       19.535        0.036      337.964       10.294      858.835
02/25/2014  22:18:00      -15.318       -8.393       11.171       39.332       26.272       23.996     1547.021      690.214      575.815        0.162        0.141       17.467       20.247        1.344      337.877       10.147      858.827
02/25/2014  22:19:00      -41.975       -9.829       -2.702       24.192       25.765       15.868      585.247      663.819      251.784        0.168        0.075       43.111        7.160        0.028      337.955       10.279      858.810
02/25/2014  22:20:00      -41.477      -10.839       -7.106       24.263       32.480       15.315      588.687     1054.953      234.557        0.188        0.094       42.870        7.052        0.027      338.008       10.368      858.811
02/25/2014  22:21:00      -62.175      -38.658       -6.232       32.956       22.672       15.836     1086.102      514.040      250.764        0.362        0.093       73.213       12.098        0.027      337.995       10.346      858.798
02/25/2014  22:22:00      -76.543      -43.560       -5.343       35.589       21.791       20.651     1266.575      474.839      426.483        0.498        0.108       88.070       20.635        0.055      337.808       10.033      858.807
02/25/2014  22:23:00     -112.614      -38.504       -8.083       27.052       30.530       17.170      731.784      932.076      294.803        0.809        0.098      119.015       12.782        0.012      337.717        9.879      858.811
02/25/2014  22:24:00      -96.890      -28.158      -14.736       45.921       24.903       22.152     2108.768      620.179      490.731        0.681        0.161      100.898       16.695        0.027      337.762        9.956      858.822
02/25/2014  22:25:00      -88.218      -26.975       -2.507       48.253       27.236       28.811     2328.305      741.779      830.069        0.621        0.195       92.250       33.892        0.135      337.806       10.030      858.826
02/25/2014  22:26:00     -105.927      -21.236       -8.740       48.371       33.315       22.636     2339.773     1109.911      512.391        0.785        0.198      108.035       13.017        0.015      337.898       10.183      858.838
02/25/2014  22:27:00     -102.140      -39.855       -6.136       37.147       33.569       24.417     1379.915     1126.872      596.209        0.758        0.155      109.640       19.488        0.032      337.894       10.178      858.851
02/25/2014  22:28:00      -98.446      -18.956       -1.276       43.959       31.533       23.534     1932.411      994.357      553.833        0.677        0.174      100.254       22.255        0.049      338.034       10.411      858.859
02/25/2014  22:29:00      -91.445        0.229       -3.053       45.239       35.861       28.255     2046.531     1286.033      798.358        0.625        0.207       91.445       20.070        0.048      338.187       10.669      858.871
02/25/2014  22:30:00      -96.469       13.492       -0.126       44.851       37.178       26.089     2011.642     1382.240      680.656        0.678        0.204       97.408       21.542        0.049      338.265       10.798      858.876
02/25/2014  22:31:00      -98.899       18.564       -5.592       33.394       33.305       20.736     1115.180     1109.254      429.986        0.641        0.133      100.626       13.034        0.017      338.261       10.792      858.868
02/25/2014  22:32:00      -83.854      -14.473       -3.262       45.678       41.744       22.030     2086.473     1742.572      485.300        0.578        0.216       85.094       23.534        0.076      338.041       10.423      858.879
02/25/2014  22:33:00     -107.412      -36.698       -2.032       45.461       29.798       21.410     2066.694      887.944      458.399        0.815        0.171      113.508       22.008        0.038      337.810       10.034      858.888
02/25/2014  22:34:00      -87.286      -36.555        0.249       35.816       21.385       17.116     1282.771      457.307      292.942        0.549        0.102       94.631       17.786        0.035      337.778        9.981      858.889
02/25/2014  22:35:00      -46.516      -38.762        5.170       34.941       20.553       16.856     1220.884      422.411      284.124        0.281        0.096       60.549       20.869        0.119      337.816       10.046      858.893
02/25/2014  22:36:00      -68.781      -30.058       -4.405       14.624       22.492       12.335      213.861      505.884      152.156        0.326        0.044       75.062        7.148        0.009      337.823       10.058      858.902
02/25/2014  22:37:00      -73.597      -46.067       -1.296       30.897       21.932       12.216      954.622      481.001      149.241        0.456        0.079       86.826       11.786        0.018      337.852       10.107      858.905
02/25/2014  22:38:00      -74.235      -45.292       -8.182        9.460        9.353        7.702       89.484       87.482       59.314        0.393        0.012       86.961        4.494        0.003      337.883       10.159      858.904
02/25/2014  22:39:00      -77.636      -37.573      -12.959       12.471       11.255        6.760      155.536      126.677       45.694        0.397        0.016       86.250        5.961        0.005      337.920       10.217      858.900
02/25/2014  22:40:00      -52.565      -41.479       -9.482       13.295       12.207        9.807      176.750      149.016       96.178        0.250        0.021       66.960        5.404        0.007      337.967       10.300      858.892
02/25/2014  22:41:00      -60.512      -34.661       -9.764        9.009       11.697        7.663       81.156      136.818       58.719        0.262        0.014       69.735        4.708        0.005      337.993       10.344      858.885
02/25/2014  22:42:00      -37.089      -23.829       -0.181       21.464       13.535       11.671      460.694      183.204      136.219        0.136        0.039       44.084       14.253        0.105      338.112       10.543      858.872
02/25/2014  22:43:00      -41.651      -24.505       -7.849        8.651        7.828        8.135       74.835       61.281       66.179        0.130        0.010       48.325        4.340        0.008      338.062       10.459      858.858
02/25/2014  22:44:00      -38.850      -24.481       -5.641       13.902        8.828        9.695      193.260       77.927       93.985        0.125        0.018       45.920        5.554        0.015      338.050       10.438      858.838
02/25/2014  22:45:00      -42.802      -29.837        2.829       21.643       17.421       12.402      468.415      303.506      153.809        0.183        0.046       52.175       11.971        0.053      338.008       10.368      858.825
02/25/2014  22:46:00      -99.951      -57.156       -3.638       49.325       22.626       14.273     2432.928      511.946      203.729        0.821        0.157      115.139       13.937        0.015      337.875       10.145      858.823
02/25/2014  22:47:00     -135.171      -65.940        2.738       43.371       24.492       19.094     1881.020      599.868      364.593        1.274        0.142      150.397       20.245        0.018      337.916       10.214      858.827
02/25/2014  22:48:00     -127.541      -72.671        1.371       48.188       34.021       24.489     2322.130     1157.428      599.729        1.281        0.204      146.792       22.685        0.024      337.949       10.270      858.822
02/25/2014  22:49:00     -131.441      -34.648       -9.613       31.673       24.525       15.412     1003.209      601.479      237.535        1.021        0.092      135.930       11.219        0.007      337.906       10.195      858.813
02/25/2014  22:50:00      -78.308      -24.521        2.642       30.664       22.821       17.097      940.253      520.788      292.315        0.425        0.088       82.057       16.490        0.040      337.982       10.324      858.803
02/25/2014  22:51:00      -50.762      -30.430       -6.267       30.936       16.616       16.368      957.053      276.075      267.915        0.252        0.075       59.184       17.477        0.087      338.038       10.417      858.798
02/25/2014  22:52:00      -33.658      -35.210        3.156       25.567       12.406       13.451      653.653      153.919      180.926        0.169        0.049       48.710       13.383        0.075      338.132       10.574      858.789
02/25/2014  22:53:00     -109.661      -45.614       -4.819       34.424       13.277       15.789     1184.979      176.272      249.301        0.787        0.081      118.770       17.182        0.021      337.957       10.282      858.791
02/25/2014  22:54:00      -95.368      -44.568        4.947       66.188       30.845       22.406     4380.790      951.393      502.018        0.847        0.292      105.268       33.123        0.099      337.799       10.017      858.784
02/25/2014  22:55:00      -56.916      -33.987        3.951       32.013       22.603       18.610     1024.825      510.879      346.332        0.315        0.094       66.292       19.252        0.084      337.802       10.022      858.774
02/25/2014  22:56:00      -62.357      -42.356       -4.957       20.174       15.778       11.136      406.989      248.951      124.021        0.324        0.039       75.382        6.474        0.007      337.891       10.171      858.775
02/25/2014  22:57:00      -67.474      -41.379       -6.869       35.190       16.006       18.413     1238.357      256.186      339.040        0.407        0.092       79.152       21.855        0.076      337.918       10.217      858.757
02/25/2014  22:58:00      -99.273      -54.168       -7.824       22.678       15.312       14.121      514.272      234.465      199.397        0.690        0.047      113.090       14.866        0.017      337.869       10.135      858.747
02/25/2014  22:59:00      -86.033      -40.804      -15.754       15.672       10.858        9.142      245.620      117.898       83.577        0.488        0.022       95.219        5.171        0.003      337.871       10.137      858.731
02/25/2014  23:00:00      -76.791      -43.591      -12.367       13.226       11.926        8.553      174.938      142.218       73.158        0.417        0.020       88.301        3.093        0.001      337.859       10.117      858.718
02/25/2014  23:01:00      -74.633      -38.320      -11.360       10.861       11.589        7.604      117.965      134.314       57.816        0.374        0.016       83.896        5.883        0.005      337.861       10.121      858.709
02/25/2014  23:02:00      -75.105      -33.298      -12.713       11.432       13.425       10.055      130.685      180.242      101.094        0.366        0.021       82.155        8.286        0.010      337.831       10.072      858.697
02/25/2014  23:03:00      -79.420      -37.219      -15.334       11.647       14.893        9.108      135.653      221.803       82.954        0.418        0.022       87.709        6.655        0.006      337.791       10.004      858.692
02/25/2014  23:04:00      -87.200      -39.387       -8.877       25.391       25.738       15.601      644.689      662.463      243.406        0.539        0.078       95.683       13.793        0.021      337.812       10.038      858.681
02/25/2014  23:05:00      -66.665      -24.949       -5.733       35.563       25.858       18.294     1264.694      668.632      334.676        0.368        0.113       71.180       19.350        0.074      337.857       10.113      858.681
02/25/2014  23:06:00      -56.182      -11.368       -3.338       63.489       28.535       22.883     4030.840      814.269      523.636        0.433        0.268       57.320       26.255        0.210      337.775        9.977      858.675
02/25/2014  23:07:00      -22.130      -36.906        4.258       33.953       27.621       16.697     1152.814      762.942      278.774        0.203        0.110       43.032        6.071        0.020      337.842       10.090      858.674
02/25/2014  23:08:00      -23.811      -24.758        7.896       31.742       30.177       17.659     1007.582      910.664      311.827        0.174        0.112       34.350       16.410        0.228      337.907       10.199      858.680
02/25/2014  23:09:00      -66.192      -25.626        2.709       41.688       28.125       21.107     1737.879      791.036      445.501        0.401        0.149       70.980       24.133        0.116      337.811       10.038      858.678
02/25/2014  23:10:00      -65.203       -6.140       -4.180       45.991       34.248       18.354     2115.181     1172.933      336.852        0.397        0.181       65.492       19.825        0.092      337.868       10.133      858.685
02/25/2014  23:11:00      -33.706       -8.973        4.120       35.891       34.628       21.624     1288.182     1199.107      467.586        0.209        0.148       34.880       19.559        0.314      337.935       10.245      858.688
02/25/2014  23:12:00      -25.990        3.832        4.492       34.180       30.054       22.253     1168.249      903.270      495.217        0.164        0.128       26.271       18.176        0.479      337.911       10.206      858.689
02/25/2014  23:13:00      -30.729      -26.643       -0.300       43.292       29.960       17.702     1874.172      897.581      313.343        0.237        0.154       40.671       18.715        0.212      337.911       10.205      858.684
02/25/2014  23:14:00      -28.033      -12.311        2.241       40.423       33.295       25.771     1634.012     1108.587      664.168        0.217        0.170       30.618       24.803        0.656      338.076       10.481      858.672
02/25/2014  23:15:00      -12.415        0.129        1.716       24.168       26.178       19.312      584.086      685.297      372.959        0.090        0.082       12.416       14.112        1.292      338.062       10.458      858.661
02/25/2014  23:16:00      -61.353      -12.427       -7.475       44.247       31.460       18.635     1957.753      989.750      347.256        0.363        0.165       62.599       15.854        0.064      338.048       10.435      858.652
02/25/2014  23:17:00      -21.991        3.599        0.576       36.450       22.901       18.853     1328.571      524.441      355.434        0.135        0.110       22.284       18.928        0.722      338.023       10.392      858.648
02/25/2014  23:18:00      -21.236       -8.324        0.289       25.208       24.757       13.879      635.432      612.885      192.613        0.098        0.072       22.809        9.646        0.179      338.158       10.621      858.655
02/25/2014  23:19:00      -21.222      -23.702       -5.042       35.513       22.525       15.777     1261.205      507.385      248.902        0.153        0.101       31.814        4.350        0.019      337.931       10.239      858.668
02/25/2014  23:20:00      -45.687      -30.359       -6.963       26.565       20.165       10.732      705.705      406.633      115.174        0.214        0.061       54.854        8.614        0.025      337.817       10.047      858.672
02/25/2014  23:21:00      -39.341      -36.626       -0.498       30.931       16.902       10.490      956.697      285.673      110.030        0.212        0.068       53.751       12.962        0.058      337.771        9.969      858.678
02/25/2014  23:22:00       -2.758      -25.862        2.931       14.367       11.996       11.199      206.399      143.910      125.416        0.058        0.024       26.009        2.577        0.010      337.968       10.301      858.678
02/25/2014  23:23:00        4.419      -39.705       -2.254       14.573       11.888       10.192      212.375      141.336      103.877        0.103        0.023       39.950        8.359        0.044      337.934       10.245      858.677
02/25/2014  23:24:00       -7.127      -32.439       -3.601       11.273       13.133        9.302      127.070      172.482       86.532        0.075        0.019       33.212        5.943        0.032      338.039       10.420      858.676
02/25/2014  23:25:00      -29.283      -16.418        3.841       30.947       11.204       11.100      957.705      125.526      123.200        0.117        0.060       33.572       14.625        0.190      337.980       10.320      858.676
02/25/2014  23:26:00      -78.559      -25.076       -7.195       12.754       11.442        8.485      162.652      130.922       71.994        0.361        0.018       82.465        5.769        0.005      337.962       10.291      858.670
02/25/2014  23:27:00     -105.953      -39.020       -9.738       11.291       15.121        8.350      127.498      228.637       69.728        0.663        0.021      112.910        6.938        0.004      337.902       10.190      858.673
02/25/2014  23:28:00     -121.757      -55.065       -8.836       14.147       19.021       11.467      200.141      361.814      131.486        0.931        0.035      133.630        6.807        0.003      337.848       10.101      858.661
02/25/2014  23:29:00     -118.040      -52.558       -6.684       27.935       18.589       16.381      780.362      345.545      268.328        0.907        0.070      129.213       14.534        0.013      337.785        9.993      858.645
02/25/2014  23:30:00     -117.820      -58.085       -1.988       31.072       22.118       16.962      965.468      489.210      287.714        0.950        0.087      131.360       13.358        0.010      337.746        9.928      858.627
02/25/2014  23:31:00     -120.414      -47.386       -8.011       16.219       17.487       12.960      263.058      305.780      167.956        0.877        0.037      129.402       10.300        0.006      337.691        9.837      858.609
02/25/2014  23:32:00      -94.237      -29.469       -9.097       18.218       17.313       12.755      331.897      299.729      162.684        0.531        0.040       98.737       11.161        0.013      337.725        9.893      858.594
02/25/2014  23:33:00      -94.347      -29.305      -10.099       16.274       20.755       10.488      264.835      430.759      110.006        0.533        0.040       98.794        6.105        0.004      337.850       10.104      858.568
02/25/2014  23:34:00      -34.880      -12.218        1.489       33.025       23.608       17.893     1090.681      557.340      320.142        0.167        0.098       36.958       14.500        0.154      337.888       10.166      858.553
02/25/2014  23:35:00      -43.601       -8.344        9.113       39.808       29.137       18.926     1584.642      848.988      358.180        0.242        0.140       44.392       18.715        0.178      337.872       10.139      858.544
02/25/2014  23:36:00      -37.422       14.914        0.919       31.698       26.355       18.660     1004.753      694.605      348.190        0.184        0.102       40.284       15.300        0.144      337.949       10.268      858.538
02/25/2014  23:37:00      -51.515        9.459      -10.773       20.910       25.641       14.048      437.226      657.478      197.339        0.208        0.065       52.377        7.053        0.018      337.864       10.127      858.527
02/25/2014  23:38:00      -28.854      -24.908       -9.895       11.862       18.262        9.020      140.709      333.492       81.357        0.105        0.028       38.118        6.391        0.028      337.808       10.031      858.512
02/25/2014  23:39:00      -47.615      -33.977       -1.781       27.463       16.206       13.013      754.239      262.646      169.339        0.231        0.059       58.495        8.205        0.020      337.704        9.856      858.504
02/25/2014  23:40:00     -103.423      -33.182       -7.466       15.968       20.540       12.819      254.974      421.902      164.323        0.635        0.042      108.616        7.556        0.005      337.525        9.558      858.489
02/25/2014  23:41:00      -65.423      -10.767       -7.779       17.198       16.977       12.851      295.763      288.206      165.142        0.260        0.037       66.304       11.443        0.030      337.522        9.554      858.480
02/25/2014  23:42:00      -94.721      -11.489      -12.866       18.115       15.273       12.488      328.157      233.276      155.952        0.499        0.036       95.415        8.866        0.009      337.548        9.596      858.466
02/25/2014  23:43:00      -85.715      -16.519      -12.723       12.801       12.451        9.377      163.863      155.030       87.934        0.409        0.020       87.292        6.585        0.006      337.482        9.485      858.452
02/25/2014  23:44:00      -36.511       10.058      -15.629       27.099       30.017       18.074      734.350      901.008      326.658        0.182        0.098       37.871       13.401        0.125      337.899       10.185      858.442
02/25/2014  23:45:00      -21.578       -2.589        1.699       34.831       20.803       15.316     1213.180      432.750      234.565        0.118        0.094       21.733       18.321        0.711      337.832       10.071      858.438
02/25/2014  23:46:00        3.825       19.783       10.474       26.791       25.074       13.356      717.736      628.703      178.389        0.102        0.076       20.149        9.722        0.233      338.023       10.393      858.431
02/25/2014  23:47:00       10.707       37.430       -3.054       28.893       22.722       11.890      834.809      516.300      141.365        0.151        0.075       38.932       11.184        0.083      338.107       10.534      858.419
02/25/2014  23:48:00       23.780       34.490       -4.104       17.211       19.840       12.611      296.222      393.635      159.042        0.131        0.042       41.893       10.250        0.060      338.018       10.385      858.406
02/25/2014  23:49:00       25.213       22.872       -5.193       21.620       28.790       13.555      467.422      828.872      183.739        0.133        0.074       34.042       16.156        0.225      338.014       10.378      858.398
02/25/2014  23:50:00       14.790        8.118        2.461       13.098       10.139       11.274      171.548      102.792      127.104        0.035        0.020       16.871        7.712        0.209      337.924       10.226      858.400
02/25/2014  23:51:00        2.450       -6.635       -5.868       12.591       17.261       10.550      158.542      297.932      111.293        0.033        0.028        7.073        6.335        0.802      337.900       10.187      858.407
02/25/2014  23:52:00      -36.951      -23.575       -6.247       15.008       12.105        6.623      225.235      146.531       43.865        0.119        0.021       43.831        5.288        0.015      337.608        9.697      858.421
02/25/2014  23:53:00      -52.180      -32.153      -11.810       13.323       10.695        8.501      177.504      114.384       72.271        0.213        0.018       61.291        3.526        0.003      337.542        9.587      858.435
02/25/2014  23:54:00      -69.244      -34.748       -4.570       16.229       12.341        9.463      263.373      152.307       89.543        0.326        0.025       77.474        2.194        0.001      337.551        9.601      858.441
02/25/2014  23:55:00      -67.478      -39.998       -0.902       15.466       15.889       10.087      239.188      252.447      101.756        0.337        0.030       78.442        2.267        0.001      337.472        9.469      858.443
02/25/2014  23:56:00      -49.022      -36.095       -1.311       23.955       16.478       13.503      573.856      271.521      182.339        0.237        0.051       60.877       12.139        0.040      337.440        9.415      858.449
02/25/2014  23:57:00      -60.956      -25.799        1.271       28.733       23.723       17.751      825.573      562.769      315.103        0.304        0.085       66.190       14.643        0.049      337.416        9.375      858.446
02/25/2014  23:58:00      -72.830      -33.620       -2.424       28.628       29.338       14.527      819.576      860.730      211.039        0.417        0.095       80.216       16.421        0.042      337.477        9.476      858.448
02/25/2014  23:59:00      -67.078      -24.878       -3.476       16.622       17.020       11.199      276.300      289.696      125.428        0.291        0.035       71.543        4.460        0.004      337.470        9.465      858.450
